Wetterdaten: Montag, 11.03.2019
Datum Zeit Temp. A. Feuchte A. Luftdruck Regen Wind Richtung Richtung Sonnenschein ET UV Solar Taupunkt Windchill Windböen
11.03.2019 00:00 5,1 °C 70 % 1017,3 hPa 0,0 mm 10,8 km/h (2 Bft) W 265 ° 0 min 0,000 mm 0,0 UV-I 0 W/m² 0,1 °C 2,6 °C 16,1 km/h (3 Bft)
11.03.2019 00:01 5,1 °C 71 % 1017,3 hPa 0,0 mm 7,9 km/h (2 Bft) W-NW 284 ° 0 min 0,000 mm 0,0 UV-I 0 W/m² 0,3 °C 3,3 °C 11,3 km/h (2 Bft)
11.03.2019 00:02 5,0 °C 72 % 1017,3 hPa 0,0 mm 5,1 km/h (1 Bft) W 266 ° 0 min 0,000 mm 0,0 UV-I 0 W/m² 0,4 °C 4,0 °C 11,3 km/h (2 Bft)
11.03.2019 00:03 4,9 °C 72 % 1017,3 hPa 0,0 mm 17,6 km/h (3 Bft) W 264 ° 0 min 0,000 mm 0,0 UV-I 0 W/m² 0,3 °C 1,2 °C 30,6 km/h (5 Bft)
11.03.2019 00:04 4,9 °C 72 % 1017,3 hPa 0,0 mm 21,7 km/h (4 Bft) W 263 ° 0 min 0,000 mm 0,0 UV-I 0 W/m² 0,3 °C 0,7 °C 29,0 km/h (5 Bft)
11.03.2019 00:05 4,9 °C 72 % 1017,3 hPa 0,0 mm 17,0 km/h (3 Bft) W-NW 286 ° 0 min 0,000 mm 0,0 UV-I 0 W/m² 0,3 °C 1,3 °C 24,1 km/h (4 Bft)
11.03.2019 00:06 4,8 °C 73 % 1017,3 hPa 0,0 mm 16,6 km/h (3 Bft) W 266 ° 0 min 0,000 mm 0,0 UV-I 0 W/m² 0,4 °C 1,3 °C 25,7 km/h (4 Bft)
11.03.2019 00:07 4,8 °C 73 % 1017,3 hPa 0,0 mm 12,1 km/h (2 Bft) W-SW 256 ° 0 min 0,000 mm 0,0 UV-I 0 W/m² 0,4 °C 2,0 °C 16,1 km/h (3 Bft)
11.03.2019 00:08 4,8 °C 73 % 1017,3 hPa 0,0 mm 11,3 km/h (2 Bft) W-NW 289 ° 0 min 0,000 mm 0,0 UV-I 0 W/m² 0,4 °C 2,1 °C 17,7 km/h (3 Bft)
11.03.2019 00:09 4,8 °C 73 % 1017,4 hPa 0,0 mm 21,0 km/h (4 Bft) W-NW 295 ° 0 min 0,000 mm 0,0 UV-I 0 W/m² 0,4 °C 0,7 °C 27,4 km/h (4 Bft)
11.03.2019 00:10 4,8 °C 73 % 1017,4 hPa 0,0 mm 19,5 km/h (3 Bft) W-NW 290 ° 0 min 0,000 mm 0,0 UV-I 0 W/m² 0,4 °C 0,9 °C 25,7 km/h (4 Bft)
11.03.2019 00:11 4,7 °C 72 % 1017,5 hPa 0,0 mm 19,0 km/h (3 Bft) W-NW 286 ° 0 min 0,000 mm 0,0 UV-I 0 W/m² 0,1 °C 0,8 °C 27,4 km/h (4 Bft)
11.03.2019 00:12 4,7 °C 73 % 1017,5 hPa 0,0 mm 19,7 km/h (3 Bft) W 277 ° 0 min 0,000 mm 0,0 UV-I 0 W/m² 0,3 °C 0,7 °C 27,4 km/h (4 Bft)
11.03.2019 00:13 4,7 °C 73 % 1017,5 hPa 0,0 mm 16,8 km/h (3 Bft) NW 306 ° 0 min 0,000 mm 0,0 UV-I 0 W/m² 0,3 °C 1,1 °C 22,5 km/h (4 Bft)
11.03.2019 00:14 4,7 °C 73 % 1017,5 hPa 0,0 mm 14,9 km/h (3 Bft) W 271 ° 0 min 0,000 mm 0,0 UV-I 0 W/m² 0,3 °C 1,4 °C 20,9 km/h (4 Bft)
11.03.2019 00:15 4,6 °C 73 % 1017,6 hPa 0,0 mm 13,1 km/h (3 Bft) W 275 ° 0 min 0,000 mm 0,0 UV-I 0 W/m² 0,2 °C 1,6 °C 19,3 km/h (3 Bft)
11.03.2019 00:16 4,6 °C 74 % 1017,6 hPa 0,0 mm 20,9 km/h (4 Bft) W 265 ° 0 min 0,000 mm 0,0 UV-I 0 W/m² 0,4 °C 0,5 °C 29,0 km/h (5 Bft)
11.03.2019 00:17 4,5 °C 73 % 1017,5 hPa 0,0 mm 25,9 km/h (4 Bft) W 278 ° 0 min 0,000 mm 0,0 UV-I 0 W/m² 0,1 °C -0,2 °C 40,2 km/h (6 Bft)
11.03.2019 00:18 4,5 °C 73 % 1017,5 hPa 0,0 mm 20,0 km/h (4 Bft) W-SW 243 ° 0 min 0,000 mm 0,0 UV-I 0 W/m² 0,1 °C 0,4 °C 25,7 km/h (4 Bft)
11.03.2019 00:19 4,4 °C 73 % 1017,4 hPa 0,0 mm 15,1 km/h (3 Bft) W-NW 287 ° 0 min 0,000 mm 0,0 UV-I 0 W/m² -0,0 °C 1,0 °C 20,9 km/h (4 Bft)
11.03.2019 00:20 4,4 °C 74 % 1017,4 hPa 0,0 mm 26,2 km/h (4 Bft) NW 319 ° 0 min 0,000 mm 0,0 UV-I 0 W/m² 0,2 °C -0,4 °C 35,4 km/h (5 Bft)
11.03.2019 00:21 4,4 °C 73 % 1017,5 hPa 0,0 mm 23,4 km/h (4 Bft) N-NW 328 ° 0 min 0,000 mm 0,0 UV-I 0 W/m² -0,0 °C -0,1 °C 29,0 km/h (5 Bft)
11.03.2019 00:22 4,3 °C 73 % 1017,5 hPa 0,0 mm 20,5 km/h (4 Bft) W-NW 284 ° 0 min 0,000 mm 0,0 UV-I 0 W/m² -0,1 °C 0,1 °C 29,0 km/h (5 Bft)
11.03.2019 00:23 4,3 °C 73 % 1017,5 hPa 0,0 mm 20,5 km/h (4 Bft) W-NW 283 ° 0 min 0,000 mm 0,0 UV-I 0 W/m² -0,1 °C 0,1 °C 32,2 km/h (5 Bft)
11.03.2019 00:24 4,3 °C 73 % 1017,5 hPa 0,0 mm 15,8 km/h (3 Bft) W-NW 292 ° 0 min 0,000 mm 0,0 UV-I 0 W/m² -0,1 °C 0,8 °C 22,5 km/h (4 Bft)
11.03.2019 00:25 4,3 °C 74 % 1017,5 hPa 0,0 mm 16,9 km/h (3 Bft) NW 307 ° 0 min 0,000 mm 0,0 UV-I 0 W/m² 0,1 °C 0,6 °C 22,5 km/h (4 Bft)
11.03.2019 00:26 4,3 °C 74 % 1017,5 hPa 0,0 mm 15,8 km/h (3 Bft) W-NW 303 ° 0 min 0,000 mm 0,0 UV-I 0 W/m² 0,1 °C 0,8 °C 22,5 km/h (4 Bft)
11.03.2019 00:27 4,3 °C 74 % 1017,5 hPa 0,0 mm 16,4 km/h (3 Bft) W 265 ° 0 min 0,000 mm 0,0 UV-I 0 W/m² 0,1 °C 0,7 °C 24,1 km/h (4 Bft)
11.03.2019 00:28 4,2 °C 74 % 1017,5 hPa 0,0 mm 10,1 km/h (2 Bft) W-NW 288 ° 0 min 0,000 mm 0,0 UV-I 0 W/m² -0,0 °C 1,7 °C 14,5 km/h (3 Bft)
11.03.2019 00:29 4,2 °C 74 % 1017,5 hPa 0,0 mm 15,2 km/h (3 Bft) W 271 ° 0 min 0,000 mm 0,0 UV-I 0 W/m² -0,0 °C 0,7 °C 25,7 km/h (4 Bft)
11.03.2019 00:30 4,2 °C 74 % 1017,5 hPa 0,0 mm 19,8 km/h (3 Bft) W-SW 244 ° 0 min 0,000 mm 0,0 UV-I 0 W/m² -0,0 °C 0,1 °C 29,0 km/h (5 Bft)
11.03.2019 00:31 4,2 °C 74 % 1017,4 hPa 0,0 mm 14,1 km/h (3 Bft) W-SW 251 ° 0 min 0,000 mm 0,0 UV-I 0 W/m² -0,0 °C 0,9 °C 19,3 km/h (3 Bft)
11.03.2019 00:32 4,2 °C 74 % 1017,5 hPa 0,0 mm 17,6 km/h (3 Bft) W 267 ° 0 min 0,000 mm 0,0 UV-I 0 W/m² -0,0 °C 0,4 °C 24,1 km/h (4 Bft)
11.03.2019 00:33 4,1 °C 74 % 1017,5 hPa 0,0 mm 17,9 km/h (3 Bft) W 263 ° 0 min 0,000 mm 0,0 UV-I 0 W/m² -0,1 °C 0,2 °C 27,4 km/h (4 Bft)
11.03.2019 00:34 4,1 °C 74 % 1017,5 hPa 0,0 mm 15,0 km/h (3 Bft) W 275 ° 0 min 0,000 mm 0,0 UV-I 0 W/m² -0,1 °C 0,6 °C 27,4 km/h (4 Bft)
11.03.2019 00:35 4,1 °C 74 % 1017,6 hPa 0,0 mm 11,8 km/h (2 Bft) W-NW 292 ° 0 min 0,000 mm 0,0 UV-I 0 W/m² -0,1 °C 1,2 °C 16,1 km/h (3 Bft)
11.03.2019 00:36 4,1 °C 74 % 1017,6 hPa 0,0 mm 15,7 km/h (3 Bft) W 260 ° 0 min 0,000 mm 0,0 UV-I 0 W/m² -0,1 °C 0,5 °C 32,2 km/h (5 Bft)
11.03.2019 00:37 4,1 °C 74 % 1017,8 hPa 0,0 mm 20,4 km/h (4 Bft) NW 308 ° 0 min 0,000 mm 0,0 UV-I 0 W/m² -0,1 °C -0,1 °C 30,6 km/h (5 Bft)
11.03.2019 00:38 4,1 °C 75 % 1017,6 hPa 0,0 mm 15,5 km/h (3 Bft) W-NW 302 ° 0 min 0,000 mm 0,0 UV-I 0 W/m² 0,1 °C 0,6 °C 17,7 km/h (3 Bft)
11.03.2019 00:39 4,1 °C 75 % 1017,6 hPa 0,0 mm 11,2 km/h (2 Bft) W-SW 243 ° 0 min 0,000 mm 0,0 UV-I 0 W/m² 0,1 °C 1,3 °C 20,9 km/h (4 Bft)
11.03.2019 00:40 4,1 °C 75 % 1017,8 hPa 0,0 mm 20,7 km/h (4 Bft) W-NW 299 ° 0 min 0,000 mm 0,0 UV-I 0 W/m² 0,1 °C -0,2 °C 27,4 km/h (4 Bft)
11.03.2019 00:41 4,1 °C 76 % 1017,7 hPa 0,0 mm 13,7 km/h (3 Bft) W-NW 296 ° 0 min 0,000 mm 0,0 UV-I 0 W/m² 0,3 °C 0,9 °C 20,9 km/h (4 Bft)
11.03.2019 00:42 4,0 °C 75 % 1017,7 hPa 0,0 mm 17,4 km/h (3 Bft) W 281 ° 0 min 0,000 mm 0,0 UV-I 0 W/m² -0,0 °C 0,2 °C 27,4 km/h (4 Bft)
11.03.2019 00:43 3,9 °C 75 % 1017,7 hPa 0,0 mm 18,4 km/h (3 Bft) NW 306 ° 0 min 0,000 mm 0,0 UV-I 0 W/m² -0,1 °C -0,1 °C 27,4 km/h (4 Bft)
11.03.2019 00:44 3,9 °C 75 % 1017,7 hPa 0,0 mm 11,6 km/h (2 Bft) W-SW 257 ° 0 min 0,000 mm 0,0 UV-I 0 W/m² -0,1 °C 1,0 °C 20,9 km/h (4 Bft)
11.03.2019 00:45 3,8 °C 76 % 1017,8 hPa 0,0 mm 17,3 km/h (3 Bft) W-SW 257 ° 0 min 0,000 mm 0,0 UV-I 0 W/m² -0,0 °C -0,1 °C 24,1 km/h (4 Bft)
11.03.2019 00:46 3,8 °C 75 % 1017,8 hPa 0,0 mm 12,8 km/h (3 Bft) W 279 ° 0 min 0,000 mm 0,0 UV-I 0 W/m² -0,2 °C 0,7 °C 19,3 km/h (3 Bft)
11.03.2019 00:47 3,8 °C 76 % 1017,9 hPa 0,0 mm 18,6 km/h (3 Bft) W 270 ° 0 min 0,000 mm 0,0 UV-I 0 W/m² -0,0 °C -0,3 °C 29,0 km/h (5 Bft)
11.03.2019 00:48 3,8 °C 76 % 1017,9 hPa 0,0 mm 16,4 km/h (3 Bft) W 279 ° 0 min 0,000 mm 0,0 UV-I 0 W/m² -0,0 °C 0,1 °C 22,5 km/h (4 Bft)
11.03.2019 00:49 3,8 °C 76 % 1018,0 hPa 0,0 mm 15,4 km/h (3 Bft) W-NW 286 ° 0 min 0,000 mm 0,0 UV-I 0 W/m² -0,0 °C 0,2 °C 20,9 km/h (4 Bft)
11.03.2019 00:50 3,7 °C 76 % 1018,0 hPa 0,0 mm 11,3 km/h (2 Bft) W 262 ° 0 min 0,000 mm 0,0 UV-I 0 W/m² -0,1 °C 0,8 °C 17,7 km/h (3 Bft)
11.03.2019 00:51 3,7 °C 76 % 1018,0 hPa 0,0 mm 21,3 km/h (4 Bft) W-SW 253 ° 0 min 0,000 mm 0,0 UV-I 0 W/m² -0,1 °C -0,7 °C 29,0 km/h (5 Bft)
11.03.2019 00:52 3,7 °C 76 % 1017,9 hPa 0,0 mm 21,8 km/h (4 Bft) W 266 ° 0 min 0,000 mm 0,0 UV-I 0 W/m² -0,1 °C -0,8 °C 33,8 km/h (5 Bft)
11.03.2019 00:53 3,7 °C 76 % 1017,9 hPa 0,0 mm 16,9 km/h (3 Bft) W 270 ° 0 min 0,000 mm 0,0 UV-I 0 W/m² -0,1 °C -0,1 °C 24,1 km/h (4 Bft)
11.03.2019 00:54 3,6 °C 76 % 1018,0 hPa 0,0 mm 16,6 km/h (3 Bft) W-SW 256 ° 0 min 0,000 mm 0,0 UV-I 0 W/m² -0,2 °C -0,2 °C 27,4 km/h (4 Bft)
11.03.2019 00:55 3,6 °C 76 % 1017,9 hPa 0,0 mm 26,4 km/h (4 Bft) W-NW 284 ° 0 min 0,000 mm 0,0 UV-I 0 W/m² -0,2 °C -1,4 °C 38,6 km/h (5 Bft)
11.03.2019 00:56 3,6 °C 75 % 1017,9 hPa 0,0 mm 15,3 km/h (3 Bft) SW 233 ° 0 min 0,000 mm 0,0 UV-I 0 W/m² -0,4 °C -0,0 °C 24,1 km/h (4 Bft)
11.03.2019 00:57 3,6 °C 76 % 1017,9 hPa 0,0 mm 10,9 km/h (2 Bft) W 261 ° 0 min 0,000 mm 0,0 UV-I 0 W/m² -0,2 °C 0,8 °C 16,1 km/h (3 Bft)
11.03.2019 00:58 3,6 °C 76 % 1018,0 hPa 0,0 mm 16,4 km/h (3 Bft) W-SW 258 ° 0 min 0,000 mm 0,0 UV-I 0 W/m² -0,2 °C -0,2 °C 20,9 km/h (4 Bft)
11.03.2019 00:59 3,6 °C 77 % 1017,9 hPa 0,0 mm 13,5 km/h (3 Bft) W-SW 249 ° 0 min 0,000 mm 0,0 UV-I 0 W/m² -0,0 °C 0,3 °C 20,9 km/h (4 Bft)
11.03.2019 01:00 3,6 °C 76 % 1017,9 hPa 0,0 mm 11,8 km/h (2 Bft) W 265 ° 0 min 0,051 mm 0,0 UV-I 0 W/m² -0,2 °C 0,6 °C 20,9 km/h (4 Bft)
11.03.2019 01:01 3,5 °C 77 % 1018,0 hPa 0,0 mm 17,4 km/h (3 Bft) W-SW 243 ° 0 min 0,000 mm 0,0 UV-I 0 W/m² -0,1 °C -0,5 °C 29,0 km/h (5 Bft)
11.03.2019 01:02 3,5 °C 77 % 1018,1 hPa 0,0 mm 9,5 km/h (2 Bft) W 270 ° 0 min 0,000 mm 0,0 UV-I 0 W/m² -0,1 °C 1,0 °C 19,3 km/h (3 Bft)
11.03.2019 01:03 3,4 °C 77 % 1018,1 hPa 0,0 mm 16,0 km/h (3 Bft) W-SW 257 ° 0 min 0,000 mm 0,0 UV-I 0 W/m² -0,2 °C -0,4 °C 24,1 km/h (4 Bft)
11.03.2019 01:04 3,4 °C 76 % 1018,1 hPa 0,0 mm 14,1 km/h (3 Bft) W 263 ° 0 min 0,000 mm 0,0 UV-I 0 W/m² -0,4 °C -0,1 °C 25,7 km/h (4 Bft)
11.03.2019 01:05 3,4 °C 77 % 1018,2 hPa 0,0 mm 14,7 km/h (3 Bft) NW 313 ° 0 min 0,000 mm 0,0 UV-I 0 W/m² -0,2 °C -0,2 °C 20,9 km/h (4 Bft)
11.03.2019 01:06 3,4 °C 76 % 1018,2 hPa 0,0 mm 15,7 km/h (3 Bft) W 268 ° 0 min 0,000 mm 0,0 UV-I 0 W/m² -0,4 °C -0,3 °C 24,1 km/h (4 Bft)
11.03.2019 01:07 3,4 °C 76 % 1018,1 hPa 0,0 mm 16,2 km/h (3 Bft) W-NW 288 ° 0 min 0,000 mm 0,0 UV-I 0 W/m² -0,4 °C -0,4 °C 25,7 km/h (4 Bft)
11.03.2019 01:08 3,4 °C 76 % 1018,1 hPa 0,0 mm 16,1 km/h (3 Bft) W-SW 257 ° 0 min 0,000 mm 0,0 UV-I 0 W/m² -0,4 °C -0,4 °C 27,4 km/h (4 Bft)
11.03.2019 01:09 3,4 °C 76 % 1018,1 hPa 0,0 mm 14,3 km/h (3 Bft) W-NW 283 ° 0 min 0,000 mm 0,0 UV-I 0 W/m² -0,4 °C -0,1 °C 22,5 km/h (4 Bft)
11.03.2019 01:10 3,3 °C 77 % 1018,0 hPa 0,0 mm 9,6 km/h (2 Bft) W 260 ° 0 min 0,000 mm 0,0 UV-I 0 W/m² -0,3 °C 0,7 °C 14,5 km/h (3 Bft)
11.03.2019 01:11 3,3 °C 77 % 1018,0 hPa 0,0 mm 10,3 km/h (2 Bft) S-SW 200 ° 0 min 0,000 mm 0,0 UV-I 0 W/m² -0,3 °C 0,6 °C 16,1 km/h (3 Bft)
11.03.2019 01:12 3,3 °C 77 % 1018,2 hPa 0,0 mm 13,1 km/h (3 Bft) W 259 ° 0 min 0,000 mm 0,0 UV-I 0 W/m² -0,3 °C -0,0 °C 19,3 km/h (3 Bft)
11.03.2019 01:13 3,3 °C 77 % 1018,1 hPa 0,0 mm 15,8 km/h (3 Bft) W-SW 242 ° 0 min 0,000 mm 0,0 UV-I 0 W/m² -0,3 °C -0,5 °C 25,7 km/h (4 Bft)
11.03.2019 01:14 3,3 °C 77 % 1018,1 hPa 0,0 mm 15,2 km/h (3 Bft) S-SW 211 ° 0 min 0,000 mm 0,0 UV-I 0 W/m² -0,3 °C -0,4 °C 19,3 km/h (3 Bft)
11.03.2019 01:15 3,3 °C 77 % 1018,1 hPa 0,0 mm 12,6 km/h (3 Bft) NW 305 ° 0 min 0,000 mm 0,0 UV-I 0 W/m² -0,3 °C 0,1 °C 19,3 km/h (3 Bft)
11.03.2019 01:16 3,3 °C 77 % 1018,1 hPa 0,0 mm 11,9 km/h (2 Bft) W 265 ° 0 min 0,000 mm 0,0 UV-I 0 W/m² -0,3 °C 0,2 °C 16,1 km/h (3 Bft)
11.03.2019 01:17 3,3 °C 77 % 1018,2 hPa 0,0 mm 10,6 km/h (2 Bft) W 277 ° 0 min 0,000 mm 0,0 UV-I 0 W/m² -0,3 °C 0,5 °C 16,1 km/h (3 Bft)
11.03.2019 01:18 3,3 °C 77 % 1018,2 hPa 0,0 mm 15,3 km/h (3 Bft) W-SW 242 ° 0 min 0,000 mm 0,0 UV-I 0 W/m² -0,3 °C -0,4 °C 24,1 km/h (4 Bft)
11.03.2019 01:19 3,3 °C 77 % 1018,2 hPa 0,0 mm 12,9 km/h (3 Bft) S-SW 205 ° 0 min 0,000 mm 0,0 UV-I 0 W/m² -0,3 °C 0,0 °C 17,7 km/h (3 Bft)
11.03.2019 01:20 3,3 °C 77 % 1018,1 hPa 0,0 mm 11,8 km/h (2 Bft) W-SW 254 ° 0 min 0,000 mm 0,0 UV-I 0 W/m² -0,3 °C 0,2 °C 22,5 km/h (4 Bft)
11.03.2019 01:21 3,2 °C 77 % 1018,3 hPa 0,0 mm 12,1 km/h (2 Bft) W 271 ° 0 min 0,000 mm 0,0 UV-I 0 W/m² -0,4 °C 0,1 °C 19,3 km/h (3 Bft)
11.03.2019 01:22 3,2 °C 77 % 1018,3 hPa 0,0 mm 17,1 km/h (3 Bft) W-SW 248 ° 0 min 0,000 mm 0,0 UV-I 0 W/m² -0,4 °C -0,8 °C 27,4 km/h (4 Bft)
11.03.2019 01:23 3,2 °C 77 % 1018,2 hPa 0,0 mm 16,4 km/h (3 Bft) W-NW 290 ° 0 min 0,000 mm 0,0 UV-I 0 W/m² -0,4 °C -0,7 °C 22,5 km/h (4 Bft)
11.03.2019 01:24 3,2 °C 77 % 1018,3 hPa 0,0 mm 13,7 km/h (3 Bft) W-SW 256 ° 0 min 0,000 mm 0,0 UV-I 0 W/m² -0,4 °C -0,2 °C 22,5 km/h (4 Bft)
11.03.2019 01:25 3,2 °C 77 % 1018,3 hPa 0,0 mm 18,9 km/h (3 Bft) W-NW 283 ° 0 min 0,000 mm 0,0 UV-I 0 W/m² -0,4 °C -1,1 °C 24,1 km/h (4 Bft)
11.03.2019 01:26 3,2 °C 77 % 1018,3 hPa 0,0 mm 10,7 km/h (2 Bft) W-SW 239 ° 0 min 0,000 mm 0,0 UV-I 0 W/m² -0,4 °C 0,3 °C 19,3 km/h (3 Bft)
11.03.2019 01:27 3,2 °C 77 % 1018,4 hPa 0,0 mm 13,1 km/h (3 Bft) W 261 ° 0 min 0,000 mm 0,0 UV-I 0 W/m² -0,4 °C -0,1 °C 19,3 km/h (3 Bft)
11.03.2019 01:28 3,2 °C 77 % 1018,4 hPa 0,0 mm 12,2 km/h (2 Bft) W-NW 290 ° 0 min 0,000 mm 0,0 UV-I 0 W/m² -0,4 °C 0,0 °C 19,3 km/h (3 Bft)
11.03.2019 01:29 3,2 °C 77 % 1018,4 hPa 0,0 mm 13,9 km/h (3 Bft) W-SW 242 ° 0 min 0,000 mm 0,0 UV-I 0 W/m² -0,4 °C -0,3 °C 22,5 km/h (4 Bft)
11.03.2019 01:30 3,2 °C 77 % 1018,5 hPa 0,0 mm 14,3 km/h (3 Bft) W-SW 257 ° 0 min 0,000 mm 0,0 UV-I 0 W/m² -0,4 °C -0,4 °C 22,5 km/h (4 Bft)
11.03.2019 01:31 3,2 °C 77 % 1018,5 hPa 0,0 mm 12,3 km/h (3 Bft) W-SW 250 ° 0 min 0,000 mm 0,0 UV-I 0 W/m² -0,4 °C 0,0 °C 17,7 km/h (3 Bft)
11.03.2019 01:32 3,2 °C 77 % 1018,4 hPa 0,0 mm 12,4 km/h (3 Bft) SW 227 ° 0 min 0,000 mm 0,0 UV-I 0 W/m² -0,4 °C -0,0 °C 16,1 km/h (3 Bft)
11.03.2019 01:33 3,2 °C 77 % 1018,5 hPa 0,0 mm 11,9 km/h (2 Bft) W 263 ° 0 min 0,000 mm 0,0 UV-I 0 W/m² -0,4 °C 0,1 °C 16,1 km/h (3 Bft)
11.03.2019 01:34 3,1 °C 77 % 1018,6 hPa 0,0 mm 16,2 km/h (3 Bft) W-SW 253 ° 0 min 0,000 mm 0,0 UV-I 0 W/m² -0,5 °C -0,8 °C 19,3 km/h (3 Bft)
11.03.2019 01:35 3,1 °C 78 % 1018,6 hPa 0,0 mm 16,6 km/h (3 Bft) W 271 ° 0 min 0,000 mm 0,0 UV-I 0 W/m² -0,4 °C -0,8 °C 22,5 km/h (4 Bft)
11.03.2019 01:36 3,1 °C 78 % 1018,6 hPa 0,0 mm 9,4 km/h (2 Bft) W-SW 257 ° 0 min 0,000 mm 0,0 UV-I 0 W/m² -0,4 °C 0,5 °C 14,5 km/h (3 Bft)
11.03.2019 01:37 3,1 °C 78 % 1018,7 hPa 0,0 mm 7,9 km/h (2 Bft) W-SW 254 ° 0 min 0,000 mm 0,0 UV-I 0 W/m² -0,4 °C 0,9 °C 11,3 km/h (2 Bft)
11.03.2019 01:38 3,1 °C 78 % 1018,7 hPa 0,0 mm 9,2 km/h (2 Bft) W 281 ° 0 min 0,000 mm 0,0 UV-I 0 W/m² -0,4 °C 0,6 °C 17,7 km/h (3 Bft)
11.03.2019 01:39 3,1 °C 78 % 1018,7 hPa 0,0 mm 13,8 km/h (3 Bft) W-NW 283 ° 0 min 0,000 mm 0,0 UV-I 0 W/m² -0,4 °C -0,4 °C 16,1 km/h (3 Bft)
11.03.2019 01:40 3,0 °C 78 % 1018,7 hPa 0,0 mm 7,0 km/h (2 Bft) W 262 ° 0 min 0,000 mm 0,0 UV-I 0 W/m² -0,5 °C 1,1 °C 11,3 km/h (2 Bft)
11.03.2019 01:41 3,0 °C 78 % 1018,7 hPa 0,0 mm 10,1 km/h (2 Bft) W-NW 292 ° 0 min 0,000 mm 0,0 UV-I 0 W/m² -0,5 °C 0,2 °C 19,3 km/h (3 Bft)
11.03.2019 01:42 3,0 °C 78 % 1018,8 hPa 0,0 mm 10,5 km/h (2 Bft) W 264 ° 0 min 0,000 mm 0,0 UV-I 0 W/m² -0,5 °C 0,2 °C 17,7 km/h (3 Bft)
11.03.2019 01:43 2,9 °C 78 % 1018,8 hPa 0,0 mm 11,5 km/h (2 Bft) S 189 ° 0 min 0,000 mm 0,0 UV-I 0 W/m² -0,5 °C -0,2 °C 14,5 km/h (3 Bft)
11.03.2019 01:44 2,9 °C 78 % 1018,8 hPa 0,0 mm 10,1 km/h (2 Bft) W-SW 254 ° 0 min 0,000 mm 0,0 UV-I 0 W/m² -0,5 °C 0,1 °C 17,7 km/h (3 Bft)
11.03.2019 01:45 3,0 °C 78 % 1018,8 hPa 0,0 mm 9,9 km/h (2 Bft) SW 229 ° 0 min 0,000 mm 0,0 UV-I 0 W/m² -0,5 °C 0,3 °C 14,5 km/h (3 Bft)
11.03.2019 01:46 3,0 °C 78 % 1018,8 hPa 0,0 mm 11,9 km/h (2 Bft) W 267 ° 0 min 0,000 mm 0,0 UV-I 0 W/m² -0,5 °C -0,1 °C 20,9 km/h (4 Bft)
11.03.2019 01:47 3,0 °C 78 % 1018,9 hPa 0,0 mm 10,5 km/h (2 Bft) SW 228 ° 0 min 0,000 mm 0,0 UV-I 0 W/m² -0,5 °C 0,2 °C 19,3 km/h (3 Bft)
11.03.2019 01:48 3,0 °C 78 % 1018,8 hPa 0,0 mm 10,2 km/h (2 Bft) W 263 ° 0 min 0,000 mm 0,0 UV-I 0 W/m² -0,5 °C 0,2 °C 19,3 km/h (3 Bft)
11.03.2019 01:49 3,0 °C 78 % 1018,8 hPa 0,0 mm 16,0 km/h (3 Bft) W-SW 246 ° 0 min 0,000 mm 0,0 UV-I 0 W/m² -0,5 °C -0,9 °C 20,9 km/h (4 Bft)
11.03.2019 01:50 3,0 °C 78 % 1018,8 hPa 0,0 mm 13,9 km/h (3 Bft) W 264 ° 0 min 0,000 mm 0,0 UV-I 0 W/m² -0,5 °C -0,5 °C 17,7 km/h (3 Bft)
11.03.2019 01:51 3,0 °C 78 % 1018,9 hPa 0,0 mm 15,4 km/h (3 Bft) W-SW 250 ° 0 min 0,000 mm 0,0 UV-I 0 W/m² -0,5 °C -0,8 °C 19,3 km/h (3 Bft)
11.03.2019 01:52 3,0 °C 78 % 1018,8 hPa 0,0 mm 12,6 km/h (3 Bft) W 265 ° 0 min 0,000 mm 0,0 UV-I 0 W/m² -0,5 °C -0,3 °C 17,7 km/h (3 Bft)
11.03.2019 01:53 2,9 °C 78 % 1018,8 hPa 0,0 mm 16,8 km/h (3 Bft) W-SW 246 ° 0 min 0,000 mm 0,0 UV-I 0 W/m² -0,5 °C -1,1 °C 20,9 km/h (4 Bft)
11.03.2019 01:54 2,9 °C 78 % 1018,9 hPa 0,0 mm 6,9 km/h (2 Bft) W-SW 255 ° 0 min 0,000 mm 0,0 UV-I 0 W/m² -0,5 °C 1,0 °C 19,3 km/h (3 Bft)
11.03.2019 01:55 2,9 °C 78 % 1018,9 hPa 0,0 mm 13,3 km/h (3 Bft) W-SW 245 ° 0 min 0,000 mm 0,0 UV-I 0 W/m² -0,5 °C -0,5 °C 19,3 km/h (3 Bft)
11.03.2019 01:56 2,9 °C 78 % 1018,9 hPa 0,0 mm 13,7 km/h (3 Bft) W-SW 252 ° 0 min 0,000 mm 0,0 UV-I 0 W/m² -0,5 °C -0,6 °C 22,5 km/h (4 Bft)
11.03.2019 01:57 2,9 °C 78 % 1018,9 hPa 0,0 mm 13,1 km/h (3 Bft) W 265 ° 0 min 0,000 mm 0,0 UV-I 0 W/m² -0,5 °C -0,5 °C 20,9 km/h (4 Bft)
11.03.2019 01:58 2,9 °C 78 % 1018,8 hPa 0,0 mm 15,5 km/h (3 Bft) W 260 ° 0 min 0,000 mm 0,0 UV-I 0 W/m² -0,5 °C -0,9 °C 20,9 km/h (4 Bft)
11.03.2019 01:59 2,9 °C 78 % 1018,7 hPa 0,0 mm 14,4 km/h (3 Bft) SW 222 ° 0 min 0,000 mm 0,0 UV-I 0 W/m² -0,5 °C -0,7 °C 24,1 km/h (4 Bft)
11.03.2019 02:00 2,9 °C 78 % 1018,7 hPa 0,0 mm 16,3 km/h (3 Bft) W 263 ° 0 min 0,000 mm 0,0 UV-I 0 W/m² -0,5 °C -1,1 °C 22,5 km/h (4 Bft)
11.03.2019 02:01 2,9 °C 78 % 1018,7 hPa 0,0 mm 13,5 km/h (3 Bft) W 267 ° 0 min 0,025 mm 0,0 UV-I 0 W/m² -0,5 °C -0,6 °C 19,3 km/h (3 Bft)
11.03.2019 02:02 2,9 °C 78 % 1018,8 hPa 0,0 mm 15,1 km/h (3 Bft) W-SW 254 ° 0 min 0,000 mm 0,0 UV-I 0 W/m² -0,5 °C -0,9 °C 17,7 km/h (3 Bft)
11.03.2019 02:03 2,9 °C 78 % 1018,7 hPa 0,0 mm 13,3 km/h (3 Bft) W-NW 288 ° 0 min 0,000 mm 0,0 UV-I 0 W/m² -0,5 °C -0,5 °C 17,7 km/h (3 Bft)
11.03.2019 02:04 2,9 °C 78 % 1018,7 hPa 0,0 mm 12,2 km/h (2 Bft) W-NW 284 ° 0 min 0,000 mm 0,0 UV-I 0 W/m² -0,5 °C -0,3 °C 19,3 km/h (3 Bft)
11.03.2019 02:05 2,9 °C 78 % 1018,7 hPa 0,0 mm 12,0 km/h (2 Bft) W 281 ° 0 min 0,000 mm 0,0 UV-I 0 W/m² -0,5 °C -0,3 °C 17,7 km/h (3 Bft)
11.03.2019 02:06 2,9 °C 78 % 1018,6 hPa 0,0 mm 13,2 km/h (3 Bft) W 271 ° 0 min 0,000 mm 0,0 UV-I 0 W/m² -0,5 °C -0,5 °C 19,3 km/h (3 Bft)
11.03.2019 02:07 2,9 °C 78 % 1018,6 hPa 0,0 mm 10,6 km/h (2 Bft) W-NW 303 ° 0 min 0,000 mm 0,0 UV-I 0 W/m² -0,5 °C 0,0 °C 16,1 km/h (3 Bft)
11.03.2019 02:08 2,9 °C 78 % 1018,6 hPa 0,0 mm 9,5 km/h (2 Bft) W-SW 255 ° 0 min 0,000 mm 0,0 UV-I 0 W/m² -0,5 °C 0,3 °C 14,5 km/h (3 Bft)
11.03.2019 02:09 3,0 °C 78 % 1018,7 hPa 0,0 mm 9,4 km/h (2 Bft) W 265 ° 0 min 0,000 mm 0,0 UV-I 0 W/m² -0,5 °C 0,4 °C 14,5 km/h (3 Bft)
11.03.2019 02:10 3,0 °C 78 % 1018,6 hPa 0,0 mm 12,2 km/h (2 Bft) W-NW 287 ° 0 min 0,000 mm 0,0 UV-I 0 W/m² -0,5 °C -0,2 °C 17,7 km/h (3 Bft)
11.03.2019 02:11 2,9 °C 78 % 1018,7 hPa 0,0 mm 12,7 km/h (3 Bft) W 259 ° 0 min 0,000 mm 0,0 UV-I 0 W/m² -0,5 °C -0,4 °C 19,3 km/h (3 Bft)
11.03.2019 02:12 3,0 °C 78 % 1018,7 hPa 0,0 mm 13,2 km/h (3 Bft) NW 308 ° 0 min 0,000 mm 0,0 UV-I 0 W/m² -0,5 °C -0,4 °C 17,7 km/h (3 Bft)
11.03.2019 02:13 3,0 °C 78 % 1018,7 hPa 0,0 mm 10,6 km/h (2 Bft) W 261 ° 0 min 0,000 mm 0,0 UV-I 0 W/m² -0,5 °C 0,1 °C 16,1 km/h (3 Bft)
11.03.2019 02:14 3,0 °C 78 % 1018,7 hPa 0,0 mm 14,0 km/h (3 Bft) W-SW 247 ° 0 min 0,000 mm 0,0 UV-I 0 W/m² -0,5 °C -0,5 °C 20,9 km/h (4 Bft)
11.03.2019 02:15 3,1 °C 78 % 1018,7 hPa 0,0 mm 12,9 km/h (3 Bft) W 275 ° 0 min 0,000 mm 0,0 UV-I 0 W/m² -0,4 °C -0,2 °C 22,5 km/h (4 Bft)
11.03.2019 02:16 3,1 °C 78 % 1018,7 hPa 0,0 mm 16,4 km/h (3 Bft) W-SW 256 ° 0 min 0,000 mm 0,0 UV-I 0 W/m² -0,4 °C -0,8 °C 24,1 km/h (4 Bft)
11.03.2019 02:17 3,1 °C 78 % 1018,7 hPa 0,0 mm 10,8 km/h (2 Bft) W-NW 288 ° 0 min 0,000 mm 0,0 UV-I 0 W/m² -0,4 °C 0,2 °C 16,1 km/h (3 Bft)
11.03.2019 02:18 3,1 °C 78 % 1018,6 hPa 0,0 mm 9,5 km/h (2 Bft) W 273 ° 0 min 0,000 mm 0,0 UV-I 0 W/m² -0,4 °C 0,5 °C 16,1 km/h (3 Bft)
11.03.2019 02:19 3,1 °C 78 % 1018,6 hPa 0,0 mm 13,6 km/h (3 Bft) W 267 ° 0 min 0,000 mm 0,0 UV-I 0 W/m² -0,4 °C -0,4 °C 22,5 km/h (4 Bft)
11.03.2019 02:20 3,1 °C 78 % 1018,6 hPa 0,0 mm 10,7 km/h (2 Bft) W-SW 240 ° 0 min 0,000 mm 0,0 UV-I 0 W/m² -0,4 °C 0,2 °C 17,7 km/h (3 Bft)
11.03.2019 02:21 3,1 °C 78 % 1018,7 hPa 0,0 mm 10,9 km/h (2 Bft) W 263 ° 0 min 0,000 mm 0,0 UV-I 0 W/m² -0,4 °C 0,2 °C 14,5 km/h (3 Bft)
11.03.2019 02:22 3,2 °C 78 % 1018,7 hPa 0,0 mm 9,0 km/h (2 Bft) W-SW 256 ° 0 min 0,000 mm 0,0 UV-I 0 W/m² -0,3 °C 0,8 °C 12,9 km/h (3 Bft)
11.03.2019 02:23 3,2 °C 78 % 1018,7 hPa 0,0 mm 12,8 km/h (3 Bft) W 274 ° 0 min 0,000 mm 0,0 UV-I 0 W/m² -0,3 °C -0,1 °C 19,3 km/h (3 Bft)
11.03.2019 02:24 3,1 °C 78 % 1018,7 hPa 0,0 mm 7,7 km/h (2 Bft) W-SW 252 ° 0 min 0,000 mm 0,0 UV-I 0 W/m² -0,4 °C 1,0 °C 11,3 km/h (2 Bft)
11.03.2019 02:25 3,2 °C 78 % 1018,7 hPa 0,0 mm 8,0 km/h (2 Bft) W-NW 286 ° 0 min 0,000 mm 0,0 UV-I 0 W/m² -0,3 °C 1,0 °C 12,9 km/h (3 Bft)
11.03.2019 02:26 3,1 °C 79 % 1018,7 hPa 0,0 mm 8,5 km/h (2 Bft) W 271 ° 0 min 0,000 mm 0,0 UV-I 0 W/m² -0,2 °C 0,8 °C 14,5 km/h (3 Bft)
11.03.2019 02:27 3,1 °C 79 % 1018,7 hPa 0,0 mm 7,6 km/h (2 Bft) W-SW 254 ° 0 min 0,000 mm 0,0 UV-I 0 W/m² -0,2 °C 1,0 °C 12,9 km/h (3 Bft)
11.03.2019 02:28 3,1 °C 79 % 1018,7 hPa 0,0 mm 11,3 km/h (2 Bft) W-SW 255 ° 0 min 0,000 mm 0,0 UV-I 0 W/m² -0,2 °C 0,1 °C 20,9 km/h (4 Bft)
11.03.2019 02:29 3,1 °C 78 % 1018,7 hPa 0,0 mm 15,0 km/h (3 Bft) W-NW 285 ° 0 min 0,000 mm 0,0 UV-I 0 W/m² -0,4 °C -0,6 °C 20,9 km/h (4 Bft)
11.03.2019 02:30 3,1 °C 78 % 1018,7 hPa 0,0 mm 12,0 km/h (2 Bft) W-SW 257 ° 0 min 0,000 mm 0,0 UV-I 0 W/m² -0,4 °C -0,0 °C 16,1 km/h (3 Bft)
11.03.2019 02:31 3,1 °C 78 % 1018,7 hPa 0,0 mm 11,7 km/h (2 Bft) W-NW 287 ° 0 min 0,000 mm 0,0 UV-I 0 W/m² -0,4 °C 0,0 °C 17,7 km/h (3 Bft)
11.03.2019 02:32 3,1 °C 78 % 1018,7 hPa 0,0 mm 12,1 km/h (2 Bft) W 271 ° 0 min 0,000 mm 0,0 UV-I 0 W/m² -0,4 °C -0,1 °C 20,9 km/h (4 Bft)
11.03.2019 02:33 3,1 °C 78 % 1018,7 hPa 0,0 mm 7,8 km/h (2 Bft) W 261 ° 0 min 0,000 mm 0,0 UV-I 0 W/m² -0,4 °C 1,0 °C 12,9 km/h (3 Bft)
11.03.2019 02:34 3,1 °C 78 % 1018,6 hPa 0,0 mm 15,2 km/h (3 Bft) W 269 ° 0 min 0,000 mm 0,0 UV-I 0 W/m² -0,4 °C -0,6 °C 22,5 km/h (4 Bft)
11.03.2019 02:35 3,0 °C 78 % 1018,6 hPa 0,0 mm 17,8 km/h (3 Bft) W-SW 253 ° 0 min 0,000 mm 0,0 UV-I 0 W/m² -0,5 °C -1,2 °C 25,7 km/h (4 Bft)
11.03.2019 02:36 3,0 °C 78 % 1018,6 hPa 0,0 mm 17,8 km/h (3 Bft) SW 234 ° 0 min 0,000 mm 0,0 UV-I 0 W/m² -0,5 °C -1,2 °C 25,7 km/h (4 Bft)
11.03.2019 02:37 3,1 °C 77 % 1018,5 hPa 0,0 mm 15,8 km/h (3 Bft) W 274 ° 0 min 0,000 mm 0,0 UV-I 0 W/m² -0,5 °C -0,7 °C 19,3 km/h (3 Bft)
11.03.2019 02:38 3,1 °C 77 % 1018,6 hPa 0,0 mm 10,9 km/h (2 Bft) W 269 ° 0 min 0,000 mm 0,0 UV-I 0 W/m² -0,5 °C 0,2 °C 17,7 km/h (3 Bft)
11.03.2019 02:39 3,1 °C 77 % 1018,6 hPa 0,0 mm 13,1 km/h (3 Bft) W-SW 256 ° 0 min 0,000 mm 0,0 UV-I 0 W/m² -0,5 °C -0,3 °C 19,3 km/h (3 Bft)
11.03.2019 02:40 3,1 °C 77 % 1018,6 hPa 0,0 mm 11,6 km/h (2 Bft) W 262 ° 0 min 0,000 mm 0,0 UV-I 0 W/m² -0,5 °C 0,0 °C 16,1 km/h (3 Bft)
11.03.2019 02:41 3,0 °C 77 % 1018,6 hPa 0,0 mm 14,0 km/h (3 Bft) W-NW 290 ° 0 min 0,000 mm 0,0 UV-I 0 W/m² -0,6 °C -0,5 °C 22,5 km/h (4 Bft)
11.03.2019 02:42 3,0 °C 77 % 1018,5 hPa 0,0 mm 16,6 km/h (3 Bft) W-SW 254 ° 0 min 0,000 mm 0,0 UV-I 0 W/m² -0,6 °C -1,0 °C 24,1 km/h (4 Bft)
11.03.2019 02:43 3,0 °C 77 % 1018,5 hPa 0,0 mm 15,4 km/h (3 Bft) W 269 ° 0 min 0,000 mm 0,0 UV-I 0 W/m² -0,6 °C -0,8 °C 25,7 km/h (4 Bft)
11.03.2019 02:44 3,0 °C 76 % 1018,5 hPa 0,0 mm 9,1 km/h (2 Bft) W 263 ° 0 min 0,000 mm 0,0 UV-I 0 W/m² -0,8 °C 0,5 °C 14,5 km/h (3 Bft)
11.03.2019 02:45 3,0 °C 76 % 1018,5 hPa 0,0 mm 11,5 km/h (2 Bft) W 273 ° 0 min 0,000 mm 0,0 UV-I 0 W/m² -0,8 °C -0,1 °C 17,7 km/h (3 Bft)
11.03.2019 02:46 3,0 °C 76 % 1018,5 hPa 0,2 mm 20,2 km/h (4 Bft) W 268 ° 0 min 0,000 mm 0,0 UV-I 0 W/m² -0,8 °C -1,5 °C 29,0 km/h (5 Bft)
11.03.2019 02:47 3,0 °C 76 % 1018,5 hPa 0,0 mm 13,3 km/h (3 Bft) W-SW 246 ° 0 min 0,000 mm 0,0 UV-I 0 W/m² -0,8 °C -0,4 °C 16,1 km/h (3 Bft)
11.03.2019 02:48 3,0 °C 76 % 1018,5 hPa 0,0 mm 12,3 km/h (3 Bft) W 281 ° 0 min 0,000 mm 0,0 UV-I 0 W/m² -0,8 °C -0,2 °C 16,1 km/h (3 Bft)
11.03.2019 02:49 3,0 °C 75 % 1018,4 hPa 0,0 mm 12,1 km/h (2 Bft) W-SW 257 ° 0 min 0,000 mm 0,0 UV-I 0 W/m² -1,0 °C -0,2 °C 17,7 km/h (3 Bft)
11.03.2019 02:50 3,0 °C 76 % 1018,4 hPa 0,0 mm 13,5 km/h (3 Bft) W 263 ° 0 min 0,000 mm 0,0 UV-I 0 W/m² -0,8 °C -0,5 °C 17,7 km/h (3 Bft)
11.03.2019 02:51 2,9 °C 76 % 1018,4 hPa 0,0 mm 16,1 km/h (3 Bft) W 264 ° 0 min 0,000 mm 0,0 UV-I 0 W/m² -0,9 °C -1,0 °C 20,9 km/h (4 Bft)
11.03.2019 02:52 2,9 °C 76 % 1018,4 hPa 0,0 mm 17,1 km/h (3 Bft) W-NW 284 ° 0 min 0,000 mm 0,0 UV-I 0 W/m² -0,9 °C -1,2 °C 22,5 km/h (4 Bft)
11.03.2019 02:53 2,9 °C 76 % 1018,4 hPa 0,0 mm 10,5 km/h (2 Bft) W-NW 287 ° 0 min 0,000 mm 0,0 UV-I 0 W/m² -0,9 °C 0,0 °C 16,1 km/h (3 Bft)
11.03.2019 02:54 2,9 °C 76 % 1018,4 hPa 0,0 mm 13,5 km/h (3 Bft) W 275 ° 0 min 0,000 mm 0,0 UV-I 0 W/m² -0,9 °C -0,6 °C 17,7 km/h (3 Bft)
11.03.2019 02:55 2,9 °C 76 % 1018,4 hPa 0,0 mm 9,6 km/h (2 Bft) W 265 ° 0 min 0,000 mm 0,0 UV-I 0 W/m² -0,9 °C 0,2 °C 20,9 km/h (4 Bft)
11.03.2019 02:56 2,9 °C 76 % 1018,4 hPa 0,0 mm 11,8 km/h (2 Bft) S-SW 203 ° 0 min 0,000 mm 0,0 UV-I 0 W/m² -0,9 °C -0,2 °C 17,7 km/h (3 Bft)
11.03.2019 02:57 2,8 °C 76 % 1018,4 hPa 0,0 mm 15,1 km/h (3 Bft) W 277 ° 0 min 0,000 mm 0,0 UV-I 0 W/m² -1,0 °C -1,0 °C 17,7 km/h (3 Bft)
11.03.2019 02:58 2,8 °C 76 % 1018,3 hPa 0,0 mm 15,7 km/h (3 Bft) W 275 ° 0 min 0,000 mm 0,0 UV-I 0 W/m² -1,0 °C -1,1 °C 20,9 km/h (4 Bft)
11.03.2019 02:59 2,8 °C 76 % 1018,3 hPa 0,0 mm 18,4 km/h (3 Bft) W-SW 258 ° 0 min 0,000 mm 0,0 UV-I 0 W/m² -1,0 °C -1,5 °C 22,5 km/h (4 Bft)
11.03.2019 03:00 2,9 °C 76 % 1018,3 hPa 0,0 mm 18,5 km/h (3 Bft) W 270 ° 0 min 0,000 mm 0,0 UV-I 0 W/m² -0,9 °C -1,4 °C 22,5 km/h (4 Bft)
11.03.2019 03:01 2,9 °C 76 % 1018,3 hPa 0,0 mm 13,9 km/h (3 Bft) W-SW 258 ° 0 min 0,026 mm 0,0 UV-I 0 W/m² -0,9 °C -0,6 °C 19,3 km/h (3 Bft)
11.03.2019 03:02 2,9 °C 76 % 1018,3 hPa 0,0 mm 13,3 km/h (3 Bft) W 259 ° 0 min 0,000 mm 0,0 UV-I 0 W/m² -0,9 °C -0,5 °C 17,7 km/h (3 Bft)
11.03.2019 03:03 2,8 °C 76 % 1018,1 hPa 0,0 mm 13,2 km/h (3 Bft) W 274 ° 0 min 0,000 mm 0,0 UV-I 0 W/m² -1,0 °C -0,6 °C 17,7 km/h (3 Bft)
11.03.2019 03:04 2,8 °C 76 % 1018,1 hPa 0,0 mm 13,2 km/h (3 Bft) W 277 ° 0 min 0,000 mm 0,0 UV-I 0 W/m² -1,0 °C -0,6 °C 20,9 km/h (4 Bft)
11.03.2019 03:05 2,8 °C 76 % 1018,1 hPa 0,0 mm 18,6 km/h (3 Bft) W-SW 249 ° 0 min 0,000 mm 0,0 UV-I 0 W/m² -1,0 °C -1,5 °C 24,1 km/h (4 Bft)
11.03.2019 03:06 2,8 °C 76 % 1018,1 hPa 0,0 mm 13,2 km/h (3 Bft) W 266 ° 0 min 0,000 mm 0,0 UV-I 0 W/m² -1,0 °C -0,6 °C 19,3 km/h (3 Bft)
11.03.2019 03:07 2,8 °C 76 % 1018,0 hPa 0,0 mm 11,8 km/h (2 Bft) W-SW 240 ° 0 min 0,000 mm 0,0 UV-I 0 W/m² -1,0 °C -0,4 °C 19,3 km/h (3 Bft)
11.03.2019 03:08 2,8 °C 76 % 1018,0 hPa 0,0 mm 14,1 km/h (3 Bft) W-NW 286 ° 0 min 0,000 mm 0,0 UV-I 0 W/m² -1,0 °C -0,8 °C 19,3 km/h (3 Bft)
11.03.2019 03:09 2,8 °C 76 % 1018,0 hPa 0,0 mm 13,5 km/h (3 Bft) W-SW 256 ° 0 min 0,000 mm 0,0 UV-I 0 W/m² -1,0 °C -0,7 °C 20,9 km/h (4 Bft)
11.03.2019 03:10 2,8 °C 76 % 1017,9 hPa 0,0 mm 19,3 km/h (3 Bft) W-SW 249 ° 0 min 0,000 mm 0,0 UV-I 0 W/m² -1,0 °C -1,6 °C 30,6 km/h (5 Bft)
11.03.2019 03:11 2,7 °C 76 % 1018,0 hPa 0,0 mm 20,3 km/h (4 Bft) W-NW 302 ° 0 min 0,000 mm 0,0 UV-I 0 W/m² -1,1 °C -1,9 °C 27,4 km/h (4 Bft)
11.03.2019 03:12 2,8 °C 75 % 1018,0 hPa 0,0 mm 16,8 km/h (3 Bft) W 269 ° 0 min 0,000 mm 0,0 UV-I 0 W/m² -1,2 °C -1,3 °C 25,7 km/h (4 Bft)
11.03.2019 03:13 2,8 °C 76 % 1018,1 hPa 0,0 mm 13,3 km/h (3 Bft) W 265 ° 0 min 0,000 mm 0,0 UV-I 0 W/m² -1,0 °C -0,7 °C 22,5 km/h (4 Bft)
11.03.2019 03:14 2,7 °C 76 % 1017,9 hPa 0,0 mm 10,5 km/h (2 Bft) W-SW 258 ° 0 min 0,000 mm 0,0 UV-I 0 W/m² -1,1 °C -0,2 °C 19,3 km/h (3 Bft)
11.03.2019 03:15 2,7 °C 75 % 1018,0 hPa 0,0 mm 14,0 km/h (3 Bft) W-SW 252 ° 0 min 0,000 mm 0,0 UV-I 0 W/m² -1,3 °C -0,9 °C 17,7 km/h (3 Bft)
11.03.2019 03:16 2,7 °C 75 % 1018,1 hPa 0,0 mm 13,2 km/h (3 Bft) W 259 ° 0 min 0,000 mm 0,0 UV-I 0 W/m² -1,3 °C -0,8 °C 20,9 km/h (4 Bft)
11.03.2019 03:17 2,7 °C 75 % 1018,0 hPa 0,0 mm 14,4 km/h (3 Bft) W-NW 285 ° 0 min 0,000 mm 0,0 UV-I 0 W/m² -1,3 °C -1,0 °C 19,3 km/h (3 Bft)
11.03.2019 03:18 2,7 °C 75 % 1017,9 hPa 0,0 mm 11,3 km/h (2 Bft) W 268 ° 0 min 0,000 mm 0,0 UV-I 0 W/m² -1,3 °C -0,4 °C 17,7 km/h (3 Bft)
11.03.2019 03:19 2,7 °C 75 % 1017,9 hPa 0,0 mm 12,3 km/h (3 Bft) W 279 ° 0 min 0,000 mm 0,0 UV-I 0 W/m² -1,3 °C -0,6 °C 20,9 km/h (4 Bft)
11.03.2019 03:20 2,7 °C 74 % 1017,9 hPa 0,0 mm 22,9 km/h (4 Bft) W-SW 248 ° 0 min 0,000 mm 0,0 UV-I 0 W/m² -1,5 °C -2,2 °C 30,6 km/h (5 Bft)
11.03.2019 03:21 2,7 °C 74 % 1017,9 hPa 0,0 mm 19,2 km/h (3 Bft) W 264 ° 0 min 0,000 mm 0,0 UV-I 0 W/m² -1,5 °C -1,7 °C 24,1 km/h (4 Bft)
11.03.2019 03:22 2,7 °C 74 % 1017,9 hPa 0,0 mm 17,0 km/h (3 Bft) W 265 ° 0 min 0,000 mm 0,0 UV-I 0 W/m² -1,5 °C -1,4 °C 22,5 km/h (4 Bft)
11.03.2019 03:23 2,7 °C 74 % 1017,9 hPa 0,0 mm 17,8 km/h (3 Bft) W 271 ° 0 min 0,000 mm 0,0 UV-I 0 W/m² -1,5 °C -1,5 °C 30,6 km/h (5 Bft)
11.03.2019 03:24 2,7 °C 73 % 1017,9 hPa 0,0 mm 15,0 km/h (3 Bft) W-NW 285 ° 0 min 0,000 mm 0,0 UV-I 0 W/m² -1,6 °C -1,1 °C 22,5 km/h (4 Bft)
11.03.2019 03:25 2,7 °C 73 % 1017,9 hPa 0,0 mm 16,1 km/h (3 Bft) W-NW 289 ° 0 min 0,000 mm 0,0 UV-I 0 W/m² -1,6 °C -1,3 °C 22,5 km/h (4 Bft)
11.03.2019 03:26 2,7 °C 72 % 1017,8 hPa 0,0 mm 18,5 km/h (3 Bft) W 268 ° 0 min 0,000 mm 0,0 UV-I 0 W/m² -1,8 °C -1,6 °C 22,5 km/h (4 Bft)
11.03.2019 03:27 2,7 °C 72 % 1017,8 hPa 0,0 mm 17,8 km/h (3 Bft) W 276 ° 0 min 0,000 mm 0,0 UV-I 0 W/m² -1,8 °C -1,5 °C 32,2 km/h (5 Bft)
11.03.2019 03:28 2,7 °C 72 % 1017,8 hPa 0,0 mm 13,9 km/h (3 Bft) W-SW 242 ° 0 min 0,000 mm 0,0 UV-I 0 W/m² -1,8 °C -0,9 °C 20,9 km/h (4 Bft)
11.03.2019 03:29 2,8 °C 72 % 1017,8 hPa 0,0 mm 19,6 km/h (3 Bft) W 269 ° 0 min 0,000 mm 0,0 UV-I 0 W/m² -1,7 °C -1,7 °C 25,7 km/h (4 Bft)
11.03.2019 03:30 2,8 °C 71 % 1017,7 hPa 0,0 mm 16,0 km/h (3 Bft) W 268 ° 0 min 0,000 mm 0,0 UV-I 0 W/m² -1,9 °C -1,1 °C 22,5 km/h (4 Bft)
11.03.2019 03:31 2,7 °C 71 % 1017,7 hPa 0,0 mm 17,5 km/h (3 Bft) W-SW 258 ° 0 min 0,000 mm 0,0 UV-I 0 W/m² -2,0 °C -1,5 °C 22,5 km/h (4 Bft)
11.03.2019 03:32 2,8 °C 71 % 1017,7 hPa 0,0 mm 16,5 km/h (3 Bft) W 277 ° 0 min 0,000 mm 0,0 UV-I 0 W/m² -1,9 °C -1,2 °C 29,0 km/h (5 Bft)
11.03.2019 03:33 2,8 °C 70 % 1017,7 hPa 0,0 mm 16,0 km/h (3 Bft) W 262 ° 0 min 0,000 mm 0,0 UV-I 0 W/m² -2,1 °C -1,1 °C 24,1 km/h (4 Bft)
11.03.2019 03:34 2,8 °C 70 % 1017,7 hPa 0,0 mm 10,4 km/h (2 Bft) W 281 ° 0 min 0,000 mm 0,0 UV-I 0 W/m² -2,1 °C -0,1 °C 14,5 km/h (3 Bft)
11.03.2019 03:35 2,7 °C 70 % 1017,6 hPa 0,0 mm 18,2 km/h (3 Bft) W-NW 294 ° 0 min 0,000 mm 0,0 UV-I 0 W/m² -2,2 °C -1,6 °C 27,4 km/h (4 Bft)
11.03.2019 03:36 2,7 °C 70 % 1017,6 hPa 0,0 mm 19,7 km/h (3 Bft) W-SW 254 ° 0 min 0,000 mm 0,0 UV-I 0 W/m² -2,2 °C -1,8 °C 29,0 km/h (5 Bft)
11.03.2019 03:37 2,7 °C 70 % 1017,5 hPa 0,0 mm 12,5 km/h (3 Bft) W-NW 291 ° 0 min 0,000 mm 0,0 UV-I 0 W/m² -2,2 °C -0,6 °C 17,7 km/h (3 Bft)
11.03.2019 03:38 2,7 °C 70 % 1017,5 hPa 0,0 mm 16,6 km/h (3 Bft) W 259 ° 0 min 0,000 mm 0,0 UV-I 0 W/m² -2,2 °C -1,3 °C 24,1 km/h (4 Bft)
11.03.2019 03:39 2,7 °C 69 % 1017,5 hPa 0,0 mm 21,8 km/h (4 Bft) W-NW 286 ° 0 min 0,000 mm 0,0 UV-I 0 W/m² -2,4 °C -2,1 °C 33,8 km/h (5 Bft)
11.03.2019 03:40 2,7 °C 69 % 1017,5 hPa 0,0 mm 20,7 km/h (4 Bft) W-SW 252 ° 0 min 0,000 mm 0,0 UV-I 0 W/m² -2,4 °C -1,9 °C 29,0 km/h (5 Bft)
11.03.2019 03:41 2,7 °C 69 % 1017,5 hPa 0,0 mm 17,0 km/h (3 Bft) W-SW 257 ° 0 min 0,000 mm 0,0 UV-I 0 W/m² -2,4 °C -1,4 °C 24,1 km/h (4 Bft)
11.03.2019 03:42 2,7 °C 69 % 1017,4 hPa 0,0 mm 6,5 km/h (2 Bft) W-SW 239 ° 0 min 0,000 mm 0,0 UV-I 0 W/m² -2,4 °C 0,9 °C 14,5 km/h (3 Bft)
11.03.2019 03:43 2,7 °C 70 % 1017,5 hPa 0,0 mm 11,3 km/h (2 Bft) W-SW 250 ° 0 min 0,000 mm 0,0 UV-I 0 W/m² -2,2 °C -0,4 °C 16,1 km/h (3 Bft)
11.03.2019 03:44 2,7 °C 69 % 1017,5 hPa 0,0 mm 14,9 km/h (3 Bft) W-SW 258 ° 0 min 0,000 mm 0,0 UV-I 0 W/m² -2,4 °C -1,1 °C 25,7 km/h (4 Bft)
11.03.2019 03:45 2,6 °C 69 % 1017,5 hPa 0,0 mm 16,0 km/h (3 Bft) NW 317 ° 0 min 0,000 mm 0,0 UV-I 0 W/m² -2,5 °C -1,4 °C 24,1 km/h (4 Bft)
11.03.2019 03:46 2,7 °C 69 % 1017,4 hPa 0,0 mm 15,2 km/h (3 Bft) W 262 ° 0 min 0,000 mm 0,0 UV-I 0 W/m² -2,4 °C -1,1 °C 25,7 km/h (4 Bft)
11.03.2019 03:47 2,6 °C 70 % 1017,4 hPa 0,0 mm 13,5 km/h (3 Bft) W-SW 246 ° 0 min 0,000 mm 0,0 UV-I 0 W/m² -2,3 °C -0,9 °C 20,9 km/h (4 Bft)
11.03.2019 03:48 2,6 °C 70 % 1017,4 hPa 0,0 mm 18,4 km/h (3 Bft) W 262 ° 0 min 0,000 mm 0,0 UV-I 0 W/m² -2,3 °C -1,7 °C 22,5 km/h (4 Bft)
11.03.2019 03:49 2,6 °C 70 % 1017,4 hPa 0,0 mm 12,4 km/h (3 Bft) W 261 ° 0 min 0,000 mm 0,0 UV-I 0 W/m² -2,3 °C -0,7 °C 19,3 km/h (3 Bft)
11.03.2019 03:50 2,5 °C 70 % 1017,4 hPa 0,0 mm 19,2 km/h (3 Bft) NW 307 ° 0 min 0,000 mm 0,0 UV-I 0 W/m² -2,4 °C -2,0 °C 30,6 km/h (5 Bft)
11.03.2019 03:51 2,6 °C 70 % 1017,3 hPa 0,0 mm 19,1 km/h (3 Bft) W 259 ° 0 min 0,000 mm 0,0 UV-I 0 W/m² -2,3 °C -1,8 °C 27,4 km/h (4 Bft)
11.03.2019 03:52 2,6 °C 70 % 1017,4 hPa 0,0 mm 12,8 km/h (3 Bft) W 267 ° 0 min 0,000 mm 0,0 UV-I 0 W/m² -2,3 °C -0,8 °C 20,9 km/h (4 Bft)
11.03.2019 03:53 2,6 °C 70 % 1017,3 hPa 0,0 mm 10,9 km/h (2 Bft) W 261 ° 0 min 0,000 mm 0,0 UV-I 0 W/m² -2,3 °C -0,4 °C 17,7 km/h (3 Bft)
11.03.2019 03:54 2,5 °C 70 % 1017,3 hPa 0,0 mm 9,6 km/h (2 Bft) W 265 ° 0 min 0,000 mm 0,0 UV-I 0 W/m² -2,4 °C -0,2 °C 19,3 km/h (3 Bft)
11.03.2019 03:55 2,4 °C 70 % 1017,3 hPa 0,0 mm 9,9 km/h (2 Bft) W-SW 247 ° 0 min 0,000 mm 0,0 UV-I 0 W/m² -2,5 °C -0,4 °C 16,1 km/h (3 Bft)
11.03.2019 03:56 2,4 °C 70 % 1017,3 hPa 0,0 mm 12,7 km/h (3 Bft) NW 311 ° 0 min 0,000 mm 0,0 UV-I 0 W/m² -2,5 °C -1,0 °C 14,5 km/h (3 Bft)
11.03.2019 03:57 2,4 °C 70 % 1017,3 hPa 0,0 mm 19,3 km/h (3 Bft) W 274 ° 0 min 0,000 mm 0,0 UV-I 0 W/m² -2,5 °C -2,1 °C 27,4 km/h (4 Bft)
11.03.2019 03:58 2,4 °C 70 % 1017,3 hPa 0,0 mm 14,2 km/h (3 Bft) W 270 ° 0 min 0,000 mm 0,0 UV-I 0 W/m² -2,5 °C -1,3 °C 20,9 km/h (4 Bft)
11.03.2019 03:59 2,4 °C 70 % 1017,1 hPa 0,0 mm 13,6 km/h (3 Bft) W-NW 302 ° 0 min 0,000 mm 0,0 UV-I 0 W/m² -2,5 °C -1,2 °C 22,5 km/h (4 Bft)
11.03.2019 04:00 2,4 °C 70 % 1017,1 hPa 0,0 mm 15,0 km/h (3 Bft) W 261 ° 0 min 0,050 mm 0,0 UV-I 0 W/m² -2,5 °C -1,5 °C 20,9 km/h (4 Bft)
11.03.2019 04:01 2,4 °C 70 % 1017,1 hPa 0,0 mm 16,4 km/h (3 Bft) W-NW 298 ° 0 min 0,000 mm 0,0 UV-I 0 W/m² -2,5 °C -1,7 °C 24,1 km/h (4 Bft)
11.03.2019 04:02 2,4 °C 70 % 1017,2 hPa 0,0 mm 11,3 km/h (2 Bft) SW 232 ° 0 min 0,000 mm 0,0 UV-I 0 W/m² -2,5 °C -0,7 °C 19,3 km/h (3 Bft)
11.03.2019 04:03 2,4 °C 70 % 1017,2 hPa 0,0 mm 14,1 km/h (3 Bft) W-NW 283 ° 0 min 0,000 mm 0,0 UV-I 0 W/m² -2,5 °C -1,3 °C 16,1 km/h (3 Bft)
11.03.2019 04:04 2,4 °C 70 % 1017,2 hPa 0,0 mm 14,8 km/h (3 Bft) W 263 ° 0 min 0,000 mm 0,0 UV-I 0 W/m² -2,5 °C -1,4 °C 17,7 km/h (3 Bft)
11.03.2019 04:05 2,4 °C 70 % 1017,2 hPa 0,0 mm 13,9 km/h (3 Bft) W 265 ° 0 min 0,000 mm 0,0 UV-I 0 W/m² -2,5 °C -1,3 °C 19,3 km/h (3 Bft)
11.03.2019 04:06 2,4 °C 70 % 1017,2 hPa 0,0 mm 13,8 km/h (3 Bft) W-SW 250 ° 0 min 0,000 mm 0,0 UV-I 0 W/m² -2,5 °C -1,2 °C 20,9 km/h (4 Bft)
11.03.2019 04:07 2,4 °C 70 % 1017,2 hPa 0,0 mm 12,7 km/h (3 Bft) W 270 ° 0 min 0,000 mm 0,0 UV-I 0 W/m² -2,5 °C -1,0 °C 16,1 km/h (3 Bft)
11.03.2019 04:08 2,4 °C 70 % 1017,2 hPa 0,0 mm 18,8 km/h (3 Bft) W 268 ° 0 min 0,000 mm 0,0 UV-I 0 W/m² -2,5 °C -2,0 °C 24,1 km/h (4 Bft)
11.03.2019 04:09 2,4 °C 70 % 1017,2 hPa 0,0 mm 18,4 km/h (3 Bft) W-NW 293 ° 0 min 0,000 mm 0,0 UV-I 0 W/m² -2,5 °C -2,0 °C 24,1 km/h (4 Bft)
11.03.2019 04:10 2,4 °C 70 % 1017,2 hPa 0,0 mm 14,3 km/h (3 Bft) W-SW 245 ° 0 min 0,000 mm 0,0 UV-I 0 W/m² -2,5 °C -1,3 °C 17,7 km/h (3 Bft)
11.03.2019 04:11 2,3 °C 70 % 1017,2 hPa 0,0 mm 14,6 km/h (3 Bft) SW 234 ° 0 min 0,000 mm 0,0 UV-I 0 W/m² -2,6 °C -1,5 °C 20,9 km/h (4 Bft)
11.03.2019 04:12 2,3 °C 71 % 1017,2 hPa 0,0 mm 11,1 km/h (2 Bft) W-SW 247 ° 0 min 0,000 mm 0,0 UV-I 0 W/m² -2,4 °C -0,8 °C 14,5 km/h (3 Bft)
11.03.2019 04:13 2,3 °C 71 % 1017,2 hPa 0,0 mm 11,6 km/h (2 Bft) W 263 ° 0 min 0,000 mm 0,0 UV-I 0 W/m² -2,4 °C -0,9 °C 20,9 km/h (4 Bft)
11.03.2019 04:14 2,2 °C 71 % 1017,2 hPa 0,0 mm 15,3 km/h (3 Bft) W 265 ° 0 min 0,000 mm 0,0 UV-I 0 W/m² -2,5 °C -1,8 °C 20,9 km/h (4 Bft)
11.03.2019 04:15 2,2 °C 71 % 1017,2 hPa 0,0 mm 15,7 km/h (3 Bft) W 276 ° 0 min 0,000 mm 0,0 UV-I 0 W/m² -2,5 °C -1,8 °C 22,5 km/h (4 Bft)
11.03.2019 04:16 2,2 °C 71 % 1017,3 hPa 0,0 mm 13,3 km/h (3 Bft) W 269 ° 0 min 0,000 mm 0,0 UV-I 0 W/m² -2,5 °C -1,4 °C 19,3 km/h (3 Bft)
11.03.2019 04:17 2,2 °C 71 % 1017,3 hPa 0,0 mm 13,0 km/h (3 Bft) W-SW 254 ° 0 min 0,000 mm 0,0 UV-I 0 W/m² -2,5 °C -1,3 °C 16,1 km/h (3 Bft)
11.03.2019 04:18 2,2 °C 72 % 1017,3 hPa 0,0 mm 12,9 km/h (3 Bft) W 270 ° 0 min 0,000 mm 0,0 UV-I 0 W/m² -2,3 °C -1,3 °C 20,9 km/h (4 Bft)
11.03.2019 04:19 2,2 °C 72 % 1017,4 hPa 0,0 mm 12,9 km/h (3 Bft) W-SW 246 ° 0 min 0,000 mm 0,0 UV-I 0 W/m² -2,3 °C -1,3 °C 19,3 km/h (3 Bft)
11.03.2019 04:20 2,2 °C 72 % 1017,3 hPa 0,0 mm 12,1 km/h (2 Bft) W 261 ° 0 min 0,000 mm 0,0 UV-I 0 W/m² -2,3 °C -1,2 °C 16,1 km/h (3 Bft)
11.03.2019 04:21 2,2 °C 72 % 1017,3 hPa 0,0 mm 11,6 km/h (2 Bft) W-SW 247 ° 0 min 0,000 mm 0,0 UV-I 0 W/m² -2,3 °C -1,1 °C 22,5 km/h (4 Bft)
11.03.2019 04:22 2,2 °C 72 % 1017,2 hPa 0,0 mm 15,8 km/h (3 Bft) NW 315 ° 0 min 0,000 mm 0,0 UV-I 0 W/m² -2,3 °C -1,8 °C 24,1 km/h (4 Bft)
11.03.2019 04:23 2,2 °C 71 % 1017,3 hPa 0,0 mm 16,4 km/h (3 Bft) W-NW 285 ° 0 min 0,000 mm 0,0 UV-I 0 W/m² -2,5 °C -1,9 °C 29,0 km/h (5 Bft)
11.03.2019 04:24 2,2 °C 71 % 1017,3 hPa 0,0 mm 15,2 km/h (3 Bft) W-SW 246 ° 0 min 0,000 mm 0,0 UV-I 0 W/m² -2,5 °C -1,7 °C 29,0 km/h (5 Bft)
11.03.2019 04:25 2,2 °C 71 % 1017,3 hPa 0,0 mm 14,5 km/h (3 Bft) W 275 ° 0 min 0,000 mm 0,0 UV-I 0 W/m² -2,5 °C -1,6 °C 20,9 km/h (4 Bft)
11.03.2019 04:26 2,2 °C 71 % 1017,2 hPa 0,0 mm 14,9 km/h (3 Bft) W-NW 289 ° 0 min 0,000 mm 0,0 UV-I 0 W/m² -2,5 °C -1,7 °C 20,9 km/h (4 Bft)
11.03.2019 04:27 2,2 °C 71 % 1017,3 hPa 0,0 mm 13,1 km/h (3 Bft) W 259 ° 0 min 0,000 mm 0,0 UV-I 0 W/m² -2,5 °C -1,4 °C 22,5 km/h (4 Bft)
11.03.2019 04:28 2,2 °C 70 % 1017,3 hPa 0,0 mm 14,2 km/h (3 Bft) W 273 ° 0 min 0,000 mm 0,0 UV-I 0 W/m² -2,7 °C -1,6 °C 25,7 km/h (4 Bft)
11.03.2019 04:29 2,2 °C 70 % 1017,3 hPa 0,0 mm 12,0 km/h (2 Bft) SW 225 ° 0 min 0,000 mm 0,0 UV-I 0 W/m² -2,7 °C -1,1 °C 17,7 km/h (3 Bft)
11.03.2019 04:30 2,2 °C 70 % 1017,2 hPa 0,0 mm 11,6 km/h (2 Bft) W 278 ° 0 min 0,000 mm 0,0 UV-I 0 W/m² -2,7 °C -1,1 °C 19,3 km/h (3 Bft)
11.03.2019 04:31 2,2 °C 69 % 1017,2 hPa 0,0 mm 14,8 km/h (3 Bft) W 281 ° 0 min 0,000 mm 0,0 UV-I 0 W/m² -2,9 °C -1,7 °C 20,9 km/h (4 Bft)
11.03.2019 04:32 2,2 °C 70 % 1017,2 hPa 0,0 mm 12,9 km/h (3 Bft) W 272 ° 0 min 0,000 mm 0,0 UV-I 0 W/m² -2,7 °C -1,3 °C 19,3 km/h (3 Bft)
11.03.2019 04:33 2,2 °C 69 % 1017,3 hPa 0,0 mm 16,5 km/h (3 Bft) W 261 ° 0 min 0,000 mm 0,0 UV-I 0 W/m² -2,9 °C -2,0 °C 24,1 km/h (4 Bft)
11.03.2019 04:34 2,2 °C 70 % 1017,2 hPa 0,0 mm 12,5 km/h (3 Bft) W 262 ° 0 min 0,000 mm 0,0 UV-I 0 W/m² -2,7 °C -1,2 °C 17,7 km/h (3 Bft)
11.03.2019 04:35 2,2 °C 70 % 1017,2 hPa 0,0 mm 14,8 km/h (3 Bft) W-NW 298 ° 0 min 0,000 mm 0,0 UV-I 0 W/m² -2,7 °C -1,7 °C 22,5 km/h (4 Bft)
11.03.2019 04:36 2,2 °C 70 % 1017,3 hPa 0,0 mm 16,4 km/h (3 Bft) W 269 ° 0 min 0,000 mm 0,0 UV-I 0 W/m² -2,7 °C -1,9 °C 24,1 km/h (4 Bft)
11.03.2019 04:37 2,2 °C 69 % 1017,1 hPa 0,0 mm 12,5 km/h (3 Bft) W-NW 298 ° 0 min 0,000 mm 0,0 UV-I 0 W/m² -2,9 °C -1,2 °C 24,1 km/h (4 Bft)
11.03.2019 04:38 2,2 °C 69 % 1017,1 hPa 0,0 mm 15,6 km/h (3 Bft) W 275 ° 0 min 0,000 mm 0,0 UV-I 0 W/m² -2,9 °C -1,8 °C 27,4 km/h (4 Bft)
11.03.2019 04:39 2,2 °C 69 % 1017,2 hPa 0,0 mm 20,6 km/h (4 Bft) W 274 ° 0 min 0,000 mm 0,0 UV-I 0 W/m² -2,9 °C -2,5 °C 27,4 km/h (4 Bft)
11.03.2019 04:40 2,2 °C 69 % 1017,3 hPa 0,0 mm 15,2 km/h (3 Bft) W-SW 238 ° 0 min 0,000 mm 0,0 UV-I 0 W/m² -2,9 °C -1,7 °C 20,9 km/h (4 Bft)
11.03.2019 04:41 2,3 °C 69 % 1017,2 hPa 0,0 mm 22,5 km/h (4 Bft) W 266 ° 0 min 0,000 mm 0,0 UV-I 0 W/m² -2,8 °C -2,7 °C 33,8 km/h (5 Bft)
11.03.2019 04:42 2,3 °C 69 % 1017,2 hPa 0,0 mm 16,0 km/h (3 Bft) W 262 ° 0 min 0,000 mm 0,0 UV-I 0 W/m² -2,8 °C -1,7 °C 22,5 km/h (4 Bft)
11.03.2019 04:43 2,3 °C 69 % 1017,3 hPa 0,0 mm 13,8 km/h (3 Bft) W 263 ° 0 min 0,000 mm 0,0 UV-I 0 W/m² -2,8 °C -1,4 °C 20,9 km/h (4 Bft)
11.03.2019 04:44 2,3 °C 69 % 1017,3 hPa 0,0 mm 10,6 km/h (2 Bft) W 259 ° 0 min 0,000 mm 0,0 UV-I 0 W/m² -2,8 °C -0,7 °C 17,7 km/h (3 Bft)
11.03.2019 04:45 2,3 °C 69 % 1017,2 hPa 0,0 mm 16,5 km/h (3 Bft) W-NW 286 ° 0 min 0,000 mm 0,0 UV-I 0 W/m² -2,8 °C -1,8 °C 25,7 km/h (4 Bft)
11.03.2019 04:46 2,3 °C 69 % 1017,3 hPa 0,0 mm 17,0 km/h (3 Bft) W 273 ° 0 min 0,000 mm 0,0 UV-I 0 W/m² -2,8 °C -1,9 °C 29,0 km/h (5 Bft)
11.03.2019 04:47 2,3 °C 69 % 1017,3 hPa 0,0 mm 19,2 km/h (3 Bft) W 273 ° 0 min 0,000 mm 0,0 UV-I 0 W/m² -2,8 °C -2,2 °C 29,0 km/h (5 Bft)
11.03.2019 04:48 2,3 °C 69 % 1017,3 hPa 0,0 mm 14,6 km/h (3 Bft) W-SW 254 ° 0 min 0,000 mm 0,0 UV-I 0 W/m² -2,8 °C -1,5 °C 22,5 km/h (4 Bft)
11.03.2019 04:49 2,2 °C 69 % 1017,3 hPa 0,0 mm 16,0 km/h (3 Bft) W-SW 248 ° 0 min 0,000 mm 0,0 UV-I 0 W/m² -2,9 °C -1,9 °C 24,1 km/h (4 Bft)
11.03.2019 04:50 2,2 °C 69 % 1017,3 hPa 0,0 mm 13,9 km/h (3 Bft) W-NW 284 ° 0 min 0,000 mm 0,0 UV-I 0 W/m² -2,9 °C -1,5 °C 20,9 km/h (4 Bft)
11.03.2019 04:51 2,2 °C 69 % 1017,2 hPa 0,0 mm 11,0 km/h (2 Bft) W-NW 298 ° 0 min 0,000 mm 0,0 UV-I 0 W/m² -2,9 °C -0,9 °C 16,1 km/h (3 Bft)
11.03.2019 04:52 2,2 °C 69 % 1017,2 hPa 0,0 mm 9,4 km/h (2 Bft) W 265 ° 0 min 0,000 mm 0,0 UV-I 0 W/m² -2,9 °C -0,5 °C 14,5 km/h (3 Bft)
11.03.2019 04:53 2,2 °C 70 % 1017,3 hPa 0,0 mm 10,3 km/h (2 Bft) W 266 ° 0 min 0,000 mm 0,0 UV-I 0 W/m² -2,7 °C -0,8 °C 16,1 km/h (3 Bft)
11.03.2019 04:54 2,1 °C 70 % 1017,3 hPa 0,0 mm 13,9 km/h (3 Bft) W-SW 242 ° 0 min 0,000 mm 0,0 UV-I 0 W/m² -2,8 °C -1,6 °C 19,3 km/h (3 Bft)
11.03.2019 04:55 2,1 °C 70 % 1017,2 hPa 0,0 mm 15,3 km/h (3 Bft) W 272 ° 0 min 0,000 mm 0,0 UV-I 0 W/m² -2,8 °C -1,9 °C 19,3 km/h (3 Bft)
11.03.2019 04:56 2,0 °C 69 % 1017,2 hPa 0,0 mm 14,9 km/h (3 Bft) W-SW 250 ° 0 min 0,000 mm 0,0 UV-I 0 W/m² -3,1 °C -1,9 °C 24,1 km/h (4 Bft)
11.03.2019 04:57 2,0 °C 69 % 1017,2 hPa 0,0 mm 15,8 km/h (3 Bft) W 268 ° 0 min 0,000 mm 0,0 UV-I 0 W/m² -3,1 °C -2,1 °C 22,5 km/h (4 Bft)
11.03.2019 04:58 2,1 °C 69 % 1017,2 hPa 0,0 mm 15,7 km/h (3 Bft) W-SW 255 ° 0 min 0,000 mm 0,0 UV-I 0 W/m² -3,0 °C -1,9 °C 22,5 km/h (4 Bft)
11.03.2019 04:59 2,1 °C 69 % 1017,2 hPa 0,0 mm 15,5 km/h (3 Bft) W-SW 248 ° 0 min 0,000 mm 0,0 UV-I 0 W/m² -3,0 °C -1,9 °C 20,9 km/h (4 Bft)
11.03.2019 05:00 2,1 °C 69 % 1017,2 hPa 0,0 mm 10,9 km/h (2 Bft) W 262 ° 0 min 0,051 mm 0,0 UV-I 0 W/m² -3,0 °C -1,0 °C 17,7 km/h (3 Bft)
11.03.2019 05:01 2,1 °C 69 % 1017,3 hPa 0,0 mm 12,0 km/h (2 Bft) W-SW 246 ° 0 min 0,000 mm 0,0 UV-I 0 W/m² -3,0 °C -1,3 °C 16,1 km/h (3 Bft)
11.03.2019 05:02 2,1 °C 69 % 1017,2 hPa 0,0 mm 14,6 km/h (3 Bft) SW 235 ° 0 min 0,000 mm 0,0 UV-I 0 W/m² -3,0 °C -1,8 °C 19,3 km/h (3 Bft)
11.03.2019 05:03 2,1 °C 69 % 1017,2 hPa 0,0 mm 9,9 km/h (2 Bft) W-SW 251 ° 0 min 0,000 mm 0,0 UV-I 0 W/m² -3,0 °C -0,8 °C 16,1 km/h (3 Bft)
11.03.2019 05:04 2,0 °C 69 % 1017,2 hPa 0,0 mm 15,0 km/h (3 Bft) W-SW 251 ° 0 min 0,000 mm 0,0 UV-I 0 W/m² -3,1 °C -2,0 °C 19,3 km/h (3 Bft)
11.03.2019 05:05 2,0 °C 69 % 1017,2 hPa 0,0 mm 8,9 km/h (2 Bft) W 275 ° 0 min 0,000 mm 0,0 UV-I 0 W/m² -3,1 °C -0,6 °C 14,5 km/h (3 Bft)
11.03.2019 05:06 2,0 °C 69 % 1017,1 hPa 0,0 mm 15,1 km/h (3 Bft) W 261 ° 0 min 0,000 mm 0,0 UV-I 0 W/m² -3,1 °C -2,0 °C 19,3 km/h (3 Bft)
11.03.2019 05:07 2,0 °C 69 % 1017,1 hPa 0,0 mm 12,5 km/h (3 Bft) W-SW 240 ° 0 min 0,000 mm 0,0 UV-I 0 W/m² -3,1 °C -1,5 °C 16,1 km/h (3 Bft)
11.03.2019 05:08 2,0 °C 69 % 1017,2 hPa 0,0 mm 14,3 km/h (3 Bft) SW 234 ° 0 min 0,000 mm 0,0 UV-I 0 W/m² -3,1 °C -1,8 °C 22,5 km/h (4 Bft)
11.03.2019 05:09 2,0 °C 69 % 1017,1 hPa 0,0 mm 14,6 km/h (3 Bft) W 265 ° 0 min 0,000 mm 0,0 UV-I 0 W/m² -3,1 °C -1,9 °C 19,3 km/h (3 Bft)
11.03.2019 05:10 2,0 °C 69 % 1017,1 hPa 0,0 mm 13,5 km/h (3 Bft) S 190 ° 0 min 0,000 mm 0,0 UV-I 0 W/m² -3,1 °C -1,7 °C 19,3 km/h (3 Bft)
11.03.2019 05:11 2,0 °C 68 % 1017,0 hPa 0,0 mm 15,3 km/h (3 Bft) W-SW 244 ° 0 min 0,000 mm 0,0 UV-I 0 W/m² -3,3 °C -2,0 °C 20,9 km/h (4 Bft)
11.03.2019 05:12 2,0 °C 68 % 1017,0 hPa 0,0 mm 11,4 km/h (2 Bft) W 259 ° 0 min 0,000 mm 0,0 UV-I 0 W/m² -3,3 °C -1,2 °C 16,1 km/h (3 Bft)
11.03.2019 05:13 2,0 °C 68 % 1017,0 hPa 0,0 mm 14,9 km/h (3 Bft) S-SW 211 ° 0 min 0,000 mm 0,0 UV-I 0 W/m² -3,3 °C -1,9 °C 27,4 km/h (4 Bft)
11.03.2019 05:14 2,0 °C 68 % 1016,9 hPa 0,0 mm 9,9 km/h (2 Bft) W 274 ° 0 min 0,000 mm 0,0 UV-I 0 W/m² -3,3 °C -0,9 °C 17,7 km/h (3 Bft)
11.03.2019 05:15 2,0 °C 67 % 1016,9 hPa 0,0 mm 12,7 km/h (3 Bft) W 263 ° 0 min 0,000 mm 0,0 UV-I 0 W/m² -3,5 °C -1,5 °C 19,3 km/h (3 Bft)
11.03.2019 05:16 2,0 °C 68 % 1016,9 hPa 0,0 mm 12,5 km/h (3 Bft) W 265 ° 0 min 0,000 mm 0,0 UV-I 0 W/m² -3,3 °C -1,5 °C 19,3 km/h (3 Bft)
11.03.2019 05:17 2,0 °C 67 % 1017,0 hPa 0,0 mm 6,4 km/h (2 Bft) W 271 ° 0 min 0,000 mm 0,0 UV-I 0 W/m² -3,5 °C 0,1 °C 9,7 km/h (2 Bft)
11.03.2019 05:18 2,0 °C 68 % 1016,9 hPa 0,0 mm 12,3 km/h (3 Bft) W-SW 252 ° 0 min 0,000 mm 0,0 UV-I 0 W/m² -3,3 °C -1,4 °C 16,1 km/h (3 Bft)
11.03.2019 05:19 1,9 °C 68 % 1017,0 hPa 0,0 mm 12,7 km/h (3 Bft) W 260 ° 0 min 0,000 mm 0,0 UV-I 0 W/m² -3,4 °C -1,6 °C 17,7 km/h (3 Bft)
11.03.2019 05:20 1,9 °C 68 % 1016,9 hPa 0,0 mm 10,9 km/h (2 Bft) W-SW 252 ° 0 min 0,000 mm 0,0 UV-I 0 W/m² -3,4 °C -1,3 °C 19,3 km/h (3 Bft)
11.03.2019 05:21 1,9 °C 68 % 1017,0 hPa 0,0 mm 6,8 km/h (2 Bft) W-SW 254 ° 0 min 0,000 mm 0,0 UV-I 0 W/m² -3,4 °C -0,1 °C 9,7 km/h (2 Bft)
11.03.2019 05:22 1,8 °C 68 % 1017,0 hPa 0,0 mm 12,7 km/h (3 Bft) W 266 ° 0 min 0,000 mm 0,0 UV-I 0 W/m² -3,5 °C -1,8 °C 17,7 km/h (3 Bft)
11.03.2019 05:23 1,8 °C 68 % 1017,0 hPa 0,0 mm 11,8 km/h (2 Bft) W 259 ° 0 min 0,000 mm 0,0 UV-I 0 W/m² -3,5 °C -1,6 °C 16,1 km/h (3 Bft)
11.03.2019 05:24 1,8 °C 68 % 1016,9 hPa 0,0 mm 9,8 km/h (2 Bft) W 261 ° 0 min 0,000 mm 0,0 UV-I 0 W/m² -3,5 °C -1,1 °C 12,9 km/h (3 Bft)
11.03.2019 05:25 1,8 °C 68 % 1016,9 hPa 0,0 mm 8,5 km/h (2 Bft) W-SW 254 ° 0 min 0,000 mm 0,0 UV-I 0 W/m² -3,5 °C -0,8 °C 14,5 km/h (3 Bft)
11.03.2019 05:26 1,8 °C 68 % 1017,0 hPa 0,0 mm 8,7 km/h (2 Bft) W 260 ° 0 min 0,000 mm 0,0 UV-I 0 W/m² -3,5 °C -0,8 °C 14,5 km/h (3 Bft)
11.03.2019 05:27 1,8 °C 68 % 1017,0 hPa 0,0 mm 11,3 km/h (2 Bft) W 262 ° 0 min 0,000 mm 0,0 UV-I 0 W/m² -3,5 °C -1,5 °C 16,1 km/h (3 Bft)
11.03.2019 05:28 1,8 °C 68 % 1017,0 hPa 0,0 mm 7,6 km/h (2 Bft) W 265 ° 0 min 0,000 mm 0,0 UV-I 0 W/m² -3,5 °C -0,5 °C 11,3 km/h (2 Bft)
11.03.2019 05:29 1,7 °C 69 % 1017,0 hPa 0,0 mm 10,0 km/h (2 Bft) W 271 ° 0 min 0,000 mm 0,0 UV-I 0 W/m² -3,4 °C -1,3 °C 16,1 km/h (3 Bft)
11.03.2019 05:30 1,7 °C 68 % 1016,9 hPa 0,0 mm 11,3 km/h (2 Bft) W 263 ° 0 min 0,000 mm 0,0 UV-I 0 W/m² -3,6 °C -1,6 °C 14,5 km/h (3 Bft)
11.03.2019 05:31 1,7 °C 68 % 1016,8 hPa 0,0 mm 7,0 km/h (2 Bft) W-SW 257 ° 0 min 0,000 mm 0,0 UV-I 0 W/m² -3,6 °C -0,4 °C 11,3 km/h (2 Bft)
11.03.2019 05:32 1,7 °C 68 % 1016,8 hPa 0,0 mm 7,3 km/h (2 Bft) W-SW 245 ° 0 min 0,000 mm 0,0 UV-I 0 W/m² -3,6 °C -0,5 °C 11,3 km/h (2 Bft)
11.03.2019 05:33 1,7 °C 68 % 1016,8 hPa 0,0 mm 9,9 km/h (2 Bft) W 265 ° 0 min 0,000 mm 0,0 UV-I 0 W/m² -3,6 °C -1,3 °C 14,5 km/h (3 Bft)
11.03.2019 05:34 1,7 °C 69 % 1016,7 hPa 0,0 mm 7,8 km/h (2 Bft) W 268 ° 0 min 0,000 mm 0,0 UV-I 0 W/m² -3,4 °C -0,7 °C 12,9 km/h (3 Bft)
11.03.2019 05:35 1,7 °C 69 % 1016,8 hPa 0,0 mm 7,4 km/h (2 Bft) W 260 ° 0 min 0,000 mm 0,0 UV-I 0 W/m² -3,4 °C -0,6 °C 11,3 km/h (2 Bft)
11.03.2019 05:36 1,6 °C 69 % 1016,7 hPa 0,0 mm 8,0 km/h (2 Bft) SW 234 ° 0 min 0,000 mm 0,0 UV-I 0 W/m² -3,5 °C -0,9 °C 14,5 km/h (3 Bft)
11.03.2019 05:37 1,6 °C 69 % 1016,7 hPa 0,0 mm 7,8 km/h (2 Bft) W-SW 257 ° 0 min 0,000 mm 0,0 UV-I 0 W/m² -3,5 °C -0,8 °C 12,9 km/h (3 Bft)
11.03.2019 05:38 1,6 °C 68 % 1016,7 hPa 0,0 mm 10,9 km/h (2 Bft) W-SW 243 ° 0 min 0,000 mm 0,0 UV-I 0 W/m² -3,7 °C -1,6 °C 17,7 km/h (3 Bft)
11.03.2019 05:39 1,6 °C 68 % 1016,8 hPa 0,0 mm 8,9 km/h (2 Bft) W 259 ° 0 min 0,000 mm 0,0 UV-I 0 W/m² -3,7 °C -1,1 °C 12,9 km/h (3 Bft)
11.03.2019 05:40 1,6 °C 69 % 1016,8 hPa 0,0 mm 4,9 km/h (1 Bft) W-SW 241 ° 0 min 0,000 mm 0,0 UV-I 0 W/m² -3,5 °C 0,3 °C 6,4 km/h (2 Bft)
11.03.2019 05:41 1,6 °C 69 % 1016,7 hPa 0,0 mm 3,6 km/h (1 Bft) W 267 ° 0 min 0,000 mm 0,0 UV-I 0 W/m² -3,5 °C 1,6 °C 6,4 km/h (2 Bft)
11.03.2019 05:42 1,6 °C 69 % 1016,8 hPa 0,0 mm 7,8 km/h (2 Bft) W-SW 256 ° 0 min 0,000 mm 0,0 UV-I 0 W/m² -3,5 °C -0,8 °C 11,3 km/h (2 Bft)
11.03.2019 05:43 1,6 °C 69 % 1016,8 hPa 0,0 mm 6,8 km/h (2 Bft) W-SW 254 ° 0 min 0,000 mm 0,0 UV-I 0 W/m² -3,5 °C -0,5 °C 9,7 km/h (2 Bft)
11.03.2019 05:44 1,5 °C 69 % 1016,8 hPa 0,0 mm 6,7 km/h (2 Bft) W 267 ° 0 min 0,000 mm 0,0 UV-I 0 W/m² -3,6 °C -0,6 °C 9,7 km/h (2 Bft)
11.03.2019 05:45 1,4 °C 69 % 1016,7 hPa 0,0 mm 8,5 km/h (2 Bft) W 261 ° 0 min 0,000 mm 0,0 UV-I 0 W/m² -3,7 °C -1,2 °C 12,9 km/h (3 Bft)
11.03.2019 05:46 1,4 °C 70 % 1016,7 hPa 0,0 mm 7,8 km/h (2 Bft) W 263 ° 0 min 0,000 mm 0,0 UV-I 0 W/m² -3,5 °C -1,0 °C 11,3 km/h (2 Bft)
11.03.2019 05:47 1,4 °C 70 % 1016,7 hPa 0,0 mm 8,0 km/h (2 Bft) W-NW 282 ° 0 min 0,000 mm 0,0 UV-I 0 W/m² -3,5 °C -1,1 °C 11,3 km/h (2 Bft)
11.03.2019 05:48 1,3 °C 70 % 1016,6 hPa 0,0 mm 6,5 km/h (2 Bft) W-SW 254 ° 0 min 0,000 mm 0,0 UV-I 0 W/m² -3,6 °C -0,7 °C 11,3 km/h (2 Bft)
11.03.2019 05:49 1,3 °C 70 % 1016,6 hPa 0,0 mm 7,8 km/h (2 Bft) W-SW 251 ° 0 min 0,000 mm 0,0 UV-I 0 W/m² -3,6 °C -1,2 °C 11,3 km/h (2 Bft)
11.03.2019 05:50 1,3 °C 70 % 1016,7 hPa 0,0 mm 10,6 km/h (2 Bft) SW 221 ° 0 min 0,000 mm 0,0 UV-I 0 W/m² -3,6 °C -1,9 °C 17,7 km/h (3 Bft)
11.03.2019 05:51 1,3 °C 70 % 1016,6 hPa 0,0 mm 10,9 km/h (2 Bft) W 263 ° 0 min 0,000 mm 0,0 UV-I 0 W/m² -3,6 °C -2,0 °C 14,5 km/h (3 Bft)
11.03.2019 05:52 1,3 °C 69 % 1016,6 hPa 0,0 mm 10,9 km/h (2 Bft) W-SW 254 ° 0 min 0,000 mm 0,0 UV-I 0 W/m² -3,7 °C -2,0 °C 16,1 km/h (3 Bft)
11.03.2019 05:53 1,3 °C 70 % 1016,7 hPa 0,0 mm 8,0 km/h (2 Bft) W 270 ° 0 min 0,000 mm 0,0 UV-I 0 W/m² -3,6 °C -1,2 °C 12,9 km/h (3 Bft)
11.03.2019 05:54 1,3 °C 69 % 1016,7 hPa 0,0 mm 10,7 km/h (2 Bft) W-NW 286 ° 0 min 0,000 mm 0,0 UV-I 0 W/m² -3,7 °C -1,9 °C 17,7 km/h (3 Bft)
11.03.2019 05:55 1,4 °C 69 % 1016,6 hPa 0,0 mm 9,3 km/h (2 Bft) W 271 ° 0 min 0,000 mm 0,0 UV-I 0 W/m² -3,7 °C -1,5 °C 14,5 km/h (3 Bft)
11.03.2019 05:56 1,4 °C 69 % 1016,7 hPa 0,0 mm 9,7 km/h (2 Bft) NW 308 ° 0 min 0,000 mm 0,0 UV-I 0 W/m² -3,7 °C -1,6 °C 14,5 km/h (3 Bft)
11.03.2019 05:57 1,4 °C 69 % 1016,7 hPa 0,0 mm 16,4 km/h (3 Bft) SW 236 ° 0 min 0,000 mm 0,0 UV-I 0 W/m² -3,7 °C -2,9 °C 24,1 km/h (4 Bft)
11.03.2019 05:58 1,4 °C 69 % 1016,7 hPa 0,0 mm 8,8 km/h (2 Bft) W-NW 286 ° 0 min 0,000 mm 0,0 UV-I 0 W/m² -3,7 °C -1,3 °C 14,5 km/h (3 Bft)
11.03.2019 05:59 1,4 °C 69 % 1016,6 hPa 0,0 mm 9,2 km/h (2 Bft) SW 219 ° 0 min 0,000 mm 0,0 UV-I 0 W/m² -3,7 °C -1,4 °C 12,9 km/h (3 Bft)
11.03.2019 06:00 1,4 °C 69 % 1016,6 hPa 0,0 mm 9,3 km/h (2 Bft) W 272 ° 0 min 0,026 mm 0,0 UV-I 0 W/m² -3,7 °C -1,5 °C 20,9 km/h (4 Bft)
11.03.2019 06:01 1,5 °C 69 % 1016,6 hPa 0,0 mm 13,4 km/h (3 Bft) W-NW 296 ° 0 min 0,000 mm 0,0 UV-I 0 W/m² -3,6 °C -2,3 °C 22,5 km/h (4 Bft)
11.03.2019 06:02 1,6 °C 68 % 1016,6 hPa 0,0 mm 13,0 km/h (3 Bft) W 266 ° 0 min 0,000 mm 0,0 UV-I 0 W/m² -3,7 °C -2,1 °C 22,5 km/h (4 Bft)
11.03.2019 06:03 1,6 °C 68 % 1016,7 hPa 0,0 mm 12,0 km/h (2 Bft) W-NW 292 ° 0 min 0,000 mm 0,0 UV-I 0 W/m² -3,7 °C -1,9 °C 20,9 km/h (4 Bft)
11.03.2019 06:04 1,6 °C 68 % 1016,6 hPa 0,0 mm 15,6 km/h (3 Bft) W-SW 247 ° 0 min 0,000 mm 0,0 UV-I 0 W/m² -3,7 °C -2,5 °C 24,1 km/h (4 Bft)
11.03.2019 06:05 1,7 °C 68 % 1016,7 hPa 0,0 mm 9,1 km/h (2 Bft) W-SW 244 ° 0 min 0,000 mm 0,0 UV-I 0 W/m² -3,6 °C -1,1 °C 17,7 km/h (3 Bft)
11.03.2019 06:06 1,7 °C 68 % 1016,5 hPa 0,0 mm 11,6 km/h (2 Bft) W 277 ° 0 min 0,000 mm 0,0 UV-I 0 W/m² -3,6 °C -1,7 °C 17,7 km/h (3 Bft)
11.03.2019 06:07 1,7 °C 67 % 1016,5 hPa 0,0 mm 16,1 km/h (3 Bft) W-NW 282 ° 0 min 0,000 mm 0,0 UV-I 0 W/m² -3,8 °C -2,5 °C 37,0 km/h (5 Bft)
11.03.2019 06:08 1,8 °C 67 % 1016,5 hPa 0,0 mm 22,9 km/h (4 Bft) NW 311 ° 0 min 0,000 mm 0,0 UV-I 0 W/m² -3,7 °C -3,3 °C 41,8 km/h (6 Bft)
11.03.2019 06:09 1,8 °C 66 % 1016,6 hPa 0,0 mm 26,4 km/h (4 Bft) W-NW 290 ° 0 min 0,000 mm 0,0 UV-I 0 W/m² -3,9 °C -3,8 °C 35,4 km/h (5 Bft)
11.03.2019 06:10 1,9 °C 65 % 1016,6 hPa 0,0 mm 12,5 km/h (3 Bft) W-NW 302 ° 0 min 0,000 mm 0,0 UV-I 0 W/m² -4,0 °C -1,6 °C 16,1 km/h (3 Bft)
11.03.2019 06:11 2,0 °C 65 % 1016,5 hPa 0,0 mm 13,8 km/h (3 Bft) W 266 ° 0 min 0,000 mm 0,0 UV-I 0 W/m² -3,9 °C -1,7 °C 22,5 km/h (4 Bft)
11.03.2019 06:12 2,0 °C 64 % 1016,5 hPa 0,0 mm 19,8 km/h (3 Bft) W-SW 250 ° 0 min 0,000 mm 0,0 UV-I 0 W/m² -4,1 °C -2,7 °C 33,8 km/h (5 Bft)
11.03.2019 06:13 2,1 °C 64 % 1016,5 hPa 0,0 mm 14,9 km/h (3 Bft) W 275 ° 0 min 0,000 mm 0,0 UV-I 0 W/m² -4,0 °C -1,8 °C 22,5 km/h (4 Bft)
11.03.2019 06:14 2,1 °C 63 % 1016,3 hPa 0,0 mm 23,4 km/h (4 Bft) NW 323 ° 0 min 0,000 mm 0,0 UV-I 0 W/m² -4,2 °C -3,0 °C 38,6 km/h (5 Bft)
11.03.2019 06:15 2,2 °C 63 % 1016,3 hPa 0,0 mm 22,8 km/h (4 Bft) W 261 ° 0 min 0,000 mm 0,0 UV-I 0 W/m² -4,1 °C -2,8 °C 41,8 km/h (6 Bft)
11.03.2019 06:16 2,2 °C 63 % 1016,3 hPa 0,0 mm 15,8 km/h (3 Bft) SW 234 ° 0 min 0,000 mm 0,0 UV-I 0 W/m² -4,1 °C -1,8 °C 33,8 km/h (5 Bft)
11.03.2019 06:17 2,2 °C 63 % 1016,4 hPa 0,0 mm 23,3 km/h (4 Bft) W 275 ° 0 min 0,000 mm 0,0 UV-I 0 W/m² -4,1 °C -2,9 °C 35,4 km/h (5 Bft)
11.03.2019 06:18 2,3 °C 62 % 1016,3 hPa 0,0 mm 19,3 km/h (3 Bft) W 264 ° 0 min 0,000 mm 0,0 UV-I 0 W/m² -4,2 °C -2,2 °C 27,4 km/h (4 Bft)
11.03.2019 06:19 2,3 °C 62 % 1016,4 hPa 0,0 mm 19,8 km/h (3 Bft) W 261 ° 0 min 0,000 mm 0,0 UV-I 0 W/m² -4,2 °C -2,3 °C 27,4 km/h (4 Bft)
11.03.2019 06:20 2,3 °C 62 % 1016,3 hPa 0,0 mm 25,5 km/h (4 Bft) W 275 ° 0 min 0,000 mm 0,0 UV-I 0 W/m² -4,2 °C -3,0 °C 48,3 km/h (6 Bft)
11.03.2019 06:21 2,3 °C 61 % 1016,3 hPa 0,0 mm 32,9 km/h (5 Bft) W-SW 243 ° 0 min 0,000 mm 0,0 UV-I 0 W/m² -4,4 °C -3,7 °C 51,5 km/h (7 Bft)
11.03.2019 06:22 2,3 °C 61 % 1016,3 hPa 0,0 mm 23,6 km/h (4 Bft) W 267 ° 0 min 0,000 mm 0,0 UV-I 0 W/m² -4,4 °C -2,8 °C 30,6 km/h (5 Bft)
11.03.2019 06:23 2,3 °C 61 % 1016,2 hPa 0,0 mm 18,9 km/h (3 Bft) W 279 ° 0 min 0,000 mm 0,0 UV-I 0 W/m² -4,4 °C -2,2 °C 37,0 km/h (5 Bft)
11.03.2019 06:24 2,4 °C 61 % 1016,2 hPa 0,0 mm 24,7 km/h (4 Bft) W-NW 288 ° 0 min 0,000 mm 0,0 UV-I 0 W/m² -4,3 °C -2,8 °C 43,5 km/h (6 Bft)
11.03.2019 06:25 2,4 °C 61 % 1016,2 hPa 0,0 mm 18,9 km/h (3 Bft) W-SW 253 ° 0 min 0,000 mm 0,0 UV-I 0 W/m² -4,3 °C -2,1 °C 30,6 km/h (5 Bft)
11.03.2019 06:26 2,4 °C 61 % 1016,3 hPa 0,0 mm 21,4 km/h (4 Bft) SW 231 ° 0 min 0,000 mm 0,0 UV-I 0 W/m² -4,3 °C -2,4 °C 38,6 km/h (5 Bft)
11.03.2019 06:27 2,4 °C 61 % 1016,3 hPa 0,0 mm 18,1 km/h (3 Bft) W-NW 285 ° 0 min 0,000 mm 0,0 UV-I 0 W/m² -4,3 °C -1,9 °C 25,7 km/h (4 Bft)
11.03.2019 06:28 2,4 °C 61 % 1016,2 hPa 0,0 mm 21,1 km/h (4 Bft) W-SW 255 ° 0 min 0,000 mm 0,0 UV-I 0 W/m² -4,3 °C -2,4 °C 29,0 km/h (5 Bft)
11.03.2019 06:29 2,4 °C 61 % 1016,1 hPa 0,0 mm 17,4 km/h (3 Bft) W-SW 248 ° 0 min 0,000 mm 0,0 UV-I 0 W/m² -4,3 °C -1,8 °C 29,0 km/h (5 Bft)
11.03.2019 06:30 2,4 °C 61 % 1016,2 hPa 0,0 mm 13,9 km/h (3 Bft) W 262 ° 0 min 0,000 mm 0,0 UV-I 0 W/m² -4,3 °C -1,3 °C 29,0 km/h (5 Bft)
11.03.2019 06:31 2,4 °C 61 % 1016,2 hPa 0,0 mm 18,8 km/h (3 Bft) W 272 ° 0 min 0,000 mm 0,0 UV-I 0 W/m² -4,3 °C -2,0 °C 25,7 km/h (4 Bft)
11.03.2019 06:32 2,4 °C 60 % 1016,2 hPa 0,0 mm 23,0 km/h (4 Bft) NW 311 ° 0 min 0,000 mm 0,0 UV-I 0 W/m² -4,6 °C -2,6 °C 33,8 km/h (5 Bft)
11.03.2019 06:33 2,5 °C 60 % 1016,1 hPa 0,0 mm 19,8 km/h (3 Bft) W 271 ° 0 min 0,000 mm 0,0 UV-I 0 W/m² -4,5 °C -2,1 °C 37,0 km/h (5 Bft)
11.03.2019 06:34 2,5 °C 60 % 1016,1 hPa 0,0 mm 22,1 km/h (4 Bft) W 271 ° 0 min 0,000 mm 0,0 UV-I 0 W/m² -4,5 °C -2,4 °C 33,8 km/h (5 Bft)
11.03.2019 06:35 2,5 °C 60 % 1016,0 hPa 0,0 mm 18,5 km/h (3 Bft) W-SW 237 ° 0 min 0,000 mm 0,0 UV-I 0 W/m² -4,5 °C -1,9 °C 29,0 km/h (5 Bft)
11.03.2019 06:36 2,5 °C 60 % 1016,1 hPa 0,0 mm 24,7 km/h (4 Bft) W-NW 296 ° 0 min 0,000 mm 0,0 UV-I 0 W/m² -4,5 °C -2,7 °C 33,8 km/h (5 Bft)
11.03.2019 06:37 2,6 °C 60 % 1016,0 hPa 0,0 mm 22,2 km/h (4 Bft) W 263 ° 0 min 0,000 mm 0,0 UV-I 0 W/m² -4,4 °C -2,2 °C 35,4 km/h (5 Bft)
11.03.2019 06:38 2,6 °C 60 % 1016,0 hPa 0,0 mm 21,8 km/h (4 Bft) SW 224 ° 0 min 0,000 mm 0,0 UV-I 0 W/m² -4,4 °C -2,2 °C 38,6 km/h (5 Bft)
11.03.2019 06:39 2,6 °C 60 % 1015,8 hPa 0,0 mm 21,3 km/h (4 Bft) W 269 ° 0 min 0,000 mm 0,0 UV-I 0 W/m² -4,4 °C -2,1 °C 29,0 km/h (5 Bft)
11.03.2019 06:40 2,6 °C 60 % 1015,9 hPa 0,0 mm 23,1 km/h (4 Bft) W 273 ° 0 min 0,000 mm 0,0 UV-I 0 W/m² -4,4 °C -2,4 °C 43,5 km/h (6 Bft)
11.03.2019 06:41 2,6 °C 60 % 1016,0 hPa 0,0 mm 16,4 km/h (3 Bft) W-NW 282 ° 0 min 0,000 mm 0,0 UV-I 5 W/m² -4,4 °C -1,4 °C 25,7 km/h (4 Bft)
11.03.2019 06:42 2,6 °C 61 % 1016,0 hPa 0,0 mm 18,5 km/h (3 Bft) W 261 ° 0 min 0,000 mm 0,0 UV-I 5 W/m² -4,1 °C -1,8 °C 29,0 km/h (5 Bft)
11.03.2019 06:43 2,6 °C 60 % 1015,9 hPa 0,0 mm 16,2 km/h (3 Bft) W-NW 292 ° 0 min 0,000 mm 0,0 UV-I 7 W/m² -4,4 °C -1,4 °C 22,5 km/h (4 Bft)
11.03.2019 06:44 2,6 °C 60 % 1015,9 hPa 0,0 mm 15,7 km/h (3 Bft) W 260 ° 0 min 0,000 mm 0,0 UV-I 7 W/m² -4,4 °C -1,3 °C 20,9 km/h (4 Bft)
11.03.2019 06:45 2,6 °C 61 % 1015,9 hPa 0,0 mm 11,5 km/h (2 Bft) W-SW 243 ° 0 min 0,000 mm 0,0 UV-I 7 W/m² -4,1 °C -0,5 °C 20,9 km/h (4 Bft)
11.03.2019 06:46 2,6 °C 61 % 1015,9 hPa 0,0 mm 17,0 km/h (3 Bft) NW 313 ° 0 min 0,000 mm 0,0 UV-I 7 W/m² -4,1 °C -1,5 °C 29,0 km/h (5 Bft)
11.03.2019 06:47 2,6 °C 61 % 1015,8 hPa 0,0 mm 17,4 km/h (3 Bft) W-SW 248 ° 0 min 0,000 mm 0,0 UV-I 7 W/m² -4,1 °C -1,6 °C 29,0 km/h (5 Bft)
11.03.2019 06:48 2,6 °C 61 % 1015,8 hPa 0,0 mm 15,0 km/h (3 Bft) W 267 ° 0 min 0,000 mm 0,0 UV-I 7 W/m² -4,1 °C -1,2 °C 22,5 km/h (4 Bft)
11.03.2019 06:49 2,7 °C 61 % 1015,8 hPa 0,0 mm 18,0 km/h (3 Bft) W-NW 292 ° 0 min 0,000 mm 0,0 UV-I 7 W/m² -4,1 °C -1,6 °C 29,0 km/h (5 Bft)
11.03.2019 06:50 2,6 °C 61 % 1015,8 hPa 0,0 mm 18,4 km/h (3 Bft) W-NW 284 ° 0 min 0,000 mm 0,0 UV-I 7 W/m² -4,1 °C -1,7 °C 29,0 km/h (5 Bft)
11.03.2019 06:51 2,7 °C 60 % 1015,9 hPa 0,0 mm 20,9 km/h (4 Bft) NW 304 ° 0 min 0,000 mm 0,0 UV-I 7 W/m² -4,3 °C -2,0 °C 30,6 km/h (5 Bft)
11.03.2019 06:52 2,7 °C 61 % 1015,7 hPa 0,0 mm 17,7 km/h (3 Bft) SW 232 ° 0 min 0,000 mm 0,0 UV-I 7 W/m² -4,1 °C -1,5 °C 32,2 km/h (5 Bft)
11.03.2019 06:53 2,7 °C 61 % 1016,0 hPa 0,0 mm 21,6 km/h (4 Bft) W-SW 256 ° 0 min 0,000 mm 0,0 UV-I 7 W/m² -4,1 °C -2,0 °C 40,2 km/h (6 Bft)
11.03.2019 06:54 2,7 °C 61 % 1015,8 hPa 0,0 mm 15,2 km/h (3 Bft) W 277 ° 0 min 0,000 mm 0,0 UV-I 7 W/m² -4,1 °C -1,1 °C 20,9 km/h (4 Bft)
11.03.2019 06:55 2,7 °C 61 % 1015,8 hPa 0,0 mm 14,3 km/h (3 Bft) W-NW 297 ° 0 min 0,000 mm 0,0 UV-I 7 W/m² -4,1 °C -1,0 °C 22,5 km/h (4 Bft)
11.03.2019 06:56 2,7 °C 61 % 1015,8 hPa 0,0 mm 15,1 km/h (3 Bft) W 271 ° 0 min 0,000 mm 0,0 UV-I 7 W/m² -4,1 °C -1,1 °C 22,5 km/h (4 Bft)
11.03.2019 06:57 2,8 °C 61 % 1015,8 hPa 0,0 mm 20,9 km/h (4 Bft) W 277 ° 0 min 0,000 mm 0,0 UV-I 7 W/m² -4,0 °C -1,8 °C 33,8 km/h (5 Bft)
11.03.2019 06:58 2,8 °C 61 % 1015,9 hPa 0,0 mm 18,4 km/h (3 Bft) W-NW 294 ° 0 min 0,000 mm 0,0 UV-I 7 W/m² -4,0 °C -1,5 °C 27,4 km/h (4 Bft)
11.03.2019 06:59 2,8 °C 61 % 1015,9 hPa 0,0 mm 13,2 km/h (3 Bft) W 279 ° 0 min 0,000 mm 0,0 UV-I 9 W/m² -4,0 °C -0,6 °C 22,5 km/h (4 Bft)
11.03.2019 07:00 2,7 °C 61 % 1015,9 hPa 0,0 mm 15,0 km/h (3 Bft) W 281 ° 0 min 0,050 mm 0,0 UV-I 9 W/m² -4,1 °C -1,1 °C 24,1 km/h (4 Bft)
11.03.2019 07:01 2,8 °C 61 % 1015,9 hPa 0,0 mm 19,5 km/h (3 Bft) W 275 ° 0 min 0,000 mm 0,0 UV-I 9 W/m² -4,0 °C -1,6 °C 29,0 km/h (5 Bft)
11.03.2019 07:02 2,8 °C 62 % 1015,9 hPa 0,0 mm 24,1 km/h (4 Bft) W-SW 253 ° 0 min 0,000 mm 0,0 UV-I 11 W/m² -3,7 °C -2,2 °C 38,6 km/h (5 Bft)
11.03.2019 07:03 2,8 °C 62 % 1015,9 hPa 0,0 mm 21,2 km/h (4 Bft) W-SW 250 ° 0 min 0,000 mm 0,0 UV-I 11 W/m² -3,7 °C -1,9 °C 33,8 km/h (5 Bft)
11.03.2019 07:04 2,8 °C 62 % 1015,9 hPa 0,0 mm 17,9 km/h (3 Bft) W 273 ° 0 min 0,000 mm 0,0 UV-I 11 W/m² -3,7 °C -1,4 °C 30,6 km/h (5 Bft)
11.03.2019 07:05 2,8 °C 62 % 1015,9 hPa 0,0 mm 19,7 km/h (3 Bft) W-SW 249 ° 0 min 0,000 mm 0,0 UV-I 11 W/m² -3,7 °C -1,7 °C 35,4 km/h (5 Bft)
11.03.2019 07:06 2,8 °C 61 % 1015,8 hPa 0,0 mm 30,9 km/h (5 Bft) W-NW 290 ° 0 min 0,000 mm 0,0 UV-I 11 W/m² -4,0 °C -2,9 °C 43,5 km/h (6 Bft)
11.03.2019 07:07 2,8 °C 62 % 1015,8 hPa 0,0 mm 20,4 km/h (4 Bft) W 267 ° 0 min 0,000 mm 0,0 UV-I 12 W/m² -3,7 °C -1,8 °C 25,7 km/h (4 Bft)
11.03.2019 07:08 2,8 °C 61 % 1015,7 hPa 0,0 mm 14,4 km/h (3 Bft) W 261 ° 0 min 0,000 mm 0,0 UV-I 14 W/m² -4,0 °C -0,9 °C 22,5 km/h (4 Bft)
11.03.2019 07:09 2,8 °C 61 % 1015,7 hPa 0,0 mm 22,6 km/h (4 Bft) W 259 ° 0 min 0,000 mm 0,0 UV-I 14 W/m² -4,0 °C -2,0 °C 40,2 km/h (6 Bft)
11.03.2019 07:10 2,8 °C 61 % 1015,8 hPa 0,0 mm 15,8 km/h (3 Bft) W 266 ° 0 min 0,000 mm 0,0 UV-I 16 W/m² -4,0 °C -1,1 °C 24,1 km/h (4 Bft)
11.03.2019 07:11 2,8 °C 62 % 1015,7 hPa 0,0 mm 23,0 km/h (4 Bft) W-NW 296 ° 0 min 0,000 mm 0,0 UV-I 16 W/m² -3,7 °C -2,1 °C 29,0 km/h (5 Bft)
11.03.2019 07:12 2,8 °C 61 % 1015,7 hPa 0,0 mm 15,9 km/h (3 Bft) W 261 ° 0 min 0,000 mm 0,0 UV-I 18 W/m² -4,0 °C -1,1 °C 24,1 km/h (4 Bft)
11.03.2019 07:13 2,8 °C 61 % 1015,7 hPa 0,0 mm 11,9 km/h (2 Bft) W 275 ° 0 min 0,000 mm 0,0 UV-I 18 W/m² -4,0 °C -0,4 °C 16,1 km/h (3 Bft)
11.03.2019 07:14 2,8 °C 62 % 1015,6 hPa 0,0 mm 15,4 km/h (3 Bft) W 267 ° 0 min 0,000 mm 0,0 UV-I 19 W/m² -3,7 °C -1,0 °C 24,1 km/h (4 Bft)
11.03.2019 07:15 2,8 °C 62 % 1015,6 hPa 0,0 mm 14,3 km/h (3 Bft) W-SW 251 ° 0 min 0,000 mm 0,0 UV-I 19 W/m² -3,7 °C -0,8 °C 17,7 km/h (3 Bft)
11.03.2019 07:16 2,8 °C 62 % 1015,6 hPa 0,0 mm 9,7 km/h (2 Bft) W 269 ° 0 min 0,000 mm 0,0 UV-I 21 W/m² -3,7 °C 0,1 °C 12,9 km/h (3 Bft)
11.03.2019 07:17 2,8 °C 62 % 1015,6 hPa 0,0 mm 7,5 km/h (2 Bft) W-SW 257 ° 0 min 0,000 mm 0,0 UV-I 21 W/m² -3,7 °C 0,7 °C 14,5 km/h (3 Bft)
11.03.2019 07:18 2,8 °C 62 % 1015,6 hPa 0,0 mm 7,6 km/h (2 Bft) SW 220 ° 0 min 0,000 mm 0,0 UV-I 21 W/m² -3,7 °C 0,7 °C 11,3 km/h (2 Bft)
11.03.2019 07:19 2,8 °C 62 % 1015,5 hPa 0,0 mm 11,1 km/h (2 Bft) W 263 ° 0 min 0,000 mm 0,0 UV-I 23 W/m² -3,7 °C -0,2 °C 17,7 km/h (3 Bft)
11.03.2019 07:20 2,8 °C 62 % 1015,5 hPa 0,0 mm 9,0 km/h (2 Bft) W 265 ° 0 min 0,000 mm 0,0 UV-I 25 W/m² -3,7 °C 0,3 °C 16,1 km/h (3 Bft)
11.03.2019 07:21 2,8 °C 62 % 1015,6 hPa 0,0 mm 9,2 km/h (2 Bft) W 261 ° 0 min 0,000 mm 0,0 UV-I 25 W/m² -3,7 °C 0,2 °C 11,3 km/h (2 Bft)
11.03.2019 07:22 2,8 °C 62 % 1015,6 hPa 0,0 mm 9,2 km/h (2 Bft) W 267 ° 0 min 0,000 mm 0,0 UV-I 28 W/m² -3,7 °C 0,2 °C 17,7 km/h (3 Bft)
11.03.2019 07:23 2,8 °C 63 % 1015,6 hPa 0,0 mm 5,7 km/h (1 Bft) W 275 ° 0 min 0,000 mm 0,0 UV-I 30 W/m² -3,5 °C 1,3 °C 14,5 km/h (3 Bft)
11.03.2019 07:24 2,7 °C 63 % 1015,6 hPa 0,0 mm 8,0 km/h (2 Bft) W-NW 289 ° 0 min 0,000 mm 0,0 UV-I 28 W/m² -3,6 °C 0,4 °C 12,9 km/h (3 Bft)
11.03.2019 07:25 2,7 °C 64 % 1015,7 hPa 0,0 mm 14,5 km/h (3 Bft) W 273 ° 0 min 0,000 mm 0,0 UV-I 25 W/m² -3,4 °C -1,0 °C 24,1 km/h (4 Bft)
11.03.2019 07:26 2,7 °C 63 % 1015,7 hPa 0,0 mm 15,2 km/h (3 Bft) W-SW 249 ° 0 min 0,000 mm 0,0 UV-I 23 W/m² -3,6 °C -1,1 °C 24,1 km/h (4 Bft)
11.03.2019 07:27 2,7 °C 64 % 1015,7 hPa 0,0 mm 10,9 km/h (2 Bft) W-NW 294 ° 0 min 0,000 mm 0,0 UV-I 19 W/m² -3,4 °C -0,3 °C 14,5 km/h (3 Bft)
11.03.2019 07:28 2,7 °C 64 % 1015,8 hPa 0,0 mm 13,4 km/h (3 Bft) W-SW 241 ° 0 min 0,000 mm 0,0 UV-I 12 W/m² -3,4 °C -0,8 °C 20,9 km/h (4 Bft)
11.03.2019 07:29 2,7 °C 63 % 1015,8 hPa 0,0 mm 10,6 km/h (2 Bft) W 269 ° 0 min 0,000 mm 0,0 UV-I 12 W/m² -3,6 °C -0,2 °C 22,5 km/h (4 Bft)
11.03.2019 07:30 2,7 °C 64 % 1015,8 hPa 0,0 mm 8,0 km/h (2 Bft) W 259 ° 0 min 0,000 mm 0,0 UV-I 16 W/m² -3,4 °C 0,4 °C 17,7 km/h (3 Bft)
11.03.2019 07:31 2,7 °C 64 % 1015,9 hPa 0,0 mm 7,8 km/h (2 Bft) W 259 ° 0 min 0,000 mm 0,0 UV-I 21 W/m² -3,4 °C 0,5 °C 12,9 km/h (3 Bft)
11.03.2019 07:32 2,7 °C 64 % 1015,8 hPa 0,0 mm 8,9 km/h (2 Bft) W 268 ° 0 min 0,000 mm 0,0 UV-I 23 W/m² -3,4 °C 0,2 °C 19,3 km/h (3 Bft)
11.03.2019 07:33 2,7 °C 64 % 1015,8 hPa 0,0 mm 13,5 km/h (3 Bft) NW 323 ° 0 min 0,000 mm 0,0 UV-I 25 W/m² -3,4 °C -0,8 °C 22,5 km/h (4 Bft)
11.03.2019 07:34 2,7 °C 65 % 1015,9 hPa 0,0 mm 14,7 km/h (3 Bft) W 280 ° 0 min 0,000 mm 0,0 UV-I 30 W/m² -3,2 °C -1,0 °C 33,8 km/h (5 Bft)
11.03.2019 07:35 2,7 °C 65 % 1015,9 hPa 0,0 mm 16,8 km/h (3 Bft) W-SW 238 ° 0 min 0,000 mm 0,0 UV-I 30 W/m² -3,2 °C -1,4 °C 22,5 km/h (4 Bft)
11.03.2019 07:36 2,6 °C 65 % 1015,9 hPa 0,0 mm 15,3 km/h (3 Bft) W-NW 293 ° 0 min 0,000 mm 0,0 UV-I 32 W/m² -3,3 °C -1,3 °C 25,7 km/h (4 Bft)
11.03.2019 07:37 2,6 °C 65 % 1016,0 hPa 0,0 mm 18,8 km/h (3 Bft) W-SW 250 ° 0 min 0,000 mm 0,0 UV-I 37 W/m² -3,3 °C -1,8 °C 27,4 km/h (4 Bft)
11.03.2019 07:38 2,6 °C 66 % 1016,1 hPa 0,0 mm 21,8 km/h (4 Bft) W 267 ° 0 min 0,000 mm 0,0 UV-I 42 W/m² -3,1 °C -2,2 °C 35,4 km/h (5 Bft)
11.03.2019 07:39 2,6 °C 66 % 1016,1 hPa 0,0 mm 22,4 km/h (4 Bft) W-SW 250 ° 0 min 0,000 mm 0,0 UV-I 39 W/m² -3,1 °C -2,3 °C 29,0 km/h (5 Bft)
11.03.2019 07:40 2,6 °C 67 % 1016,2 hPa 0,0 mm 14,8 km/h (3 Bft) W-SW 245 ° 0 min 0,000 mm 0,0 UV-I 33 W/m² -2,9 °C -1,2 °C 22,5 km/h (4 Bft)
11.03.2019 07:41 2,5 °C 67 % 1016,1 hPa 0,0 mm 12,3 km/h (3 Bft) W 261 ° 0 min 0,000 mm 0,0 UV-I 33 W/m² -3,0 °C -0,8 °C 19,3 km/h (3 Bft)
11.03.2019 07:42 2,5 °C 67 % 1016,1 hPa 0,0 mm 17,6 km/h (3 Bft) W-SW 247 ° 0 min 0,000 mm 0,0 UV-I 33 W/m² -3,0 °C -1,7 °C 20,9 km/h (4 Bft)
11.03.2019 07:43 2,4 °C 68 % 1016,0 hPa 0,0 mm 15,6 km/h (3 Bft) W 270 ° 0 min 0,000 mm 0,0 UV-I 30 W/m² -2,9 °C -1,6 °C 20,9 km/h (4 Bft)
11.03.2019 07:44 2,4 °C 68 % 1016,0 hPa 0,0 mm 16,2 km/h (3 Bft) W 263 ° 0 min 0,000 mm 0,0 UV-I 26 W/m² -2,9 °C -1,7 °C 20,9 km/h (4 Bft)
11.03.2019 07:45 2,4 °C 68 % 1016,0 hPa 0,0 mm 17,2 km/h (3 Bft) W 261 ° 0 min 0,000 mm 0,0 UV-I 25 W/m² -2,9 °C -1,8 °C 24,1 km/h (4 Bft)
11.03.2019 07:46 2,4 °C 68 % 1016,1 hPa 0,0 mm 14,8 km/h (3 Bft) W-SW 239 ° 0 min 0,000 mm 0,0 UV-I 25 W/m² -2,9 °C -1,4 °C 24,1 km/h (4 Bft)
11.03.2019 07:47 2,4 °C 69 % 1016,1 hPa 0,0 mm 10,4 km/h (2 Bft) SW 227 ° 0 min 0,000 mm 0,0 UV-I 23 W/m² -2,7 °C -0,5 °C 19,3 km/h (3 Bft)
11.03.2019 07:48 2,4 °C 68 % 1015,9 hPa 0,0 mm 8,7 km/h (2 Bft) SW 224 ° 0 min 0,000 mm 0,0 UV-I 23 W/m² -2,9 °C -0,1 °C 12,9 km/h (3 Bft)
11.03.2019 07:49 2,4 °C 69 % 1015,9 hPa 0,0 mm 7,0 km/h (2 Bft) W-SW 252 ° 0 min 0,000 mm 0,0 UV-I 21 W/m² -2,7 °C 0,4 °C 11,3 km/h (2 Bft)
11.03.2019 07:50 2,3 °C 69 % 1015,9 hPa 0,0 mm 6,0 km/h (2 Bft) SW 234 ° 0 min 0,000 mm 0,0 UV-I 19 W/m² -2,8 °C 0,6 °C 9,7 km/h (2 Bft)
11.03.2019 07:51 2,3 °C 69 % 1015,9 hPa 0,0 mm 12,9 km/h (3 Bft) W-SW 242 ° 0 min 0,000 mm 0,0 UV-I 18 W/m² -2,8 °C -1,2 °C 17,7 km/h (3 Bft)
11.03.2019 07:52 2,3 °C 69 % 1015,9 hPa 0,0 mm 12,3 km/h (3 Bft) NW 309 ° 0 min 0,000 mm 0,0 UV-I 18 W/m² -2,8 °C -1,1 °C 17,7 km/h (3 Bft)
11.03.2019 07:53 2,3 °C 69 % 1016,0 hPa 0,0 mm 9,1 km/h (2 Bft) W-SW 242 ° 0 min 0,000 mm 0,0 UV-I 19 W/m² -2,8 °C -0,3 °C 12,9 km/h (3 Bft)
11.03.2019 07:54 2,3 °C 70 % 1016,1 hPa 0,0 mm 12,0 km/h (2 Bft) W-SW 248 ° 0 min 0,000 mm 0,0 UV-I 19 W/m² -2,6 °C -1,0 °C 16,1 km/h (3 Bft)
11.03.2019 07:55 2,3 °C 70 % 1016,1 hPa 0,0 mm 7,8 km/h (2 Bft) W-SW 242 ° 0 min 0,000 mm 0,0 UV-I 25 W/m² -2,6 °C 0,0 °C 14,5 km/h (3 Bft)
11.03.2019 07:56 2,3 °C 70 % 1016,1 hPa 0,0 mm 15,6 km/h (3 Bft) W 265 ° 0 min 0,000 mm 0,0 UV-I 35 W/m² -2,6 °C -1,7 °C 22,5 km/h (4 Bft)
11.03.2019 07:57 2,2 °C 71 % 1015,9 hPa 0,0 mm 12,7 km/h (3 Bft) W-SW 238 ° 0 min 0,000 mm 0,0 UV-I 42 W/m² -2,5 °C -1,3 °C 17,7 km/h (3 Bft)
11.03.2019 07:58 2,2 °C 71 % 1016,1 hPa 0,0 mm 8,8 km/h (2 Bft) W-SW 242 ° 0 min 0,000 mm 0,0 UV-I 44 W/m² -2,5 °C -0,4 °C 19,3 km/h (3 Bft)
11.03.2019 07:59 2,2 °C 71 % 1016,0 hPa 0,0 mm 16,3 km/h (3 Bft) W 281 ° 0 min 0,000 mm 0,0 UV-I 51 W/m² -2,5 °C -1,9 °C 24,1 km/h (4 Bft)
11.03.2019 08:00 2,2 °C 71 % 1015,9 hPa 0,0 mm 11,5 km/h (2 Bft) W-SW 238 ° 0 min 0,051 mm 0,0 UV-I 58 W/m² -2,5 °C -1,0 °C 20,9 km/h (4 Bft)
11.03.2019 08:01 2,2 °C 71 % 1015,8 hPa 0,0 mm 10,1 km/h (2 Bft) W-NW 298 ° 0 min 0,000 mm 0,0 UV-I 63 W/m² -2,5 °C -0,7 °C 17,7 km/h (3 Bft)
11.03.2019 08:02 2,2 °C 72 % 1015,8 hPa 0,0 mm 11,3 km/h (2 Bft) W-SW 251 ° 0 min 0,000 mm 0,0 UV-I 62 W/m² -2,3 °C -1,0 °C 16,1 km/h (3 Bft)
11.03.2019 08:03 2,2 °C 72 % 1015,8 hPa 0,0 mm 13,6 km/h (3 Bft) W-SW 242 ° 0 min 0,000 mm 0,0 UV-I 58 W/m² -2,3 °C -1,5 °C 19,3 km/h (3 Bft)
11.03.2019 08:04 2,2 °C 71 % 1015,8 hPa 0,0 mm 14,1 km/h (3 Bft) W 267 ° 0 min 0,000 mm 0,0 UV-I 63 W/m² -2,5 °C -1,5 °C 20,9 km/h (4 Bft)
11.03.2019 08:05 2,2 °C 71 % 1015,8 hPa 0,0 mm 17,1 km/h (3 Bft) S-SW 197 ° 0 min 0,000 mm 0,0 UV-I 67 W/m² -2,5 °C -2,0 °C 25,7 km/h (4 Bft)
11.03.2019 08:06 2,2 °C 71 % 1015,7 hPa 0,0 mm 8,4 km/h (2 Bft) W 264 ° 0 min 0,000 mm 0,0 UV-I 67 W/m² -2,5 °C -0,3 °C 12,9 km/h (3 Bft)
11.03.2019 08:07 2,2 °C 72 % 1015,7 hPa 0,0 mm 15,6 km/h (3 Bft) N-NW 330 ° 0 min 0,000 mm 0,0 UV-I 65 W/m² -2,3 °C -1,8 °C 22,5 km/h (4 Bft)
11.03.2019 08:08 2,2 °C 71 % 1015,4 hPa 0,0 mm 16,3 km/h (3 Bft) SW 217 ° 0 min 0,000 mm 0,0 UV-I 63 W/m² -2,5 °C -1,9 °C 24,1 km/h (4 Bft)
11.03.2019 08:09 2,2 °C 71 % 1015,7 hPa 0,0 mm 13,6 km/h (3 Bft) W 273 ° 0 min 0,000 mm 0,0 UV-I 49 W/m² -2,5 °C -1,5 °C 22,5 km/h (4 Bft)
11.03.2019 08:10 2,3 °C 70 % 1015,8 hPa 0,0 mm 21,9 km/h (4 Bft) W 279 ° 0 min 0,000 mm 0,0 UV-I 40 W/m² -2,6 °C -2,6 °C 27,4 km/h (4 Bft)
11.03.2019 08:11 2,3 °C 70 % 1015,8 hPa 0,0 mm 15,4 km/h (3 Bft) W-NW 294 ° 0 min 0,000 mm 0,0 UV-I 37 W/m² -2,6 °C -1,6 °C 24,1 km/h (4 Bft)
11.03.2019 08:12 2,3 °C 70 % 1015,8 hPa 0,0 mm 8,6 km/h (2 Bft) S-SW 192 ° 0 min 0,000 mm 0,0 UV-I 35 W/m² -2,6 °C -0,2 °C 16,1 km/h (3 Bft)
11.03.2019 08:13 2,3 °C 70 % 1015,8 hPa 0,0 mm 14,6 km/h (3 Bft) W 264 ° 0 min 0,000 mm 0,0 UV-I 33 W/m² -2,6 °C -1,5 °C 29,0 km/h (5 Bft)
11.03.2019 08:14 2,3 °C 69 % 1015,9 hPa 0,0 mm 16,8 km/h (3 Bft) W-SW 257 ° 0 min 0,000 mm 0,0 UV-I 35 W/m² -2,8 °C -1,9 °C 25,7 km/h (4 Bft)
11.03.2019 08:15 2,4 °C 69 % 1016,0 hPa 0,0 mm 19,5 km/h (3 Bft) W 267 ° 0 min 0,000 mm 0,0 UV-I 39 W/m² -2,7 °C -2,1 °C 27,4 km/h (4 Bft)
11.03.2019 08:16 2,3 °C 69 % 1016,1 hPa 0,0 mm 15,4 km/h (3 Bft) W 273 ° 0 min 0,000 mm 0,0 UV-I 37 W/m² -2,8 °C -1,6 °C 24,1 km/h (4 Bft)
11.03.2019 08:17 2,4 °C 70 % 1016,1 hPa 0,0 mm 15,0 km/h (3 Bft) W 264 ° 0 min 0,000 mm 0,0 UV-I 33 W/m² -2,5 °C -1,5 °C 20,9 km/h (4 Bft)
11.03.2019 08:18 2,3 °C 70 % 1016,1 hPa 0,0 mm 10,9 km/h (2 Bft) W-NW 285 ° 0 min 0,000 mm 0,0 UV-I 33 W/m² -2,6 °C -0,8 °C 16,1 km/h (3 Bft)
11.03.2019 08:19 2,3 °C 71 % 1016,0 hPa 0,0 mm 12,1 km/h (2 Bft) S-SW 194 ° 0 min 0,000 mm 0,0 UV-I 28 W/m² -2,4 °C -1,0 °C 16,1 km/h (3 Bft)
11.03.2019 08:20 2,3 °C 71 % 1016,0 hPa 0,0 mm 17,1 km/h (3 Bft) W 261 ° 0 min 0,000 mm 0,0 UV-I 25 W/m² -2,4 °C -1,9 °C 30,6 km/h (5 Bft)
11.03.2019 08:21 2,3 °C 71 % 1016,1 hPa 0,0 mm 15,5 km/h (3 Bft) W 278 ° 0 min 0,000 mm 0,0 UV-I 32 W/m² -2,4 °C -1,7 °C 22,5 km/h (4 Bft)
11.03.2019 08:22 2,2 °C 72 % 1016,3 hPa 0,0 mm 12,5 km/h (3 Bft) SW 232 ° 0 min 0,000 mm 0,0 UV-I 40 W/m² -2,3 °C -1,2 °C 27,4 km/h (4 Bft)
11.03.2019 08:23 2,2 °C 72 % 1016,1 hPa 0,0 mm 18,2 km/h (3 Bft) W 262 ° 0 min 0,000 mm 0,0 UV-I 46 W/m² -2,3 °C -2,2 °C 25,7 km/h (4 Bft)
11.03.2019 08:24 2,2 °C 73 % 1016,1 hPa 0,0 mm 23,5 km/h (4 Bft) W-SW 238 ° 0 min 0,000 mm 0,0 UV-I 47 W/m² -2,1 °C -2,9 °C 49,9 km/h (6 Bft)
11.03.2019 08:25 2,1 °C 73 % 1016,2 hPa 0,0 mm 22,5 km/h (4 Bft) W-SW 255 ° 0 min 0,000 mm 0,0 UV-I 49 W/m² -2,2 °C -2,9 °C 41,8 km/h (6 Bft)
11.03.2019 08:26 2,1 °C 72 % 1015,9 hPa 0,0 mm 31,5 km/h (5 Bft) W 262 ° 0 min 0,000 mm 0,0 UV-I 51 W/m² -2,4 °C -3,9 °C 46,7 km/h (6 Bft)
11.03.2019 08:27 2,1 °C 72 % 1015,9 hPa 0,0 mm 18,9 km/h (3 Bft) W-NW 289 ° 0 min 0,000 mm 0,0 UV-I 49 W/m² -2,4 °C -2,4 °C 29,0 km/h (5 Bft)
11.03.2019 08:28 2,1 °C 73 % 1016,1 hPa 0,0 mm 8,9 km/h (2 Bft) W-SW 255 ° 0 min 0,000 mm 0,0 UV-I 47 W/m² -2,2 °C -0,5 °C 16,1 km/h (3 Bft)
11.03.2019 08:29 2,1 °C 73 % 1016,0 hPa 0,0 mm 8,9 km/h (2 Bft) W 279 ° 0 min 0,000 mm 0,0 UV-I 51 W/m² -2,2 °C -0,5 °C 17,7 km/h (3 Bft)
11.03.2019 08:30 2,1 °C 73 % 1015,9 hPa 0,0 mm 11,3 km/h (2 Bft) W 265 ° 0 min 0,000 mm 0,6 UV-I 63 W/m² -2,2 °C -1,1 °C 17,7 km/h (3 Bft)
11.03.2019 08:31 2,1 °C 73 % 1015,9 hPa 0,0 mm 13,0 km/h (3 Bft) W 262 ° 0 min 0,000 mm 0,7 UV-I 77 W/m² -2,2 °C -1,5 °C 25,7 km/h (4 Bft)
11.03.2019 08:32 2,1 °C 73 % 1016,0 hPa 0,0 mm 19,0 km/h (3 Bft) W-SW 252 ° 0 min 0,000 mm 0,7 UV-I 70 W/m² -2,2 °C -2,5 °C 25,7 km/h (4 Bft)
11.03.2019 08:33 2,1 °C 73 % 1015,8 hPa 0,0 mm 13,7 km/h (3 Bft) W-NW 282 ° 0 min 0,000 mm 0,7 UV-I 104 W/m² -2,2 °C -1,6 °C 19,3 km/h (3 Bft)
11.03.2019 08:34 2,1 °C 73 % 1015,8 hPa 0,0 mm 13,8 km/h (3 Bft) W 271 ° 0 min 0,000 mm 0,8 UV-I 113 W/m² -2,2 °C -1,6 °C 17,7 km/h (3 Bft)
11.03.2019 08:35 2,1 °C 73 % 1015,8 hPa 0,0 mm 12,9 km/h (3 Bft) W 261 ° 0 min 0,000 mm 0,8 UV-I 98 W/m² -2,2 °C -1,4 °C 24,1 km/h (4 Bft)
11.03.2019 08:36 2,1 °C 72 % 1015,8 hPa 0,0 mm 16,9 km/h (3 Bft) W 263 ° 0 min 0,000 mm 0,8 UV-I 116 W/m² -2,4 °C -2,1 °C 25,7 km/h (4 Bft)
11.03.2019 08:37 2,2 °C 72 % 1015,8 hPa 0,0 mm 10,6 km/h (2 Bft) W 263 ° 0 min 0,000 mm 0,9 UV-I 141 W/m² -2,3 °C -0,8 °C 17,7 km/h (3 Bft)
11.03.2019 08:38 2,3 °C 72 % 1015,8 hPa 0,0 mm 12,4 km/h (3 Bft) W 261 ° 0 min 0,000 mm 0,9 UV-I 185 W/m² -2,2 °C -1,1 °C 14,5 km/h (3 Bft)
11.03.2019 08:39 2,3 °C 73 % 1015,9 hPa 0,0 mm 12,7 km/h (3 Bft) W 269 ° 0 min 0,000 mm 0,8 UV-I 163 W/m² -2,0 °C -1,2 °C 17,7 km/h (3 Bft)
11.03.2019 08:40 2,3 °C 72 % 1015,8 hPa 0,0 mm 8,9 km/h (2 Bft) W 279 ° 0 min 0,000 mm 0,7 UV-I 141 W/m² -2,2 °C -0,3 °C 16,1 km/h (3 Bft)
11.03.2019 08:41 2,3 °C 73 % 1015,8 hPa 0,0 mm 14,8 km/h (3 Bft) W 269 ° 0 min 0,000 mm 0,6 UV-I 114 W/m² -2,0 °C -1,5 °C 22,5 km/h (4 Bft)
11.03.2019 08:42 2,4 °C 71 % 1015,9 hPa 0,0 mm 18,6 km/h (3 Bft) W-SW 249 ° 0 min 0,000 mm 0,5 UV-I 86 W/m² -2,3 °C -2,0 °C 30,6 km/h (5 Bft)
11.03.2019 08:43 2,4 °C 71 % 1015,9 hPa 0,0 mm 17,6 km/h (3 Bft) W-SW 257 ° 0 min 0,000 mm 0,5 UV-I 74 W/m² -2,3 °C -1,9 °C 29,0 km/h (5 Bft)
11.03.2019 08:44 2,4 °C 70 % 1015,9 hPa 0,0 mm 22,5 km/h (4 Bft) W-NW 284 ° 0 min 0,000 mm 0,5 UV-I 63 W/m² -2,5 °C -2,5 °C 37,0 km/h (5 Bft)
11.03.2019 08:45 2,5 °C 70 % 1015,9 hPa 0,0 mm 12,4 km/h (3 Bft) W 260 ° 0 min 0,000 mm 0,7 UV-I 91 W/m² -2,4 °C -0,9 °C 19,3 km/h (3 Bft)
11.03.2019 08:46 2,6 °C 70 % 1015,9 hPa 0,0 mm 12,3 km/h (3 Bft) W 269 ° 0 min 0,000 mm 0,8 UV-I 123 W/m² -2,3 °C -0,7 °C 17,7 km/h (3 Bft)
11.03.2019 08:47 2,6 °C 70 % 1015,9 hPa 0,0 mm 11,3 km/h (2 Bft) W-SW 257 ° 0 min 0,000 mm 0,8 UV-I 130 W/m² -2,3 °C -0,5 °C 16,1 km/h (3 Bft)
11.03.2019 08:48 2,6 °C 70 % 1015,9 hPa 0,0 mm 8,5 km/h (2 Bft) W-NW 285 ° 0 min 0,000 mm 0,7 UV-I 148 W/m² -2,3 °C 0,2 °C 12,9 km/h (3 Bft)
11.03.2019 08:49 2,7 °C 70 % 1015,9 hPa 0,0 mm 11,7 km/h (2 Bft) W-SW 255 ° 0 min 0,000 mm 0,6 UV-I 114 W/m² -2,2 °C -0,5 °C 19,3 km/h (3 Bft)
11.03.2019 08:50 2,7 °C 70 % 1015,9 hPa 0,0 mm 15,9 km/h (3 Bft) W-NW 285 ° 0 min 0,000 mm 0,7 UV-I 114 W/m² -2,2 °C -1,2 °C 24,1 km/h (4 Bft)
11.03.2019 08:51 2,7 °C 70 % 1015,9 hPa 0,0 mm 17,7 km/h (3 Bft) W-SW 244 ° 0 min 0,000 mm 0,7 UV-I 120 W/m² -2,2 °C -1,5 °C 25,7 km/h (4 Bft)
11.03.2019 08:52 2,7 °C 70 % 1016,0 hPa 0,0 mm 20,3 km/h (4 Bft) W 271 ° 0 min 0,000 mm 0,7 UV-I 107 W/m² -2,2 °C -1,9 °C 27,4 km/h (4 Bft)
11.03.2019 08:53 2,7 °C 69 % 1016,1 hPa 0,0 mm 16,6 km/h (3 Bft) W-NW 284 ° 0 min 0,000 mm 0,8 UV-I 116 W/m² -2,4 °C -1,3 °C 22,5 km/h (4 Bft)
11.03.2019 08:54 2,7 °C 70 % 1015,9 hPa 0,0 mm 11,4 km/h (2 Bft) W-SW 240 ° 0 min 0,000 mm 0,8 UV-I 137 W/m² -2,2 °C -0,4 °C 16,1 km/h (3 Bft)
11.03.2019 08:55 2,7 °C 70 % 1016,2 hPa 0,0 mm 18,9 km/h (3 Bft) W 273 ° 0 min 0,000 mm 0,9 UV-I 193 W/m² -2,2 °C -1,7 °C 25,7 km/h (4 Bft)
11.03.2019 08:56 2,8 °C 70 % 1016,1 hPa 0,0 mm 18,2 km/h (3 Bft) W 280 ° 0 min 0,000 mm 0,7 UV-I 132 W/m² -2,1 °C -1,5 °C 27,4 km/h (4 Bft)
11.03.2019 08:57 2,8 °C 70 % 1016,1 hPa 0,0 mm 19,9 km/h (4 Bft) NW 309 ° 0 min 0,000 mm 0,8 UV-I 144 W/m² -2,1 °C -1,7 °C 33,8 km/h (5 Bft)
11.03.2019 08:58 2,8 °C 70 % 1016,2 hPa 0,0 mm 22,3 km/h (4 Bft) NW 310 ° 0 min 0,000 mm 0,8 UV-I 148 W/m² -2,1 °C -2,0 °C 35,4 km/h (5 Bft)
11.03.2019 08:59 2,8 °C 69 % 1015,9 hPa 0,0 mm 18,2 km/h (3 Bft) W-NW 296 ° 0 min 0,000 mm 0,8 UV-I 162 W/m² -2,3 °C -1,5 °C 25,7 km/h (4 Bft)
11.03.2019 09:00 2,8 °C 69 % 1016,1 hPa 0,0 mm 17,0 km/h (3 Bft) W-NW 290 ° 0 min 0,076 mm 0,7 UV-I 137 W/m² -2,3 °C -1,3 °C 24,1 km/h (4 Bft)
11.03.2019 09:01 2,8 °C 69 % 1016,2 hPa 0,0 mm 20,0 km/h (4 Bft) NW 306 ° 0 min 0,000 mm 0,7 UV-I 130 W/m² -2,3 °C -1,7 °C 33,8 km/h (5 Bft)
11.03.2019 09:02 2,8 °C 69 % 1016,1 hPa 0,0 mm 20,0 km/h (4 Bft) W 264 ° 0 min 0,000 mm 0,7 UV-I 135 W/m² -2,3 °C -1,7 °C 33,8 km/h (5 Bft)
11.03.2019 09:03 2,8 °C 70 % 1016,1 hPa 0,0 mm 14,5 km/h (3 Bft) W 278 ° 0 min 0,000 mm 0,7 UV-I 144 W/m² -2,1 °C -0,9 °C 20,9 km/h (4 Bft)
11.03.2019 09:04 2,8 °C 70 % 1016,1 hPa 0,0 mm 13,9 km/h (3 Bft) SW 229 ° 0 min 0,000 mm 0,8 UV-I 158 W/m² -2,1 °C -0,8 °C 24,1 km/h (4 Bft)
11.03.2019 09:05 2,8 °C 70 % 1016,2 hPa 0,0 mm 13,1 km/h (3 Bft) W 270 ° 0 min 0,000 mm 0,7 UV-I 146 W/m² -2,1 °C -0,6 °C 20,9 km/h (4 Bft)
11.03.2019 09:06 2,8 °C 70 % 1016,1 hPa 0,0 mm 14,4 km/h (3 Bft) W-NW 286 ° 0 min 0,000 mm 0,6 UV-I 113 W/m² -2,1 °C -0,9 °C 22,5 km/h (4 Bft)
11.03.2019 09:07 2,8 °C 70 % 1016,1 hPa 0,0 mm 17,9 km/h (3 Bft) W 281 ° 0 min 0,000 mm 0,5 UV-I 102 W/m² -2,1 °C -1,4 °C 25,7 km/h (4 Bft)
11.03.2019 09:08 2,8 °C 69 % 1016,1 hPa 0,0 mm 15,0 km/h (3 Bft) W 263 ° 0 min 0,000 mm 0,6 UV-I 116 W/m² -2,3 °C -1,0 °C 27,4 km/h (4 Bft)
11.03.2019 09:09 2,8 °C 70 % 1016,1 hPa 0,0 mm 10,8 km/h (2 Bft) W-NW 298 ° 0 min 0,000 mm 0,8 UV-I 134 W/m² -2,1 °C -0,2 °C 16,1 km/h (3 Bft)
11.03.2019 09:10 2,8 °C 70 % 1015,9 hPa 0,0 mm 12,2 km/h (2 Bft) W 274 ° 0 min 0,000 mm 0,7 UV-I 128 W/m² -2,1 °C -0,4 °C 16,1 km/h (3 Bft)
11.03.2019 09:11 2,8 °C 70 % 1016,0 hPa 0,0 mm 12,9 km/h (3 Bft) W 277 ° 0 min 0,000 mm 0,6 UV-I 114 W/m² -2,1 °C -0,6 °C 16,1 km/h (3 Bft)
11.03.2019 09:12 2,8 °C 70 % 1016,0 hPa 0,0 mm 11,9 km/h (2 Bft) W 273 ° 0 min 0,000 mm 0,6 UV-I 100 W/m² -2,1 °C -0,4 °C 17,7 km/h (3 Bft)
11.03.2019 09:13 2,8 °C 69 % 1016,0 hPa 0,0 mm 13,2 km/h (3 Bft) W 269 ° 0 min 0,000 mm 0,5 UV-I 93 W/m² -2,3 °C -0,6 °C 22,5 km/h (4 Bft)
11.03.2019 09:14 2,8 °C 70 % 1015,9 hPa 0,0 mm 16,2 km/h (3 Bft) W-SW 258 ° 0 min 0,000 mm 0,0 UV-I 72 W/m² -2,1 °C -1,2 °C 30,6 km/h (5 Bft)
11.03.2019 09:15 2,7 °C 70 % 1015,9 hPa 0,0 mm 18,8 km/h (3 Bft) W-NW 293 ° 0 min 0,000 mm 0,0 UV-I 67 W/m² -2,2 °C -1,7 °C 30,6 km/h (5 Bft)
11.03.2019 09:16 2,8 °C 69 % 1015,9 hPa 0,0 mm 21,6 km/h (4 Bft) W 261 ° 0 min 0,000 mm 0,5 UV-I 76 W/m² -2,3 °C -1,9 °C 30,6 km/h (5 Bft)
11.03.2019 09:17 2,7 °C 69 % 1016,3 hPa 0,0 mm 24,1 km/h (4 Bft) W 267 ° 0 min 0,000 mm 0,6 UV-I 90 W/m² -2,4 °C -2,3 °C 35,4 km/h (5 Bft)
11.03.2019 09:18 2,7 °C 70 % 1016,1 hPa 0,0 mm 19,2 km/h (3 Bft) SW 228 ° 0 min 0,000 mm 0,6 UV-I 93 W/m² -2,2 °C -1,7 °C 29,0 km/h (5 Bft)
11.03.2019 09:19 2,7 °C 70 % 1016,1 hPa 0,0 mm 14,7 km/h (3 Bft) W-SW 249 ° 0 min 0,000 mm 0,5 UV-I 84 W/m² -2,2 °C -1,0 °C 25,7 km/h (4 Bft)
11.03.2019 09:20 2,7 °C 70 % 1016,2 hPa 0,0 mm 12,4 km/h (3 Bft) W 265 ° 0 min 0,000 mm 0,5 UV-I 91 W/m² -2,2 °C -0,6 °C 22,5 km/h (4 Bft)
11.03.2019 09:21 2,7 °C 71 % 1016,2 hPa 0,0 mm 20,0 km/h (4 Bft) W-SW 237 ° 0 min 0,000 mm 0,5 UV-I 93 W/m² -2,0 °C -1,8 °C 25,7 km/h (4 Bft)
11.03.2019 09:22 2,7 °C 70 % 1016,2 hPa 0,0 mm 17,4 km/h (3 Bft) W-SW 237 ° 0 min 0,000 mm 0,5 UV-I 90 W/m² -2,2 °C -1,5 °C 27,4 km/h (4 Bft)
11.03.2019 09:23 2,7 °C 71 % 1016,2 hPa 0,0 mm 17,6 km/h (3 Bft) W-SW 254 ° 0 min 0,000 mm 0,5 UV-I 100 W/m² -2,0 °C -1,5 °C 27,4 km/h (4 Bft)
11.03.2019 09:24 2,7 °C 71 % 1016,0 hPa 0,0 mm 17,6 km/h (3 Bft) W 266 ° 0 min 0,000 mm 0,0 UV-I 77 W/m² -2,0 °C -1,5 °C 24,1 km/h (4 Bft)
11.03.2019 09:25 2,7 °C 71 % 1016,2 hPa 0,0 mm 17,4 km/h (3 Bft) W 259 ° 0 min 0,000 mm 0,0 UV-I 76 W/m² -2,0 °C -1,5 °C 25,7 km/h (4 Bft)
11.03.2019 09:26 2,6 °C 72 % 1016,2 hPa 0,0 mm 15,2 km/h (3 Bft) W-SW 249 ° 0 min 0,000 mm 0,0 UV-I 70 W/m² -1,9 °C -1,2 °C 24,1 km/h (4 Bft)
11.03.2019 09:27 2,6 °C 72 % 1016,2 hPa 0,0 mm 17,4 km/h (3 Bft) S-SW 205 ° 0 min 0,000 mm 0,0 UV-I 54 W/m² -1,9 °C -1,6 °C 29,0 km/h (5 Bft)
11.03.2019 09:28 2,6 °C 72 % 1016,2 hPa 0,0 mm 12,7 km/h (3 Bft) SW 234 ° 0 min 0,000 mm 0,0 UV-I 53 W/m² -1,9 °C -0,8 °C 17,7 km/h (3 Bft)
11.03.2019 09:29 2,6 °C 72 % 1016,2 hPa 0,0 mm 16,9 km/h (3 Bft) W-SW 245 ° 0 min 0,000 mm 0,0 UV-I 54 W/m² -1,9 °C -1,5 °C 22,5 km/h (4 Bft)
11.03.2019 09:30 2,6 °C 72 % 1016,2 hPa 0,0 mm 21,4 km/h (4 Bft) W 264 ° 0 min 0,000 mm 0,0 UV-I 67 W/m² -1,9 °C -2,1 °C 27,4 km/h (4 Bft)
11.03.2019 09:31 2,5 °C 72 % 1016,2 hPa 0,0 mm 19,6 km/h (3 Bft) W-SW 256 ° 0 min 0,000 mm 0,5 UV-I 77 W/m² -2,0 °C -2,0 °C 37,0 km/h (5 Bft)
11.03.2019 09:32 2,5 °C 72 % 1016,2 hPa 0,0 mm 20,9 km/h (4 Bft) W-NW 283 ° 0 min 0,000 mm 0,0 UV-I 65 W/m² -2,0 °C -2,2 °C 29,0 km/h (5 Bft)
11.03.2019 09:33 2,5 °C 72 % 1016,2 hPa 0,0 mm 15,7 km/h (3 Bft) W-SW 257 ° 0 min 0,000 mm 0,0 UV-I 58 W/m² -2,0 °C -1,5 °C 24,1 km/h (4 Bft)
11.03.2019 09:34 2,5 °C 72 % 1016,2 hPa 0,0 mm 13,9 km/h (3 Bft) W 277 ° 0 min 0,000 mm 0,0 UV-I 67 W/m² -2,0 °C -1,1 °C 24,1 km/h (4 Bft)
11.03.2019 09:35 2,5 °C 72 % 1016,2 hPa 0,0 mm 18,8 km/h (3 Bft) W-NW 303 ° 0 min 0,000 mm 0,5 UV-I 67 W/m² -2,0 °C -1,9 °C 27,4 km/h (4 Bft)
11.03.2019 09:36 2,5 °C 72 % 1016,3 hPa 0,0 mm 20,6 km/h (4 Bft) W-NW 303 ° 0 min 0,000 mm 0,5 UV-I 93 W/m² -2,0 °C -2,2 °C 35,4 km/h (5 Bft)
11.03.2019 09:37 2,5 °C 72 % 1016,3 hPa 0,0 mm 18,7 km/h (3 Bft) W 281 ° 0 min 0,000 mm 0,5 UV-I 77 W/m² -2,0 °C -1,9 °C 24,1 km/h (4 Bft)
11.03.2019 09:38 2,6 °C 72 % 1016,4 hPa 0,0 mm 16,0 km/h (3 Bft) NW 304 ° 0 min 0,000 mm 0,6 UV-I 90 W/m² -1,9 °C -1,4 °C 24,1 km/h (4 Bft)
11.03.2019 09:39 2,6 °C 73 % 1016,4 hPa 0,0 mm 21,4 km/h (4 Bft) W 279 ° 0 min 0,000 mm 0,5 UV-I 91 W/m² -1,7 °C -2,1 °C 35,4 km/h (5 Bft)
11.03.2019 09:40 2,5 °C 73 % 1016,4 hPa 0,0 mm 30,0 km/h (5 Bft) W-NW 282 ° 0 min 0,000 mm 0,0 UV-I 69 W/m² -1,8 °C -3,2 °C 48,3 km/h (6 Bft)
11.03.2019 09:41 2,6 °C 72 % 1016,5 hPa 0,0 mm 17,9 km/h (3 Bft) W-SW 256 ° 0 min 0,000 mm 0,0 UV-I 69 W/m² -1,9 °C -1,7 °C 30,6 km/h (5 Bft)
11.03.2019 09:42 2,5 °C 73 % 1016,5 hPa 0,0 mm 18,4 km/h (3 Bft) W 277 ° 0 min 0,000 mm 0,5 UV-I 77 W/m² -1,8 °C -1,9 °C 25,7 km/h (4 Bft)
11.03.2019 09:43 2,5 °C 72 % 1016,3 hPa 0,0 mm 19,4 km/h (3 Bft) W-NW 284 ° 0 min 0,000 mm 0,5 UV-I 116 W/m² -2,0 °C -2,0 °C 29,0 km/h (5 Bft)
11.03.2019 09:44 2,5 °C 72 % 1016,4 hPa 0,0 mm 15,6 km/h (3 Bft) NW 319 ° 0 min 0,000 mm 1,1 UV-I 165 W/m² -2,0 °C -1,4 °C 24,1 km/h (4 Bft)
11.03.2019 09:45 2,6 °C 73 % 1016,4 hPa 0,0 mm 12,7 km/h (3 Bft) SW 229 ° 0 min 0,000 mm 1,0 UV-I 174 W/m² -1,7 °C -0,8 °C 17,7 km/h (3 Bft)
11.03.2019 09:46 2,6 °C 73 % 1016,3 hPa 0,0 mm 17,2 km/h (3 Bft) W 281 ° 0 min 0,000 mm 0,8 UV-I 146 W/m² -1,7 °C -1,6 °C 25,7 km/h (4 Bft)
11.03.2019 09:47 2,6 °C 73 % 1016,2 hPa 0,0 mm 13,5 km/h (3 Bft) W-NW 285 ° 0 min 0,000 mm 0,6 UV-I 116 W/m² -1,7 °C -0,9 °C 20,9 km/h (4 Bft)
11.03.2019 09:48 2,6 °C 72 % 1016,8 hPa 0,0 mm 17,6 km/h (3 Bft) W-NW 284 ° 0 min 0,000 mm 0,0 UV-I 37 W/m² -1,9 °C -1,6 °C 32,2 km/h (5 Bft)
11.03.2019 09:49 2,6 °C 73 % 1016,8 hPa 0,0 mm 34,3 km/h (5 Bft) W 279 ° 0 min 0,000 mm 0,0 UV-I 7 W/m² -1,7 °C -3,5 °C 59,5 km/h (7 Bft)
11.03.2019 09:50 2,3 °C 75 % 1016,8 hPa 0,0 mm 40,7 km/h (6 Bft) W-NW 296 ° 0 min 0,000 mm 0,0 UV-I 7 W/m² -1,7 °C -4,4 °C 54,7 km/h (7 Bft)
11.03.2019 09:51 1,9 °C 78 % 1018,0 hPa 0,0 mm 34,6 km/h (5 Bft) W 280 ° 0 min 0,000 mm 0,0 UV-I 7 W/m² -1,5 °C -4,4 °C 53,1 km/h (7 Bft)
11.03.2019 09:52 1,4 °C 80 % 1018,1 hPa 0,0 mm 28,4 km/h (4 Bft) N-NW 328 ° 0 min 0,000 mm 0,0 UV-I 11 W/m² -1,7 °C -4,5 °C 41,8 km/h (6 Bft)
11.03.2019 09:53 1,1 °C 81 % 1017,9 hPa 0,0 mm 24,3 km/h (4 Bft) W 277 ° 0 min 0,000 mm 0,0 UV-I 12 W/m² -1,8 °C -4,4 °C 35,4 km/h (5 Bft)
11.03.2019 09:54 0,8 °C 82 % 1017,8 hPa 0,0 mm 19,5 km/h (3 Bft) W-NW 300 ° 0 min 0,000 mm 0,0 UV-I 16 W/m² -1,9 °C -4,2 °C 27,4 km/h (4 Bft)
11.03.2019 09:55 0,4 °C 83 % 1018,0 hPa 0,0 mm 23,7 km/h (4 Bft) W-NW 298 ° 0 min 0,000 mm 0,0 UV-I 21 W/m² -2,1 °C -5,2 °C 37,0 km/h (5 Bft)
11.03.2019 09:56 0,1 °C 83 % 1018,0 hPa 0,0 mm 34,2 km/h (5 Bft) W 281 ° 0 min 0,000 mm 0,0 UV-I 26 W/m² -2,4 °C -6,8 °C 45,1 km/h (6 Bft)
11.03.2019 09:57 -0,2 °C 84 % 1018,0 hPa 0,0 mm 29,9 km/h (5 Bft) W-SW 244 ° 0 min 0,000 mm 0,0 UV-I 32 W/m² -2,6 °C -6,7 °C 51,5 km/h (7 Bft)
11.03.2019 09:58 -0,4 °C 85 % 1018,1 hPa 0,0 mm 28,5 km/h (4 Bft) W-NW 296 ° 0 min 0,000 mm 0,0 UV-I 32 W/m² -2,6 °C -6,8 °C 45,1 km/h (6 Bft)
11.03.2019 09:59 -0,6 °C 86 % 1018,0 hPa 0,0 mm 24,6 km/h (4 Bft) NW 311 ° 0 min 0,000 mm 0,0 UV-I 32 W/m² -2,6 °C -6,6 °C 33,8 km/h (5 Bft)
11.03.2019 10:00 -0,8 °C 86 % 1018,1 hPa 0,0 mm 25,9 km/h (4 Bft) W-NW 293 ° 0 min 0,000 mm 0,0 UV-I 42 W/m² -2,8 °C -7,0 °C 40,2 km/h (6 Bft)
11.03.2019 10:01 -0,9 °C 86 % 1018,2 hPa 0,0 mm 21,7 km/h (4 Bft) W-SW 246 ° 0 min 0,077 mm 0,0 UV-I 42 W/m² -2,9 °C -6,6 °C 40,2 km/h (6 Bft)
11.03.2019 10:02 -0,9 °C 87 % 1018,1 hPa 0,0 mm 16,0 km/h (3 Bft) W-NW 293 ° 0 min 0,000 mm 0,0 UV-I 47 W/m² -2,8 °C -5,7 °C 20,9 km/h (4 Bft)
11.03.2019 10:03 -1,1 °C 87 % 1018,2 hPa 0,0 mm 18,4 km/h (3 Bft) W 272 ° 0 min 0,000 mm 0,0 UV-I 53 W/m² -3,0 °C -6,4 °C 27,4 km/h (4 Bft)
11.03.2019 10:04 -1,2 °C 88 % 1018,0 hPa 0,0 mm 21,9 km/h (4 Bft) W-NW 297 ° 0 min 0,000 mm 0,0 UV-I 60 W/m² -2,9 °C -7,0 °C 38,6 km/h (5 Bft)
11.03.2019 10:05 -1,2 °C 88 % 1018,1 hPa 0,0 mm 28,0 km/h (4 Bft) W-SW 243 ° 0 min 0,000 mm 0,0 UV-I 58 W/m² -2,9 °C -7,8 °C 38,6 km/h (5 Bft)
11.03.2019 10:06 -1,3 °C 88 % 1018,1 hPa 0,0 mm 17,4 km/h (3 Bft) W-NW 285 ° 0 min 0,000 mm 0,0 UV-I 53 W/m² -3,0 °C -6,5 °C 25,7 km/h (4 Bft)
11.03.2019 10:07 -1,4 °C 88 % 1018,2 hPa 0,0 mm 22,6 km/h (4 Bft) W-NW 286 ° 0 min 0,000 mm 0,0 UV-I 54 W/m² -3,1 °C -7,4 °C 35,4 km/h (5 Bft)
11.03.2019 10:08 -1,4 °C 89 % 1018,2 hPa 0,0 mm 25,7 km/h (4 Bft) W 272 ° 0 min 0,000 mm 0,0 UV-I 56 W/m² -3,0 °C -7,8 °C 37,0 km/h (5 Bft)
11.03.2019 10:09 -1,4 °C 88 % 1018,3 hPa 0,0 mm 18,4 km/h (3 Bft) W-SW 245 ° 0 min 0,000 mm 0,0 UV-I 56 W/m² -3,1 °C -6,8 °C 25,7 km/h (4 Bft)
11.03.2019 10:10 -1,5 °C 89 % 1018,2 hPa 0,0 mm 19,2 km/h (3 Bft) NW 314 ° 0 min 0,000 mm 0,0 UV-I 56 W/m² -3,1 °C -7,0 °C 25,7 km/h (4 Bft)
11.03.2019 10:11 -1,5 °C 89 % 1018,2 hPa 0,0 mm 23,7 km/h (4 Bft) W-NW 290 ° 0 min 0,000 mm 0,0 UV-I 54 W/m² -3,1 °C -7,7 °C 35,4 km/h (5 Bft)
11.03.2019 10:12 -1,6 °C 89 % 1018,3 hPa 0,0 mm 23,3 km/h (4 Bft) W-NW 289 ° 0 min 0,000 mm 0,0 UV-I 51 W/m² -3,2 °C -7,7 °C 35,4 km/h (5 Bft)
11.03.2019 10:13 -1,6 °C 89 % 1018,3 hPa 0,0 mm 24,3 km/h (4 Bft) NW 304 ° 0 min 0,000 mm 0,0 UV-I 53 W/m² -3,2 °C -7,9 °C 37,0 km/h (5 Bft)
11.03.2019 10:14 -1,7 °C 89 % 1018,3 hPa 0,0 mm 15,9 km/h (3 Bft) W-NW 296 ° 0 min 0,000 mm 0,0 UV-I 46 W/m² -3,3 °C -6,7 °C 29,0 km/h (5 Bft)
11.03.2019 10:15 -1,7 °C 90 % 1018,3 hPa 0,0 mm 15,0 km/h (3 Bft) W 281 ° 0 min 0,000 mm 0,0 UV-I 40 W/m² -3,1 °C -6,5 °C 24,1 km/h (4 Bft)
11.03.2019 10:16 -1,7 °C 90 % 1018,2 hPa 0,0 mm 18,5 km/h (3 Bft) W-NW 301 ° 0 min 0,000 mm 0,0 UV-I 33 W/m² -3,1 °C -7,1 °C 25,7 km/h (4 Bft)
11.03.2019 10:17 -1,8 °C 90 % 1018,4 hPa 0,0 mm 16,9 km/h (3 Bft) W-NW 299 ° 0 min 0,000 mm 0,0 UV-I 30 W/m² -3,2 °C -7,0 °C 29,0 km/h (5 Bft)
11.03.2019 10:18 -1,8 °C 90 % 1018,3 hPa 0,0 mm 15,0 km/h (3 Bft) W-NW 292 ° 0 min 0,000 mm 0,0 UV-I 25 W/m² -3,2 °C -6,6 °C 19,3 km/h (3 Bft)
11.03.2019 10:19 -1,8 °C 90 % 1018,3 hPa 0,0 mm 13,2 km/h (3 Bft) W 274 ° 0 min 0,000 mm 0,0 UV-I 25 W/m² -3,2 °C -6,3 °C 22,5 km/h (4 Bft)
11.03.2019 10:20 -1,8 °C 90 % 1018,3 hPa 0,0 mm 17,6 km/h (3 Bft) NW 314 ° 0 min 0,000 mm 0,0 UV-I 25 W/m² -3,2 °C -7,1 °C 30,6 km/h (5 Bft)
11.03.2019 10:21 -1,9 °C 90 % 1018,3 hPa 0,0 mm 11,1 km/h (2 Bft) W 265 ° 0 min 0,000 mm 0,0 UV-I 26 W/m² -3,3 °C -5,9 °C 22,5 km/h (4 Bft)
11.03.2019 10:22 -1,8 °C 90 % 1018,4 hPa 0,0 mm 8,0 km/h (2 Bft) W 278 ° 0 min 0,000 mm 0,0 UV-I 25 W/m² -3,2 °C -4,9 °C 16,1 km/h (3 Bft)
11.03.2019 10:23 -1,8 °C 90 % 1018,3 hPa 0,0 mm 12,3 km/h (3 Bft) W-NW 302 ° 0 min 0,000 mm 0,0 UV-I 28 W/m² -3,2 °C -6,1 °C 17,7 km/h (3 Bft)
11.03.2019 10:24 -1,9 °C 90 % 1018,3 hPa 0,0 mm 11,5 km/h (2 Bft) W 277 ° 0 min 0,000 mm 0,0 UV-I 35 W/m² -3,3 °C -6,0 °C 17,7 km/h (3 Bft)
11.03.2019 10:25 -1,9 °C 90 % 1018,3 hPa 0,0 mm 17,4 km/h (3 Bft) W 271 ° 0 min 0,000 mm 0,0 UV-I 39 W/m² -3,3 °C -7,2 °C 24,1 km/h (4 Bft)
11.03.2019 10:26 -1,9 °C 90 % 1018,3 hPa 0,0 mm 11,2 km/h (2 Bft) W-NW 284 ° 0 min 0,000 mm 0,0 UV-I 39 W/m² -3,3 °C -5,9 °C 17,7 km/h (3 Bft)
11.03.2019 10:27 -1,9 °C 90 % 1018,3 hPa 0,0 mm 12,5 km/h (3 Bft) W-SW 241 ° 0 min 0,000 mm 0,0 UV-I 49 W/m² -3,3 °C -6,2 °C 24,1 km/h (4 Bft)
11.03.2019 10:28 -1,9 °C 90 % 1018,3 hPa 0,0 mm 14,6 km/h (3 Bft) W-SW 247 ° 0 min 0,000 mm 0,0 UV-I 51 W/m² -3,3 °C -6,7 °C 22,5 km/h (4 Bft)
11.03.2019 10:29 -1,9 °C 90 % 1018,4 hPa 0,0 mm 13,5 km/h (3 Bft) W 266 ° 0 min 0,000 mm 0,0 UV-I 53 W/m² -3,3 °C -6,4 °C 20,9 km/h (4 Bft)
11.03.2019 10:30 -1,9 °C 90 % 1018,4 hPa 0,0 mm 13,6 km/h (3 Bft) W-SW 257 ° 0 min 0,000 mm 0,0 UV-I 49 W/m² -3,3 °C -6,5 °C 19,3 km/h (3 Bft)
11.03.2019 10:31 -1,9 °C 90 % 1018,2 hPa 0,0 mm 8,6 km/h (2 Bft) W 273 ° 0 min 0,000 mm 0,0 UV-I 49 W/m² -3,3 °C -5,2 °C 12,9 km/h (3 Bft)
11.03.2019 10:32 -1,8 °C 90 % 1018,3 hPa 0,0 mm 12,9 km/h (3 Bft) W-SW 254 ° 0 min 0,000 mm 0,0 UV-I 49 W/m² -3,2 °C -6,2 °C 17,7 km/h (3 Bft)
11.03.2019 10:33 -1,9 °C 90 % 1018,4 hPa 0,0 mm 13,4 km/h (3 Bft) W-SW 253 ° 0 min 0,000 mm 0,0 UV-I 49 W/m² -3,3 °C -6,4 °C 17,7 km/h (3 Bft)
11.03.2019 10:34 -1,8 °C 90 % 1018,4 hPa 0,0 mm 13,8 km/h (3 Bft) W 261 ° 0 min 0,000 mm 0,0 UV-I 54 W/m² -3,2 °C -6,4 °C 20,9 km/h (4 Bft)
11.03.2019 10:35 -1,8 °C 90 % 1018,3 hPa 0,0 mm 10,3 km/h (2 Bft) W-SW 237 ° 0 min 0,000 mm 0,5 UV-I 60 W/m² -3,2 °C -5,5 °C 17,7 km/h (3 Bft)
11.03.2019 10:36 -1,8 °C 90 % 1018,3 hPa 0,0 mm 8,8 km/h (2 Bft) W 260 ° 0 min 0,000 mm 0,5 UV-I 70 W/m² -3,2 °C -5,1 °C 14,5 km/h (3 Bft)
11.03.2019 10:37 -1,8 °C 91 % 1018,4 hPa 0,0 mm 11,9 km/h (2 Bft) S-SW 207 ° 0 min 0,000 mm 0,6 UV-I 76 W/m² -3,1 °C -6,0 °C 17,7 km/h (3 Bft)
11.03.2019 10:38 -1,8 °C 91 % 1018,4 hPa 0,0 mm 11,9 km/h (2 Bft) W-SW 245 ° 0 min 0,000 mm 0,6 UV-I 83 W/m² -3,1 °C -6,0 °C 16,1 km/h (3 Bft)
11.03.2019 10:39 -1,7 °C 91 % 1018,4 hPa 0,0 mm 14,6 km/h (3 Bft) W 263 ° 0 min 0,000 mm 0,7 UV-I 91 W/m² -3,0 °C -6,4 °C 20,9 km/h (4 Bft)
11.03.2019 10:40 -1,7 °C 91 % 1018,4 hPa 0,0 mm 9,1 km/h (2 Bft) W-SW 249 ° 0 min 0,000 mm 0,7 UV-I 100 W/m² -3,0 °C -5,1 °C 19,3 km/h (3 Bft)
11.03.2019 10:41 -1,7 °C 91 % 1018,4 hPa 0,0 mm 13,3 km/h (3 Bft) W 261 ° 0 min 0,000 mm 0,7 UV-I 105 W/m² -3,0 °C -6,2 °C 20,9 km/h (4 Bft)
11.03.2019 10:42 -1,7 °C 91 % 1018,3 hPa 0,0 mm 10,0 km/h (2 Bft) S-SW 198 ° 0 min 0,000 mm 0,7 UV-I 114 W/m² -3,0 °C -5,3 °C 16,1 km/h (3 Bft)
11.03.2019 10:43 -1,6 °C 91 % 1018,2 hPa 0,0 mm 8,9 km/h (2 Bft) SW 215 ° 0 min 0,000 mm 0,8 UV-I 114 W/m² -2,9 °C -4,9 °C 14,5 km/h (3 Bft)
11.03.2019 10:44 -1,6 °C 90 % 1018,2 hPa 0,0 mm 11,3 km/h (2 Bft) S-SW 198 ° 0 min 0,000 mm 0,8 UV-I 114 W/m² -3,0 °C -5,6 °C 16,1 km/h (3 Bft)
11.03.2019 10:45 -1,6 °C 90 % 1018,3 hPa 0,0 mm 14,8 km/h (3 Bft) SW 225 ° 0 min 0,000 mm 0,8 UV-I 111 W/m² -3,0 °C -6,3 °C 20,9 km/h (4 Bft)
11.03.2019 10:46 -1,5 °C 90 % 1018,3 hPa 0,0 mm 14,1 km/h (3 Bft) S-SW 202 ° 0 min 0,000 mm 0,7 UV-I 107 W/m² -2,9 °C -6,1 °C 22,5 km/h (4 Bft)
11.03.2019 10:47 -1,6 °C 90 % 1018,3 hPa 0,0 mm 18,3 km/h (3 Bft) W-NW 302 ° 0 min 0,000 mm 0,7 UV-I 109 W/m² -3,0 °C -7,0 °C 30,6 km/h (5 Bft)
11.03.2019 10:48 -1,5 °C 90 % 1018,1 hPa 0,0 mm 12,1 km/h (2 Bft) W-SW 256 ° 0 min 0,000 mm 0,7 UV-I 111 W/m² -2,9 °C -5,6 °C 14,5 km/h (3 Bft)
11.03.2019 10:49 -1,5 °C 90 % 1018,2 hPa 0,0 mm 14,1 km/h (3 Bft) W 262 ° 0 min 0,000 mm 0,7 UV-I 105 W/m² -2,9 °C -6,1 °C 19,3 km/h (3 Bft)
11.03.2019 10:50 -1,4 °C 90 % 1018,3 hPa 0,0 mm 11,9 km/h (2 Bft) S-SW 211 ° 0 min 0,000 mm 0,7 UV-I 105 W/m² -2,8 °C -5,5 °C 19,3 km/h (3 Bft)
11.03.2019 10:51 -1,4 °C 90 % 1018,4 hPa 0,0 mm 14,1 km/h (3 Bft) SW 214 ° 0 min 0,000 mm 0,7 UV-I 109 W/m² -2,8 °C -6,0 °C 24,1 km/h (4 Bft)
11.03.2019 10:52 -1,4 °C 90 % 1018,4 hPa 0,0 mm 14,7 km/h (3 Bft) W 265 ° 0 min 0,000 mm 0,7 UV-I 111 W/m² -2,8 °C -6,1 °C 27,4 km/h (4 Bft)
11.03.2019 10:53 -1,4 °C 90 % 1018,4 hPa 0,0 mm 20,3 km/h (4 Bft) W-SW 254 ° 0 min 0,000 mm 0,7 UV-I 113 W/m² -2,8 °C -7,1 °C 29,0 km/h (5 Bft)
11.03.2019 10:54 -1,3 °C 90 % 1018,4 hPa 0,0 mm 17,8 km/h (3 Bft) W 267 ° 0 min 0,000 mm 0,8 UV-I 114 W/m² -2,7 °C -6,5 °C 22,5 km/h (4 Bft)
11.03.2019 10:55 -1,3 °C 90 % 1018,4 hPa 0,0 mm 11,9 km/h (2 Bft) W-SW 257 ° 0 min 0,000 mm 0,8 UV-I 113 W/m² -2,7 °C -5,4 °C 24,1 km/h (4 Bft)
11.03.2019 10:56 -1,3 °C 89 % 1018,4 hPa 0,0 mm 14,3 km/h (3 Bft) W 261 ° 0 min 0,000 mm 0,8 UV-I 113 W/m² -2,9 °C -5,9 °C 24,1 km/h (4 Bft)
11.03.2019 10:57 -1,3 °C 89 % 1018,5 hPa 0,0 mm 13,1 km/h (3 Bft) SW 225 ° 0 min 0,000 mm 0,8 UV-I 114 W/m² -2,9 °C -5,6 °C 19,3 km/h (3 Bft)
11.03.2019 10:58 -1,3 °C 89 % 1018,5 hPa 0,0 mm 15,1 km/h (3 Bft) W-SW 257 ° 0 min 0,000 mm 0,7 UV-I 111 W/m² -2,9 °C -6,0 °C 22,5 km/h (4 Bft)
11.03.2019 10:59 -1,2 °C 89 % 1018,5 hPa 0,0 mm 12,2 km/h (2 Bft) SW 219 ° 0 min 0,000 mm 0,7 UV-I 100 W/m² -2,8 °C -5,3 °C 19,3 km/h (3 Bft)
11.03.2019 11:00 -1,2 °C 89 % 1018,5 hPa 0,0 mm 10,4 km/h (2 Bft) SW 215 ° 0 min 0,000 mm 0,6 UV-I 93 W/m² -2,8 °C -4,9 °C 16,1 km/h (3 Bft)
11.03.2019 11:01 -1,2 °C 89 % 1018,6 hPa 0,0 mm 15,6 km/h (3 Bft) SW 229 ° 0 min 0,025 mm 0,6 UV-I 83 W/m² -2,8 °C -6,0 °C 25,7 km/h (4 Bft)
11.03.2019 11:02 -1,2 °C 89 % 1018,4 hPa 0,0 mm 11,8 km/h (2 Bft) SW 225 ° 0 min 0,000 mm 0,6 UV-I 83 W/m² -2,8 °C -5,2 °C 16,1 km/h (3 Bft)
11.03.2019 11:03 -1,1 °C 89 % 1018,4 hPa 0,0 mm 12,9 km/h (3 Bft) W 279 ° 0 min 0,000 mm 0,6 UV-I 84 W/m² -2,7 °C -5,3 °C 19,3 km/h (3 Bft)
11.03.2019 11:04 -1,1 °C 88 % 1018,4 hPa 0,0 mm 19,4 km/h (3 Bft) W 267 ° 0 min 0,000 mm 0,6 UV-I 84 W/m² -2,8 °C -6,5 °C 27,4 km/h (4 Bft)
11.03.2019 11:05 -1,1 °C 88 % 1018,3 hPa 0,0 mm 15,6 km/h (3 Bft) SW 226 ° 0 min 0,000 mm 0,6 UV-I 91 W/m² -2,8 °C -5,9 °C 25,7 km/h (4 Bft)
11.03.2019 11:06 -1,1 °C 88 % 1018,3 hPa 0,0 mm 10,9 km/h (2 Bft) W 259 ° 0 min 0,000 mm 0,7 UV-I 97 W/m² -2,8 °C -4,9 °C 20,9 km/h (4 Bft)
11.03.2019 11:07 -1,1 °C 88 % 1018,4 hPa 0,0 mm 10,8 km/h (2 Bft) W 265 ° 0 min 0,000 mm 0,7 UV-I 102 W/m² -2,8 °C -4,8 °C 22,5 km/h (4 Bft)
11.03.2019 11:08 -1,0 °C 88 % 1018,4 hPa 0,0 mm 11,9 km/h (2 Bft) W-SW 256 ° 0 min 0,000 mm 0,8 UV-I 107 W/m² -2,7 °C -5,0 °C 25,7 km/h (4 Bft)
11.03.2019 11:09 -1,0 °C 88 % 1018,5 hPa 0,0 mm 13,4 km/h (3 Bft) W 273 ° 0 min 0,000 mm 0,8 UV-I 109 W/m² -2,7 °C -5,3 °C 24,1 km/h (4 Bft)
11.03.2019 11:10 -0,9 °C 87 % 1018,5 hPa 0,0 mm 16,1 km/h (3 Bft) W 270 ° 0 min 0,000 mm 0,8 UV-I 111 W/m² -2,8 °C -5,7 °C 25,7 km/h (4 Bft)
11.03.2019 11:11 -0,9 °C 87 % 1018,5 hPa 0,0 mm 14,4 km/h (3 Bft) W 272 ° 0 min 0,000 mm 0,8 UV-I 123 W/m² -2,8 °C -5,4 °C 20,9 km/h (4 Bft)
11.03.2019 11:12 -0,9 °C 87 % 1018,5 hPa 0,0 mm 13,3 km/h (3 Bft) W 261 ° 0 min 0,000 mm 0,9 UV-I 130 W/m² -2,8 °C -5,2 °C 19,3 km/h (3 Bft)
11.03.2019 11:13 -0,8 °C 87 % 1018,5 hPa 0,0 mm 16,0 km/h (3 Bft) W-SW 245 ° 0 min 0,000 mm 1,0 UV-I 144 W/m² -2,7 °C -5,6 °C 22,5 km/h (4 Bft)
11.03.2019 11:14 -0,8 °C 86 % 1018,6 hPa 0,0 mm 16,4 km/h (3 Bft) W-SW 257 ° 0 min 0,000 mm 1,0 UV-I 149 W/m² -2,8 °C -5,7 °C 25,7 km/h (4 Bft)
11.03.2019 11:15 -0,7 °C 86 % 1018,6 hPa 0,0 mm 10,2 km/h (2 Bft) W-SW 252 ° 0 min 0,000 mm 1,1 UV-I 162 W/m² -2,7 °C -4,2 °C 14,5 km/h (3 Bft)
11.03.2019 11:16 -0,7 °C 86 % 1018,5 hPa 0,0 mm 10,5 km/h (2 Bft) W 275 ° 0 min 0,000 mm 1,1 UV-I 165 W/m² -2,7 °C -4,3 °C 17,7 km/h (3 Bft)
11.03.2019 11:17 -0,7 °C 86 % 1018,6 hPa 0,0 mm 7,7 km/h (2 Bft) W 275 ° 0 min 0,000 mm 1,1 UV-I 162 W/m² -2,7 °C -3,5 °C 11,3 km/h (2 Bft)
11.03.2019 11:18 -0,7 °C 86 % 1018,6 hPa 0,0 mm 11,2 km/h (2 Bft) S-SW 205 ° 0 min 0,000 mm 1,1 UV-I 165 W/m² -2,7 °C -4,5 °C 17,7 km/h (3 Bft)
11.03.2019 11:19 -0,7 °C 85 % 1018,7 hPa 0,0 mm 10,8 km/h (2 Bft) SW 228 ° 0 min 0,000 mm 1,1 UV-I 169 W/m² -2,9 °C -4,4 °C 22,5 km/h (4 Bft)
11.03.2019 11:20 -0,6 °C 85 % 1018,7 hPa 0,0 mm 14,6 km/h (3 Bft) W 263 ° 0 min 0,000 mm 1,1 UV-I 169 W/m² -2,8 °C -5,1 °C 22,5 km/h (4 Bft)
11.03.2019 11:21 -0,6 °C 84 % 1018,7 hPa 0,0 mm 15,3 km/h (3 Bft) W 271 ° 0 min 0,000 mm 1,1 UV-I 163 W/m² -3,0 °C -5,2 °C 24,1 km/h (4 Bft)
11.03.2019 11:22 -0,6 °C 84 % 1018,7 hPa 0,0 mm 16,4 km/h (3 Bft) W 259 ° 0 min 0,000 mm 1,2 UV-I 181 W/m² -3,0 °C -5,4 °C 20,9 km/h (4 Bft)
11.03.2019 11:23 -0,6 °C 84 % 1018,7 hPa 0,0 mm 12,0 km/h (2 Bft) S 185 ° 0 min 0,000 mm 1,2 UV-I 181 W/m² -3,0 °C -4,5 °C 16,1 km/h (3 Bft)
11.03.2019 11:24 -0,6 °C 84 % 1018,8 hPa 0,0 mm 15,0 km/h (3 Bft) W 267 ° 0 min 0,000 mm 1,2 UV-I 178 W/m² -3,0 °C -5,2 °C 20,9 km/h (4 Bft)
11.03.2019 11:25 -0,6 °C 84 % 1018,6 hPa 0,0 mm 11,7 km/h (2 Bft) W-SW 248 ° 0 min 0,000 mm 1,2 UV-I 174 W/m² -3,0 °C -4,5 °C 14,5 km/h (3 Bft)
11.03.2019 11:26 -0,6 °C 83 % 1018,7 hPa 0,0 mm 13,1 km/h (3 Bft) W-SW 248 ° 0 min 0,000 mm 1,2 UV-I 178 W/m² -3,1 °C -4,8 °C 17,7 km/h (3 Bft)
11.03.2019 11:27 -0,6 °C 83 % 1018,8 hPa 0,0 mm 12,7 km/h (3 Bft) W 269 ° 0 min 0,000 mm 1,2 UV-I 178 W/m² -3,1 °C -4,7 °C 19,3 km/h (3 Bft)
11.03.2019 11:28 -0,6 °C 83 % 1018,8 hPa 0,0 mm 16,3 km/h (3 Bft) W-SW 247 ° 0 min 0,000 mm 1,2 UV-I 167 W/m² -3,1 °C -5,4 °C 27,4 km/h (4 Bft)
11.03.2019 11:29 -0,5 °C 83 % 1018,8 hPa 0,0 mm 13,1 km/h (3 Bft) W-SW 238 ° 0 min 0,000 mm 1,2 UV-I 165 W/m² -3,0 °C -4,7 °C 19,3 km/h (3 Bft)
11.03.2019 11:30 -0,5 °C 83 % 1018,8 hPa 0,0 mm 14,9 km/h (3 Bft) W 259 ° 0 min 0,000 mm 1,2 UV-I 171 W/m² -3,0 °C -5,0 °C 27,4 km/h (4 Bft)
11.03.2019 11:31 -0,4 °C 83 % 1019,0 hPa 0,0 mm 16,8 km/h (3 Bft) S 173 ° 0 min 0,000 mm 1,2 UV-I 174 W/m² -2,9 °C -5,2 °C 27,4 km/h (4 Bft)
11.03.2019 11:32 -0,5 °C 82 % 1018,8 hPa 0,0 mm 15,7 km/h (3 Bft) W 264 ° 0 min 0,000 mm 1,2 UV-I 174 W/m² -3,2 °C -5,2 °C 20,9 km/h (4 Bft)
11.03.2019 11:33 -0,4 °C 82 % 1018,9 hPa 0,0 mm 16,7 km/h (3 Bft) W-SW 255 ° 0 min 0,000 mm 1,3 UV-I 178 W/m² -3,1 °C -5,2 °C 20,9 km/h (4 Bft)
11.03.2019 11:34 -0,4 °C 81 % 1018,9 hPa 0,0 mm 12,7 km/h (3 Bft) W 265 ° 0 min 0,000 mm 1,3 UV-I 156 W/m² -3,3 °C -4,4 °C 19,3 km/h (3 Bft)
11.03.2019 11:35 -0,4 °C 82 % 1018,9 hPa 0,0 mm 17,1 km/h (3 Bft) W-SW 252 ° 0 min 0,000 mm 1,0 UV-I 139 W/m² -3,1 °C -5,3 °C 22,5 km/h (4 Bft)
11.03.2019 11:36 -0,4 °C 82 % 1018,9 hPa 0,0 mm 11,1 km/h (2 Bft) W-NW 293 ° 0 min 0,000 mm 1,2 UV-I 153 W/m² -3,1 °C -4,1 °C 14,5 km/h (3 Bft)
11.03.2019 11:37 -0,4 °C 81 % 1019,0 hPa 0,0 mm 15,4 km/h (3 Bft) W 277 ° 0 min 0,000 mm 1,3 UV-I 169 W/m² -3,3 °C -5,0 °C 17,7 km/h (3 Bft)
11.03.2019 11:38 -0,3 °C 81 % 1019,0 hPa 0,0 mm 9,1 km/h (2 Bft) W-SW 255 ° 0 min 0,000 mm 1,2 UV-I 169 W/m² -3,2 °C -3,4 °C 17,7 km/h (3 Bft)
11.03.2019 11:39 -0,3 °C 81 % 1019,0 hPa 0,0 mm 15,4 km/h (3 Bft) S-SW 212 ° 0 min 0,000 mm 1,3 UV-I 160 W/m² -3,2 °C -4,9 °C 22,5 km/h (4 Bft)
11.03.2019 11:40 -0,3 °C 81 % 1018,9 hPa 0,0 mm 10,9 km/h (2 Bft) W-SW 254 ° 0 min 0,000 mm 1,2 UV-I 153 W/m² -3,2 °C -3,9 °C 16,1 km/h (3 Bft)
11.03.2019 11:41 -0,3 °C 81 % 1019,0 hPa 0,0 mm 13,6 km/h (3 Bft) W 270 ° 0 min 0,000 mm 1,2 UV-I 162 W/m² -3,2 °C -4,5 °C 19,3 km/h (3 Bft)
11.03.2019 11:42 -0,3 °C 81 % 1019,0 hPa 0,0 mm 13,8 km/h (3 Bft) W-SW 245 ° 0 min 0,000 mm 1,3 UV-I 169 W/m² -3,2 °C -4,6 °C 24,1 km/h (4 Bft)
11.03.2019 11:43 -0,3 °C 81 % 1019,0 hPa 0,0 mm 7,0 km/h (2 Bft) W-SW 249 ° 0 min 0,000 mm 1,2 UV-I 163 W/m² -3,2 °C -2,8 °C 12,9 km/h (3 Bft)
11.03.2019 11:44 -0,3 °C 81 % 1019,0 hPa 0,0 mm 14,9 km/h (3 Bft) W-SW 244 ° 0 min 0,000 mm 1,2 UV-I 165 W/m² -3,2 °C -4,8 °C 22,5 km/h (4 Bft)
11.03.2019 11:45 -0,3 °C 81 % 1019,1 hPa 0,0 mm 14,7 km/h (3 Bft) SW 227 ° 0 min 0,000 mm 1,2 UV-I 160 W/m² -3,2 °C -4,7 °C 20,9 km/h (4 Bft)
11.03.2019 11:46 -0,2 °C 81 % 1019,1 hPa 0,0 mm 12,4 km/h (3 Bft) S-SW 200 ° 0 min 0,000 mm 1,2 UV-I 162 W/m² -3,1 °C -4,1 °C 19,3 km/h (3 Bft)
11.03.2019 11:47 -0,2 °C 80 % 1019,1 hPa 0,0 mm 11,1 km/h (2 Bft) W-SW 248 ° 0 min 0,000 mm 1,1 UV-I 148 W/m² -3,2 °C -3,8 °C 16,1 km/h (3 Bft)
11.03.2019 11:48 -0,2 °C 80 % 1019,1 hPa 0,0 mm 9,2 km/h (2 Bft) W 267 ° 0 min 0,000 mm 1,0 UV-I 139 W/m² -3,2 °C -3,3 °C 16,1 km/h (3 Bft)
11.03.2019 11:49 -0,2 °C 81 % 1019,1 hPa 0,0 mm 11,9 km/h (2 Bft) W-SW 254 ° 0 min 0,000 mm 1,0 UV-I 135 W/m² -3,1 °C -4,0 °C 14,5 km/h (3 Bft)
11.03.2019 11:50 -0,2 °C 81 % 1019,1 hPa 0,0 mm 8,0 km/h (2 Bft) W 279 ° 0 min 0,000 mm 1,1 UV-I 141 W/m² -3,1 °C -3,0 °C 12,9 km/h (3 Bft)
11.03.2019 11:51 -0,2 °C 81 % 1019,2 hPa 0,0 mm 7,2 km/h (2 Bft) W 265 ° 0 min 0,000 mm 1,2 UV-I 174 W/m² -3,1 °C -2,7 °C 12,9 km/h (3 Bft)
11.03.2019 11:52 -0,2 °C 80 % 1019,2 hPa 0,0 mm 19,2 km/h (3 Bft) W 270 ° 0 min 0,000 mm 1,3 UV-I 190 W/m² -3,2 °C -5,4 °C 22,5 km/h (4 Bft)
11.03.2019 11:53 -0,1 °C 80 % 1019,2 hPa 0,0 mm 14,5 km/h (3 Bft) SW 227 ° 0 min 0,000 mm 1,5 UV-I 197 W/m² -3,1 °C -4,4 °C 19,3 km/h (3 Bft)
11.03.2019 11:54 -0,1 °C 80 % 1019,1 hPa 0,0 mm 14,8 km/h (3 Bft) W-SW 240 ° 0 min 0,000 mm 1,7 UV-I 221 W/m² -3,1 °C -4,5 °C 20,9 km/h (4 Bft)
11.03.2019 11:55 -0,1 °C 79 % 1019,1 hPa 0,0 mm 13,2 km/h (3 Bft) W 261 ° 0 min 0,000 mm 1,8 UV-I 248 W/m² -3,3 °C -4,2 °C 16,1 km/h (3 Bft)
11.03.2019 11:56 0,0 °C 79 % 1019,0 hPa 0,0 mm 18,2 km/h (3 Bft) W-SW 248 ° 0 min 0,000 mm 1,7 UV-I 248 W/m² -3,2 °C -5,0 °C 25,7 km/h (4 Bft)
11.03.2019 11:57 0,0 °C 79 % 1019,0 hPa 0,0 mm 13,2 km/h (3 Bft) SW 229 ° 0 min 0,000 mm 1,7 UV-I 244 W/m² -3,2 °C -4,1 °C 19,3 km/h (3 Bft)
11.03.2019 11:58 0,1 °C 79 % 1019,1 hPa 0,0 mm 10,5 km/h (2 Bft) W-SW 242 ° 0 min 0,000 mm 1,7 UV-I 243 W/m² -3,1 °C -3,3 °C 14,5 km/h (3 Bft)
11.03.2019 11:59 0,1 °C 79 % 1019,1 hPa 0,0 mm 11,6 km/h (2 Bft) W 273 ° 0 min 0,000 mm 1,7 UV-I 241 W/m² -3,1 °C -3,6 °C 16,1 km/h (3 Bft)
11.03.2019 12:00 0,1 °C 79 % 1019,1 hPa 0,0 mm 11,5 km/h (2 Bft) S-SW 209 ° 0 min 0,076 mm 1,7 UV-I 241 W/m² -3,1 °C -3,6 °C 16,1 km/h (3 Bft)
11.03.2019 12:01 0,1 °C 79 % 1019,0 hPa 0,0 mm 11,6 km/h (2 Bft) SW 228 ° 0 min 0,000 mm 1,7 UV-I 241 W/m² -3,1 °C -3,6 °C 22,5 km/h (4 Bft)
11.03.2019 12:02 0,1 °C 79 % 1019,1 hPa 0,0 mm 8,5 km/h (2 Bft) S-SW 201 ° 0 min 0,000 mm 1,7 UV-I 237 W/m² -3,1 °C -2,8 °C 16,1 km/h (3 Bft)
11.03.2019 12:03 0,1 °C 79 % 1019,0 hPa 0,0 mm 10,6 km/h (2 Bft) W-NW 292 ° 0 min 0,000 mm 1,7 UV-I 236 W/m² -3,1 °C -3,3 °C 14,5 km/h (3 Bft)
11.03.2019 12:04 0,1 °C 79 % 1019,1 hPa 0,0 mm 14,6 km/h (3 Bft) W 271 ° 0 min 0,000 mm 1,7 UV-I 229 W/m² -3,1 °C -4,2 °C 20,9 km/h (4 Bft)
11.03.2019 12:05 0,2 °C 79 % 1019,1 hPa 0,0 mm 9,8 km/h (2 Bft) S-SW 198 ° 0 min 0,000 mm 1,7 UV-I 225 W/m² -3,0 °C -3,0 °C 12,9 km/h (3 Bft)
11.03.2019 12:06 0,2 °C 79 % 1019,0 hPa 0,0 mm 7,0 km/h (2 Bft) W-SW 250 ° 0 min 0,000 mm 1,8 UV-I 234 W/m² -3,0 °C -2,2 °C 9,7 km/h (2 Bft)
11.03.2019 12:07 0,1 °C 79 % 1019,0 hPa 0,0 mm 8,9 km/h (2 Bft) SW 232 ° 0 min 0,000 mm 1,8 UV-I 239 W/m² -3,1 °C -2,9 °C 14,5 km/h (3 Bft)
11.03.2019 12:08 0,2 °C 80 % 1019,0 hPa 0,0 mm 10,4 km/h (2 Bft) SW 228 ° 0 min 0,000 mm 1,8 UV-I 237 W/m² -2,8 °C -3,2 °C 16,1 km/h (3 Bft)
11.03.2019 12:09 0,2 °C 79 % 1019,0 hPa 0,0 mm 14,6 km/h (3 Bft) W-NW 286 ° 0 min 0,000 mm 1,8 UV-I 236 W/m² -3,0 °C -4,1 °C 20,9 km/h (4 Bft)
11.03.2019 12:10 0,2 °C 79 % 1019,0 hPa 0,0 mm 12,5 km/h (3 Bft) W 261 ° 0 min 0,000 mm 1,8 UV-I 237 W/m² -3,0 °C -3,7 °C 16,1 km/h (3 Bft)
11.03.2019 12:11 0,2 °C 79 % 1019,0 hPa 0,0 mm 15,4 km/h (3 Bft) W 259 ° 0 min 0,000 mm 1,9 UV-I 234 W/m² -3,0 °C -4,2 °C 19,3 km/h (3 Bft)
11.03.2019 12:12 0,2 °C 79 % 1019,0 hPa 0,0 mm 14,3 km/h (3 Bft) W 260 ° 0 min 0,000 mm 1,9 UV-I 232 W/m² -3,0 °C -4,0 °C 19,3 km/h (3 Bft)
11.03.2019 12:13 0,2 °C 79 % 1019,1 hPa 0,0 mm 10,9 km/h (2 Bft) W 272 ° 0 min 0,000 mm 1,9 UV-I 237 W/m² -3,0 °C -3,3 °C 17,7 km/h (3 Bft)
11.03.2019 12:14 0,2 °C 79 % 1019,1 hPa 0,0 mm 15,5 km/h (3 Bft) W 270 ° 0 min 0,000 mm 2,0 UV-I 237 W/m² -3,0 °C -4,3 °C 19,3 km/h (3 Bft)
11.03.2019 12:15 0,2 °C 79 % 1019,1 hPa 0,0 mm 15,4 km/h (3 Bft) W-SW 248 ° 0 min 0,000 mm 2,0 UV-I 272 W/m² -3,0 °C -4,2 °C 27,4 km/h (4 Bft)
11.03.2019 12:16 0,3 °C 79 % 1019,1 hPa 0,0 mm 14,8 km/h (3 Bft) S-SW 209 ° 0 min 0,000 mm 2,0 UV-I 279 W/m² -2,9 °C -4,0 °C 20,9 km/h (4 Bft)
11.03.2019 12:17 0,3 °C 79 % 1019,1 hPa 0,0 mm 12,3 km/h (3 Bft) SW 227 ° 0 min 0,000 mm 2,0 UV-I 279 W/m² -2,9 °C -3,5 °C 19,3 km/h (3 Bft)
11.03.2019 12:18 0,4 °C 79 % 1019,1 hPa 0,0 mm 14,3 km/h (3 Bft) W 277 ° 0 min 0,000 mm 1,8 UV-I 253 W/m² -2,8 °C -3,8 °C 17,7 km/h (3 Bft)
11.03.2019 12:19 0,4 °C 79 % 1019,2 hPa 0,0 mm 12,5 km/h (3 Bft) SW 227 ° 0 min 0,000 mm 1,5 UV-I 214 W/m² -2,8 °C -3,4 °C 19,3 km/h (3 Bft)
11.03.2019 12:20 0,4 °C 79 % 1019,2 hPa 0,0 mm 9,7 km/h (2 Bft) W-SW 243 ° 0 min 0,000 mm 1,3 UV-I 188 W/m² -2,8 °C -2,8 °C 19,3 km/h (3 Bft)
11.03.2019 12:21 0,4 °C 79 % 1019,2 hPa 0,0 mm 13,0 km/h (3 Bft) W 276 ° 0 min 0,000 mm 1,4 UV-I 204 W/m² -2,8 °C -3,5 °C 22,5 km/h (4 Bft)
11.03.2019 12:22 0,4 °C 78 % 1019,2 hPa 0,0 mm 14,6 km/h (3 Bft) W-SW 240 ° 0 min 0,000 mm 1,6 UV-I 216 W/m² -3,0 °C -3,8 °C 22,5 km/h (4 Bft)
11.03.2019 12:23 0,4 °C 78 % 1019,2 hPa 0,0 mm 10,1 km/h (2 Bft) NW 308 ° 0 min 0,000 mm 1,7 UV-I 218 W/m² -3,0 °C -2,9 °C 12,9 km/h (3 Bft)
11.03.2019 12:24 0,4 °C 78 % 1019,2 hPa 0,0 mm 10,8 km/h (2 Bft) W-SW 255 ° 0 min 0,000 mm 1,6 UV-I 206 W/m² -3,0 °C -3,0 °C 14,5 km/h (3 Bft)
11.03.2019 12:25 0,4 °C 79 % 1019,3 hPa 0,0 mm 14,4 km/h (3 Bft) W-SW 257 ° 0 min 0,000 mm 1,5 UV-I 185 W/m² -2,8 °C -3,8 °C 20,9 km/h (4 Bft)
11.03.2019 12:26 0,4 °C 79 % 1019,3 hPa 0,0 mm 12,9 km/h (3 Bft) W-SW 248 ° 0 min 0,000 mm 1,4 UV-I 174 W/m² -2,8 °C -3,5 °C 17,7 km/h (3 Bft)
11.03.2019 12:27 0,4 °C 78 % 1019,2 hPa 0,0 mm 10,5 km/h (2 Bft) W 259 ° 0 min 0,000 mm 1,5 UV-I 179 W/m² -3,0 °C -3,0 °C 16,1 km/h (3 Bft)
11.03.2019 12:28 0,4 °C 79 % 1019,2 hPa 0,0 mm 13,0 km/h (3 Bft) W-SW 243 ° 0 min 0,000 mm 1,4 UV-I 176 W/m² -2,8 °C -3,5 °C 17,7 km/h (3 Bft)
11.03.2019 12:29 0,4 °C 78 % 1019,3 hPa 0,0 mm 8,5 km/h (2 Bft) W 267 ° 0 min 0,000 mm 1,5 UV-I 174 W/m² -3,0 °C -2,4 °C 12,9 km/h (3 Bft)
11.03.2019 12:30 0,4 °C 78 % 1019,2 hPa 0,0 mm 9,6 km/h (2 Bft) W-SW 238 ° 0 min 0,000 mm 1,6 UV-I 190 W/m² -3,0 °C -2,7 °C 12,9 km/h (3 Bft)
11.03.2019 12:31 0,4 °C 79 % 1019,2 hPa 0,0 mm 7,3 km/h (2 Bft) W 261 ° 0 min 0,000 mm 1,7 UV-I 200 W/m² -2,8 °C -2,0 °C 11,3 km/h (2 Bft)
11.03.2019 12:32 0,4 °C 79 % 1019,2 hPa 0,0 mm 8,0 km/h (2 Bft) SW 215 ° 0 min 0,000 mm 1,6 UV-I 200 W/m² -2,8 °C -2,3 °C 11,3 km/h (2 Bft)
11.03.2019 12:33 0,4 °C 79 % 1019,2 hPa 0,0 mm 12,1 km/h (2 Bft) W 277 ° 0 min 0,000 mm 1,6 UV-I 162 W/m² -2,8 °C -3,3 °C 16,1 km/h (3 Bft)
11.03.2019 12:34 0,4 °C 79 % 1019,2 hPa 0,0 mm 15,6 km/h (3 Bft) W 279 ° 0 min 0,000 mm 1,5 UV-I 156 W/m² -2,8 °C -4,0 °C 20,9 km/h (4 Bft)
11.03.2019 12:35 0,4 °C 78 % 1019,2 hPa 0,0 mm 9,7 km/h (2 Bft) W-SW 258 ° 0 min 0,000 mm 1,5 UV-I 162 W/m² -3,0 °C -2,8 °C 16,1 km/h (3 Bft)
11.03.2019 12:36 0,4 °C 78 % 1019,2 hPa 0,0 mm 11,3 km/h (2 Bft) S 190 ° 0 min 0,000 mm 1,6 UV-I 174 W/m² -3,0 °C -3,2 °C 14,5 km/h (3 Bft)
11.03.2019 12:37 0,4 °C 78 % 1019,1 hPa 0,0 mm 15,1 km/h (3 Bft) W-SW 238 ° 0 min 0,000 mm 1,5 UV-I 179 W/m² -3,0 °C -3,9 °C 19,3 km/h (3 Bft)
11.03.2019 12:38 0,4 °C 78 % 1019,1 hPa 0,0 mm 14,0 km/h (3 Bft) W 259 ° 0 min 0,000 mm 1,6 UV-I 207 W/m² -3,0 °C -3,7 °C 17,7 km/h (3 Bft)
11.03.2019 12:39 0,4 °C 79 % 1019,1 hPa 0,0 mm 11,4 km/h (2 Bft) W 264 ° 0 min 0,000 mm 1,6 UV-I 223 W/m² -2,8 °C -3,2 °C 16,1 km/h (3 Bft)
11.03.2019 12:40 0,5 °C 79 % 1019,2 hPa 0,0 mm 8,1 km/h (2 Bft) W-SW 244 ° 0 min 0,000 mm 1,5 UV-I 207 W/m² -2,7 °C -2,2 °C 14,5 km/h (3 Bft)
11.03.2019 12:41 0,5 °C 79 % 1019,1 hPa 0,0 mm 11,3 km/h (2 Bft) W-SW 241 ° 0 min 0,000 mm 1,4 UV-I 188 W/m² -2,7 °C -3,0 °C 16,1 km/h (3 Bft)
11.03.2019 12:42 0,5 °C 79 % 1019,1 hPa 0,0 mm 10,7 km/h (2 Bft) W 266 ° 0 min 0,000 mm 1,2 UV-I 167 W/m² -2,7 °C -2,9 °C 19,3 km/h (3 Bft)
11.03.2019 12:43 0,5 °C 78 % 1019,1 hPa 0,0 mm 12,6 km/h (3 Bft) W 259 ° 0 min 0,000 mm 1,2 UV-I 153 W/m² -2,9 °C -3,3 °C 19,3 km/h (3 Bft)
11.03.2019 12:44 0,5 °C 78 % 1019,1 hPa 0,0 mm 9,1 km/h (2 Bft) W-SW 252 ° 0 min 0,000 mm 1,2 UV-I 151 W/m² -2,9 °C -2,5 °C 14,5 km/h (3 Bft)
11.03.2019 12:45 0,5 °C 78 % 1019,1 hPa 0,0 mm 7,2 km/h (2 Bft) W-SW 252 ° 0 min 0,000 mm 1,3 UV-I 163 W/m² -2,9 °C -1,9 °C 11,3 km/h (2 Bft)
11.03.2019 12:46 0,5 °C 78 % 1019,1 hPa 0,0 mm 11,3 km/h (2 Bft) W 279 ° 0 min 0,000 mm 1,3 UV-I 179 W/m² -2,9 °C -3,0 °C 14,5 km/h (3 Bft)
11.03.2019 12:47 0,6 °C 78 % 1019,1 hPa 0,0 mm 9,0 km/h (2 Bft) S-SW 209 ° 0 min 0,000 mm 1,4 UV-I 181 W/m² -2,8 °C -2,3 °C 12,9 km/h (3 Bft)
11.03.2019 12:48 0,5 °C 78 % 1019,0 hPa 0,0 mm 7,5 km/h (2 Bft) W-SW 249 ° 0 min 0,000 mm 1,4 UV-I 179 W/m² -2,9 °C -2,0 °C 11,3 km/h (2 Bft)
11.03.2019 12:49 0,6 °C 78 % 1019,0 hPa 0,0 mm 10,3 km/h (2 Bft) W 261 ° 0 min 0,000 mm 1,3 UV-I 171 W/m² -2,8 °C -2,7 °C 16,1 km/h (3 Bft)
11.03.2019 12:50 0,6 °C 78 % 1019,0 hPa 0,0 mm 13,7 km/h (3 Bft) S-SW 197 ° 0 min 0,000 mm 1,3 UV-I 160 W/m² -2,8 °C -3,4 °C 20,9 km/h (4 Bft)
11.03.2019 12:51 0,6 °C 77 % 1018,9 hPa 0,0 mm 10,5 km/h (2 Bft) SW 234 ° 0 min 0,000 mm 1,3 UV-I 165 W/m² -3,0 °C -2,7 °C 17,7 km/h (3 Bft)
11.03.2019 12:52 0,5 °C 77 % 1018,9 hPa 0,0 mm 11,2 km/h (2 Bft) W 265 ° 0 min 0,000 mm 1,4 UV-I 171 W/m² -3,1 °C -3,0 °C 20,9 km/h (4 Bft)
11.03.2019 12:53 0,6 °C 77 % 1018,8 hPa 0,0 mm 11,4 km/h (2 Bft) W-SW 243 ° 0 min 0,000 mm 1,4 UV-I 185 W/m² -3,0 °C -2,9 °C 16,1 km/h (3 Bft)
11.03.2019 12:54 0,6 °C 77 % 1018,8 hPa 0,0 mm 8,6 km/h (2 Bft) W-SW 243 ° 0 min 0,000 mm 1,5 UV-I 185 W/m² -3,0 °C -2,2 °C 14,5 km/h (3 Bft)
11.03.2019 12:55 0,6 °C 77 % 1018,8 hPa 0,0 mm 13,5 km/h (3 Bft) W 268 ° 0 min 0,000 mm 1,4 UV-I 192 W/m² -3,0 °C -3,4 °C 17,7 km/h (3 Bft)
11.03.2019 12:56 0,6 °C 77 % 1018,9 hPa 0,0 mm 9,4 km/h (2 Bft) S-SW 213 ° 0 min 0,000 mm 1,3 UV-I 153 W/m² -3,0 °C -2,4 °C 17,7 km/h (3 Bft)
11.03.2019 12:57 0,6 °C 77 % 1018,9 hPa 0,0 mm 11,3 km/h (2 Bft) W-NW 299 ° 0 min 0,000 mm 1,0 UV-I 137 W/m² -3,0 °C -2,9 °C 14,5 km/h (3 Bft)
11.03.2019 12:58 0,6 °C 77 % 1018,9 hPa 0,0 mm 9,9 km/h (2 Bft) W-NW 296 ° 0 min 0,000 mm 1,0 UV-I 139 W/m² -3,0 °C -2,6 °C 14,5 km/h (3 Bft)
11.03.2019 12:59 0,5 °C 77 % 1018,8 hPa 0,0 mm 9,0 km/h (2 Bft) SW 230 ° 0 min 0,000 mm 1,1 UV-I 149 W/m² -3,1 °C -2,4 °C 14,5 km/h (3 Bft)
11.03.2019 13:00 0,5 °C 77 % 1018,8 hPa 0,0 mm 11,3 km/h (2 Bft) W 262 ° 0 min 0,076 mm 1,2 UV-I 174 W/m² -3,1 °C -3,0 °C 20,9 km/h (4 Bft)
11.03.2019 13:01 0,5 °C 77 % 1018,8 hPa 0,0 mm 11,5 km/h (2 Bft) W 276 ° 0 min 0,000 mm 1,4 UV-I 207 W/m² -3,1 °C -3,1 °C 16,1 km/h (3 Bft)
11.03.2019 13:02 0,5 °C 77 % 1018,8 hPa 0,0 mm 10,0 km/h (2 Bft) W-SW 242 ° 0 min 0,000 mm 1,7 UV-I 288 W/m² -3,1 °C -2,7 °C 14,5 km/h (3 Bft)
11.03.2019 13:03 0,6 °C 77 % 1018,7 hPa 0,0 mm 11,4 km/h (2 Bft) W 261 ° 0 min 0,000 mm 2,0 UV-I 301 W/m² -3,0 °C -2,9 °C 14,5 km/h (3 Bft)
11.03.2019 13:04 0,6 °C 77 % 1018,7 hPa 0,0 mm 10,3 km/h (2 Bft) W-SW 251 ° 0 min 0,000 mm 2,0 UV-I 297 W/m² -3,0 °C -2,7 °C 12,9 km/h (3 Bft)
11.03.2019 13:05 0,7 °C 77 % 1018,8 hPa 0,0 mm 10,4 km/h (2 Bft) W 277 ° 0 min 0,000 mm 1,9 UV-I 287 W/m² -2,9 °C -2,6 °C 14,5 km/h (3 Bft)
11.03.2019 13:06 0,7 °C 77 % 1018,7 hPa 0,0 mm 9,4 km/h (2 Bft) W 265 ° 0 min 0,000 mm 1,9 UV-I 279 W/m² -2,9 °C -2,3 °C 17,7 km/h (3 Bft)
11.03.2019 13:07 0,7 °C 77 % 1018,8 hPa 0,0 mm 14,5 km/h (3 Bft) W 272 ° 0 min 0,000 mm 1,9 UV-I 279 W/m² -2,9 °C -3,5 °C 19,3 km/h (3 Bft)
11.03.2019 13:08 0,7 °C 76 % 1018,6 hPa 0,0 mm 10,5 km/h (2 Bft) W 266 ° 0 min 0,000 mm 1,9 UV-I 281 W/m² -3,0 °C -2,6 °C 16,1 km/h (3 Bft)
11.03.2019 13:09 0,7 °C 76 % 1018,7 hPa 0,0 mm 12,9 km/h (3 Bft) SW 229 ° 0 min 0,000 mm 1,8 UV-I 269 W/m² -3,0 °C -3,1 °C 19,3 km/h (3 Bft)
11.03.2019 13:10 0,8 °C 76 % 1018,7 hPa 0,0 mm 9,3 km/h (2 Bft) W 263 ° 0 min 0,000 mm 1,7 UV-I 255 W/m² -2,9 °C -2,2 °C 16,1 km/h (3 Bft)
11.03.2019 13:11 0,8 °C 76 % 1018,7 hPa 0,0 mm 11,3 km/h (2 Bft) W 259 ° 0 min 0,000 mm 1,7 UV-I 243 W/m² -2,9 °C -2,7 °C 19,3 km/h (3 Bft)
11.03.2019 13:12 0,8 °C 76 % 1018,7 hPa 0,0 mm 12,9 km/h (3 Bft) SW 232 ° 0 min 0,000 mm 1,6 UV-I 234 W/m² -2,9 °C -3,0 °C 17,7 km/h (3 Bft)
11.03.2019 13:13 0,8 °C 75 % 1018,7 hPa 0,0 mm 7,8 km/h (2 Bft) W-NW 293 ° 0 min 0,000 mm 1,5 UV-I 227 W/m² -3,1 °C -1,7 °C 11,3 km/h (2 Bft)
11.03.2019 13:14 0,8 °C 76 % 1018,7 hPa 0,0 mm 13,0 km/h (3 Bft) W-SW 255 ° 0 min 0,000 mm 1,6 UV-I 229 W/m² -2,9 °C -3,0 °C 19,3 km/h (3 Bft)
11.03.2019 13:15 0,8 °C 76 % 1018,7 hPa 0,0 mm 14,1 km/h (3 Bft) W 275 ° 0 min 0,000 mm 1,7 UV-I 237 W/m² -2,9 °C -3,3 °C 20,9 km/h (4 Bft)
11.03.2019 13:16 0,8 °C 76 % 1018,7 hPa 0,0 mm 17,8 km/h (3 Bft) W-NW 296 ° 0 min 0,000 mm 1,8 UV-I 244 W/m² -2,9 °C -3,9 °C 25,7 km/h (4 Bft)
11.03.2019 13:17 0,8 °C 75 % 1018,7 hPa 0,0 mm 9,7 km/h (2 Bft) W-SW 245 ° 0 min 0,000 mm 1,7 UV-I 237 W/m² -3,1 °C -2,3 °C 16,1 km/h (3 Bft)
11.03.2019 13:18 0,8 °C 75 % 1018,7 hPa 0,0 mm 8,7 km/h (2 Bft) W 275 ° 0 min 0,000 mm 1,6 UV-I 218 W/m² -3,1 °C -2,0 °C 14,5 km/h (3 Bft)
11.03.2019 13:19 0,8 °C 75 % 1018,7 hPa 0,0 mm 16,6 km/h (3 Bft) W 267 ° 0 min 0,000 mm 1,4 UV-I 193 W/m² -3,1 °C -3,7 °C 24,1 km/h (4 Bft)
11.03.2019 13:20 0,8 °C 76 % 1018,7 hPa 0,0 mm 9,0 km/h (2 Bft) W 268 ° 0 min 0,000 mm 1,3 UV-I 149 W/m² -2,9 °C -2,1 °C 17,7 km/h (3 Bft)
11.03.2019 13:21 0,8 °C 76 % 1018,7 hPa 0,0 mm 7,1 km/h (2 Bft) W-NW 292 ° 0 min 0,000 mm 1,0 UV-I 132 W/m² -2,9 °C -1,5 °C 11,3 km/h (2 Bft)
11.03.2019 13:22 0,7 °C 76 % 1018,7 hPa 0,0 mm 12,1 km/h (2 Bft) NW 309 ° 0 min 0,000 mm 1,1 UV-I 135 W/m² -3,0 °C -3,0 °C 17,7 km/h (3 Bft)
11.03.2019 13:23 0,7 °C 76 % 1018,7 hPa 0,0 mm 16,2 km/h (3 Bft) W-SW 257 ° 0 min 0,000 mm 1,2 UV-I 149 W/m² -3,0 °C -3,8 °C 22,5 km/h (4 Bft)
11.03.2019 13:24 0,7 °C 76 % 1018,7 hPa 0,0 mm 12,4 km/h (3 Bft) W 263 ° 0 min 0,000 mm 1,2 UV-I 155 W/m² -3,0 °C -3,0 °C 19,3 km/h (3 Bft)
11.03.2019 13:25 0,7 °C 76 % 1018,7 hPa 0,0 mm 8,5 km/h (2 Bft) W-NW 285 ° 0 min 0,000 mm 1,3 UV-I 167 W/m² -3,0 °C -2,1 °C 11,3 km/h (2 Bft)
11.03.2019 13:26 0,7 °C 76 % 1018,8 hPa 0,0 mm 9,5 km/h (2 Bft) W-NW 282 ° 0 min 0,000 mm 1,3 UV-I 167 W/m² -3,0 °C -2,3 °C 14,5 km/h (3 Bft)
11.03.2019 13:27 0,6 °C 76 % 1018,8 hPa 0,0 mm 10,4 km/h (2 Bft) W 273 ° 0 min 0,000 mm 1,3 UV-I 160 W/m² -3,1 °C -2,7 °C 16,1 km/h (3 Bft)
11.03.2019 13:28 0,6 °C 76 % 1018,9 hPa 0,0 mm 14,7 km/h (3 Bft) W-SW 250 ° 0 min 0,000 mm 1,2 UV-I 151 W/m² -3,1 °C -3,6 °C 22,5 km/h (4 Bft)
11.03.2019 13:29 0,6 °C 76 % 1019,0 hPa 0,0 mm 12,7 km/h (3 Bft) W 281 ° 0 min 0,000 mm 1,1 UV-I 146 W/m² -3,1 °C -3,2 °C 17,7 km/h (3 Bft)
11.03.2019 13:30 0,6 °C 77 % 1019,0 hPa 0,0 mm 13,9 km/h (3 Bft) W-SW 258 ° 0 min 0,000 mm 1,2 UV-I 162 W/m² -3,0 °C -3,5 °C 20,9 km/h (4 Bft)
11.03.2019 13:31 0,6 °C 77 % 1018,9 hPa 0,0 mm 16,3 km/h (3 Bft) W-NW 289 ° 0 min 0,000 mm 1,3 UV-I 174 W/m² -3,0 °C -3,9 °C 20,9 km/h (4 Bft)
11.03.2019 13:32 0,5 °C 77 % 1018,8 hPa 0,0 mm 12,5 km/h (3 Bft) W-SW 240 ° 0 min 0,000 mm 1,3 UV-I 176 W/m² -3,1 °C -3,3 °C 19,3 km/h (3 Bft)
11.03.2019 13:33 0,5 °C 77 % 1018,9 hPa 0,0 mm 15,0 km/h (3 Bft) W 263 ° 0 min 0,000 mm 1,3 UV-I 174 W/m² -3,1 °C -3,8 °C 19,3 km/h (3 Bft)
11.03.2019 13:34 0,4 °C 77 % 1018,9 hPa 0,0 mm 13,1 km/h (3 Bft) W-SW 252 ° 0 min 0,000 mm 1,2 UV-I 162 W/m² -3,1 °C -3,6 °C 19,3 km/h (3 Bft)
11.03.2019 13:35 0,4 °C 78 % 1018,9 hPa 0,0 mm 18,0 km/h (3 Bft) W 263 ° 0 min 0,000 mm 1,1 UV-I 151 W/m² -3,0 °C -4,4 °C 24,1 km/h (4 Bft)
11.03.2019 13:36 0,4 °C 78 % 1019,0 hPa 0,0 mm 19,7 km/h (3 Bft) W-SW 256 ° 0 min 0,000 mm 1,1 UV-I 153 W/m² -3,0 °C -4,7 °C 35,4 km/h (5 Bft)
11.03.2019 13:37 0,3 °C 78 % 1018,9 hPa 0,0 mm 12,1 km/h (2 Bft) W-SW 257 ° 0 min 0,000 mm 1,1 UV-I 149 W/m² -3,1 °C -3,5 °C 20,9 km/h (4 Bft)
11.03.2019 13:38 0,3 °C 79 % 1019,0 hPa 0,0 mm 20,6 km/h (4 Bft) W-SW 238 ° 0 min 0,000 mm 1,0 UV-I 134 W/m² -2,9 °C -4,9 °C 27,4 km/h (4 Bft)
11.03.2019 13:39 0,2 °C 79 % 1019,0 hPa 0,0 mm 15,3 km/h (3 Bft) W 265 ° 0 min 0,000 mm 0,9 UV-I 121 W/m² -3,0 °C -4,2 °C 25,7 km/h (4 Bft)
11.03.2019 13:40 0,2 °C 80 % 1019,0 hPa 0,0 mm 13,1 km/h (3 Bft) W-SW 257 ° 0 min 0,000 mm 0,9 UV-I 121 W/m² -2,8 °C -3,8 °C 17,7 km/h (3 Bft)
11.03.2019 13:41 0,1 °C 80 % 1019,0 hPa 0,0 mm 17,1 km/h (3 Bft) W 261 ° 0 min 0,000 mm 0,9 UV-I 128 W/m² -2,9 °C -4,7 °C 29,0 km/h (5 Bft)
11.03.2019 13:42 0,1 °C 80 % 1019,0 hPa 0,0 mm 20,7 km/h (4 Bft) W-SW 257 ° 0 min 0,000 mm 0,9 UV-I 127 W/m² -2,9 °C -5,2 °C 29,0 km/h (5 Bft)
11.03.2019 13:43 0,1 °C 80 % 1019,0 hPa 0,0 mm 27,4 km/h (4 Bft) W-SW 242 ° 0 min 0,000 mm 0,9 UV-I 123 W/m² -2,9 °C -6,1 °C 45,1 km/h (6 Bft)
11.03.2019 13:44 0,0 °C 80 % 1018,9 hPa 0,0 mm 14,9 km/h (3 Bft) W 269 ° 0 min 0,000 mm 1,0 UV-I 127 W/m² -3,0 °C -4,4 °C 19,3 km/h (3 Bft)
11.03.2019 13:45 -0,1 °C 80 % 1018,8 hPa 0,0 mm 17,6 km/h (3 Bft) W-SW 246 ° 0 min 0,000 mm 1,0 UV-I 134 W/m² -3,1 °C -5,0 °C 25,7 km/h (4 Bft)
11.03.2019 13:46 -0,1 °C 81 % 1018,8 hPa 0,0 mm 16,2 km/h (3 Bft) W-SW 257 ° 0 min 0,000 mm 1,0 UV-I 137 W/m² -3,0 °C -4,8 °C 22,5 km/h (4 Bft)
11.03.2019 13:47 -0,1 °C 81 % 1018,9 hPa 0,0 mm 14,2 km/h (3 Bft) W 274 ° 0 min 0,000 mm 1,0 UV-I 137 W/m² -3,0 °C -4,4 °C 19,3 km/h (3 Bft)
11.03.2019 13:48 -0,1 °C 82 % 1018,8 hPa 0,0 mm 18,3 km/h (3 Bft) W 267 ° 0 min 0,000 mm 1,0 UV-I 137 W/m² -2,8 °C -5,1 °C 29,0 km/h (5 Bft)
11.03.2019 13:49 -0,1 °C 82 % 1018,8 hPa 0,0 mm 18,4 km/h (3 Bft) SW 217 ° 0 min 0,000 mm 1,0 UV-I 142 W/m² -2,8 °C -5,1 °C 25,7 km/h (4 Bft)
11.03.2019 13:50 -0,2 °C 82 % 1018,9 hPa 0,0 mm 11,1 km/h (2 Bft) W-SW 246 ° 0 min 0,000 mm 1,1 UV-I 144 W/m² -2,9 °C -3,8 °C 16,1 km/h (3 Bft)
11.03.2019 13:51 -0,2 °C 82 % 1018,8 hPa 0,0 mm 8,5 km/h (2 Bft) W-SW 254 ° 0 min 0,000 mm 1,1 UV-I 144 W/m² -2,9 °C -3,1 °C 16,1 km/h (3 Bft)
11.03.2019 13:52 -0,2 °C 82 % 1018,8 hPa 0,0 mm 8,4 km/h (2 Bft) W-NW 296 ° 0 min 0,000 mm 1,1 UV-I 144 W/m² -2,9 °C -3,1 °C 14,5 km/h (3 Bft)
11.03.2019 13:53 -0,2 °C 83 % 1018,8 hPa 0,0 mm 11,5 km/h (2 Bft) W-SW 253 ° 0 min 0,000 mm 1,1 UV-I 146 W/m² -2,7 °C -3,9 °C 14,5 km/h (3 Bft)
11.03.2019 13:54 -0,2 °C 82 % 1018,8 hPa 0,0 mm 12,6 km/h (3 Bft) SW 235 ° 0 min 0,000 mm 1,1 UV-I 149 W/m² -2,9 °C -4,2 °C 16,1 km/h (3 Bft)
11.03.2019 13:55 -0,2 °C 82 % 1018,8 hPa 0,0 mm 13,1 km/h (3 Bft) W 263 ° 0 min 0,000 mm 1,1 UV-I 155 W/m² -2,9 °C -4,3 °C 17,7 km/h (3 Bft)
11.03.2019 13:56 -0,2 °C 82 % 1018,8 hPa 0,0 mm 13,9 km/h (3 Bft) W-SW 254 ° 0 min 0,000 mm 1,2 UV-I 156 W/m² -2,9 °C -4,4 °C 22,5 km/h (4 Bft)
11.03.2019 13:57 -0,2 °C 82 % 1018,8 hPa 0,0 mm 12,3 km/h (3 Bft) S 186 ° 0 min 0,000 mm 1,2 UV-I 156 W/m² -2,9 °C -4,1 °C 22,5 km/h (4 Bft)
11.03.2019 13:58 -0,2 °C 81 % 1018,8 hPa 0,0 mm 10,7 km/h (2 Bft) W-SW 250 ° 0 min 0,000 mm 1,2 UV-I 158 W/m² -3,1 °C -3,7 °C 19,3 km/h (3 Bft)
11.03.2019 13:59 -0,2 °C 81 % 1018,8 hPa 0,0 mm 10,7 km/h (2 Bft) W-SW 248 ° 0 min 0,000 mm 1,2 UV-I 158 W/m² -3,1 °C -3,7 °C 20,9 km/h (4 Bft)
11.03.2019 14:00 -0,2 °C 81 % 1018,8 hPa 0,0 mm 19,8 km/h (3 Bft) W 267 ° 0 min 0,000 mm 1,2 UV-I 160 W/m² -3,1 °C -5,5 °C 25,7 km/h (4 Bft)
11.03.2019 14:01 -0,3 °C 81 % 1018,8 hPa 0,0 mm 15,0 km/h (3 Bft) W 263 ° 0 min 0,077 mm 1,2 UV-I 172 W/m² -3,2 °C -4,8 °C 22,5 km/h (4 Bft)
11.03.2019 14:02 -0,3 °C 80 % 1018,9 hPa 0,0 mm 12,9 km/h (3 Bft) W 262 ° 0 min 0,000 mm 1,2 UV-I 179 W/m² -3,3 °C -4,4 °C 19,3 km/h (3 Bft)
11.03.2019 14:03 -0,3 °C 80 % 1019,0 hPa 0,0 mm 13,8 km/h (3 Bft) W 259 ° 0 min 0,000 mm 1,3 UV-I 185 W/m² -3,3 °C -4,6 °C 19,3 km/h (3 Bft)
11.03.2019 14:04 -0,2 °C 80 % 1019,0 hPa 0,0 mm 17,5 km/h (3 Bft) W 269 ° 0 min 0,000 mm 1,3 UV-I 186 W/m² -3,2 °C -5,1 °C 24,1 km/h (4 Bft)
11.03.2019 14:05 -0,2 °C 79 % 1019,0 hPa 0,0 mm 15,2 km/h (3 Bft) W-SW 248 ° 0 min 0,000 mm 1,3 UV-I 185 W/m² -3,4 °C -4,7 °C 24,1 km/h (4 Bft)
11.03.2019 14:06 -0,2 °C 78 % 1019,0 hPa 0,0 mm 12,9 km/h (3 Bft) W 259 ° 0 min 0,000 mm 1,2 UV-I 179 W/m² -3,6 °C -4,2 °C 19,3 km/h (3 Bft)
11.03.2019 14:07 -0,2 °C 78 % 1019,0 hPa 0,0 mm 12,7 km/h (3 Bft) S-SW 203 ° 0 min 0,000 mm 1,2 UV-I 176 W/m² -3,6 °C -4,2 °C 17,7 km/h (3 Bft)
11.03.2019 14:08 -0,2 °C 76 % 1018,9 hPa 0,0 mm 8,0 km/h (2 Bft) W-SW 237 ° 0 min 0,000 mm 1,2 UV-I 172 W/m² -3,9 °C -3,0 °C 14,5 km/h (3 Bft)
11.03.2019 14:09 -0,2 °C 75 % 1018,9 hPa 0,0 mm 13,0 km/h (3 Bft) SW 228 ° 0 min 0,000 mm 1,2 UV-I 171 W/m² -4,1 °C -4,3 °C 32,2 km/h (5 Bft)
11.03.2019 14:10 -0,2 °C 75 % 1018,9 hPa 0,0 mm 20,3 km/h (4 Bft) W 278 ° 0 min 0,000 mm 1,3 UV-I 172 W/m² -4,1 °C -5,5 °C 27,4 km/h (4 Bft)
11.03.2019 14:11 -0,2 °C 74 % 1019,0 hPa 0,0 mm 15,4 km/h (3 Bft) W-SW 246 ° 0 min 0,000 mm 1,3 UV-I 174 W/m² -4,3 °C -4,7 °C 20,9 km/h (4 Bft)
11.03.2019 14:12 -0,2 °C 74 % 1019,0 hPa 0,0 mm 16,3 km/h (3 Bft) W-SW 257 ° 0 min 0,000 mm 1,3 UV-I 176 W/m² -4,3 °C -4,9 °C 22,5 km/h (4 Bft)
11.03.2019 14:13 -0,2 °C 74 % 1019,0 hPa 0,0 mm 15,3 km/h (3 Bft) W-SW 256 ° 0 min 0,000 mm 1,3 UV-I 176 W/m² -4,3 °C -4,7 °C 24,1 km/h (4 Bft)
11.03.2019 14:14 -0,1 °C 74 % 1018,9 hPa 0,0 mm 8,9 km/h (2 Bft) W-SW 238 ° 0 min 0,000 mm 1,3 UV-I 176 W/m² -4,2 °C -3,1 °C 14,5 km/h (3 Bft)
11.03.2019 14:15 -0,2 °C 74 % 1018,9 hPa 0,0 mm 17,6 km/h (3 Bft) W 268 ° 0 min 0,000 mm 1,3 UV-I 176 W/m² -4,3 °C -5,1 °C 24,1 km/h (4 Bft)
11.03.2019 14:16 -0,2 °C 73 % 1018,9 hPa 0,0 mm 15,1 km/h (3 Bft) SW 234 ° 0 min 0,000 mm 1,4 UV-I 176 W/m² -4,4 °C -4,7 °C 20,9 km/h (4 Bft)
11.03.2019 14:17 -0,2 °C 73 % 1018,8 hPa 0,0 mm 11,7 km/h (2 Bft) NW 311 ° 0 min 0,000 mm 1,4 UV-I 174 W/m² -4,4 °C -4,0 °C 22,5 km/h (4 Bft)
11.03.2019 14:18 -0,2 °C 73 % 1018,8 hPa 0,0 mm 14,9 km/h (3 Bft) SW 217 ° 0 min 0,000 mm 1,4 UV-I 174 W/m² -4,4 °C -4,6 °C 19,3 km/h (3 Bft)
11.03.2019 14:19 -0,2 °C 73 % 1019,0 hPa 0,0 mm 14,5 km/h (3 Bft) SW 232 ° 0 min 0,000 mm 1,4 UV-I 174 W/m² -4,4 °C -4,6 °C 27,4 km/h (4 Bft)
11.03.2019 14:20 -0,2 °C 73 % 1019,0 hPa 0,0 mm 20,1 km/h (4 Bft) W-SW 242 ° 0 min 0,000 mm 1,4 UV-I 178 W/m² -4,4 °C -5,5 °C 30,6 km/h (5 Bft)
11.03.2019 14:21 -0,2 °C 73 % 1018,9 hPa 0,0 mm 12,8 km/h (3 Bft) W 269 ° 0 min 0,000 mm 1,4 UV-I 181 W/m² -4,4 °C -4,2 °C 19,3 km/h (3 Bft)
11.03.2019 14:22 -0,2 °C 73 % 1018,9 hPa 0,0 mm 15,3 km/h (3 Bft) W-SW 240 ° 0 min 0,000 mm 1,4 UV-I 185 W/m² -4,4 °C -4,7 °C 24,1 km/h (4 Bft)
11.03.2019 14:23 -0,2 °C 73 % 1019,0 hPa 0,0 mm 17,8 km/h (3 Bft) W-SW 242 ° 0 min 0,000 mm 1,4 UV-I 186 W/m² -4,4 °C -5,2 °C 29,0 km/h (5 Bft)
11.03.2019 14:24 -0,3 °C 73 % 1018,8 hPa 0,0 mm 13,1 km/h (3 Bft) W-SW 242 ° 0 min 0,000 mm 1,3 UV-I 186 W/m² -4,5 °C -4,4 °C 24,1 km/h (4 Bft)
11.03.2019 14:25 -0,3 °C 73 % 1018,8 hPa 0,0 mm 17,6 km/h (3 Bft) W-SW 250 ° 0 min 0,000 mm 1,3 UV-I 186 W/m² -4,5 °C -5,2 °C 30,6 km/h (5 Bft)
11.03.2019 14:26 -0,3 °C 73 % 1018,8 hPa 0,0 mm 19,0 km/h (3 Bft) W 275 ° 0 min 0,000 mm 1,3 UV-I 186 W/m² -4,5 °C -5,5 °C 30,6 km/h (5 Bft)
11.03.2019 14:27 -0,3 °C 74 % 1018,9 hPa 0,0 mm 20,9 km/h (4 Bft) W-SW 257 ° 0 min 0,000 mm 1,3 UV-I 185 W/m² -4,4 °C -5,8 °C 27,4 km/h (4 Bft)
11.03.2019 14:28 -0,3 °C 74 % 1019,0 hPa 0,0 mm 13,1 km/h (3 Bft) W 259 ° 0 min 0,000 mm 1,3 UV-I 183 W/m² -4,4 °C -4,4 °C 25,7 km/h (4 Bft)
11.03.2019 14:29 -0,3 °C 74 % 1018,9 hPa 0,0 mm 8,6 km/h (2 Bft) W-NW 295 ° 0 min 0,000 mm 1,3 UV-I 179 W/m² -4,4 °C -3,3 °C 14,5 km/h (3 Bft)
11.03.2019 14:30 -0,3 °C 74 % 1018,8 hPa 0,0 mm 19,4 km/h (3 Bft) W-SW 257 ° 0 min 0,000 mm 1,3 UV-I 171 W/m² -4,4 °C -5,5 °C 33,8 km/h (5 Bft)
11.03.2019 14:31 -0,3 °C 74 % 1019,0 hPa 0,0 mm 18,6 km/h (3 Bft) SW 236 ° 0 min 0,000 mm 1,2 UV-I 169 W/m² -4,4 °C -5,4 °C 27,4 km/h (4 Bft)
11.03.2019 14:32 -0,3 °C 74 % 1019,0 hPa 0,0 mm 15,7 km/h (3 Bft) W-SW 250 ° 0 min 0,000 mm 1,2 UV-I 171 W/m² -4,4 °C -4,9 °C 25,7 km/h (4 Bft)
11.03.2019 14:33 -0,3 °C 74 % 1019,0 hPa 0,0 mm 7,9 km/h (2 Bft) W-SW 257 ° 0 min 0,000 mm 1,2 UV-I 172 W/m² -4,4 °C -3,1 °C 12,9 km/h (3 Bft)
11.03.2019 14:34 -0,3 °C 74 % 1019,0 hPa 0,2 mm 12,0 km/h (2 Bft) W-SW 257 ° 0 min 0,000 mm 1,2 UV-I 174 W/m² -4,4 °C -4,2 °C 22,5 km/h (4 Bft)
11.03.2019 14:35 -0,3 °C 74 % 1019,0 hPa 0,0 mm 13,4 km/h (3 Bft) W-SW 241 ° 0 min 0,000 mm 1,3 UV-I 178 W/m² -4,4 °C -4,5 °C 24,1 km/h (4 Bft)
11.03.2019 14:36 -0,3 °C 74 % 1019,0 hPa 0,0 mm 12,3 km/h (3 Bft) W 271 ° 0 min 0,000 mm 1,3 UV-I 183 W/m² -4,4 °C -4,2 °C 22,5 km/h (4 Bft)
11.03.2019 14:37 -0,3 °C 75 % 1019,0 hPa 0,0 mm 12,6 km/h (3 Bft) W 259 ° 0 min 0,000 mm 1,3 UV-I 186 W/m² -4,2 °C -4,3 °C 16,1 km/h (3 Bft)
11.03.2019 14:38 -0,3 °C 75 % 1019,1 hPa 0,0 mm 12,4 km/h (3 Bft) W-NW 300 ° 0 min 0,000 mm 1,3 UV-I 188 W/m² -4,2 °C -4,3 °C 16,1 km/h (3 Bft)
11.03.2019 14:39 -0,3 °C 75 % 1019,2 hPa 0,0 mm 10,6 km/h (2 Bft) W 259 ° 0 min 0,000 mm 1,3 UV-I 192 W/m² -4,2 °C -3,8 °C 20,9 km/h (4 Bft)
11.03.2019 14:40 -0,3 °C 75 % 1019,2 hPa 0,0 mm 11,1 km/h (2 Bft) W 266 ° 0 min 0,000 mm 1,3 UV-I 195 W/m² -4,2 °C -4,0 °C 16,1 km/h (3 Bft)
11.03.2019 14:41 -0,2 °C 76 % 1019,2 hPa 0,0 mm 11,5 km/h (2 Bft) W-NW 282 ° 0 min 0,000 mm 1,3 UV-I 202 W/m² -3,9 °C -3,9 °C 24,1 km/h (4 Bft)
11.03.2019 14:42 -0,2 °C 75 % 1019,2 hPa 0,0 mm 18,8 km/h (3 Bft) W 259 ° 0 min 0,000 mm 1,3 UV-I 206 W/m² -4,1 °C -5,3 °C 29,0 km/h (5 Bft)
11.03.2019 14:43 -0,2 °C 75 % 1019,2 hPa 0,0 mm 16,2 km/h (3 Bft) W-NW 292 ° 0 min 0,000 mm 1,4 UV-I 211 W/m² -4,1 °C -4,9 °C 25,7 km/h (4 Bft)
11.03.2019 14:44 -0,2 °C 75 % 1019,3 hPa 0,0 mm 14,4 km/h (3 Bft) W 277 ° 0 min 0,000 mm 1,4 UV-I 213 W/m² -4,1 °C -4,5 °C 22,5 km/h (4 Bft)
11.03.2019 14:45 -0,2 °C 75 % 1019,3 hPa 0,0 mm 13,8 km/h (3 Bft) W-SW 246 ° 0 min 0,000 mm 1,4 UV-I 213 W/m² -4,1 °C -4,4 °C 20,9 km/h (4 Bft)
11.03.2019 14:46 -0,2 °C 75 % 1019,3 hPa 0,0 mm 16,3 km/h (3 Bft) W-SW 242 ° 0 min 0,000 mm 1,3 UV-I 211 W/m² -4,1 °C -4,9 °C 22,5 km/h (4 Bft)
11.03.2019 14:47 -0,2 °C 75 % 1019,5 hPa 0,0 mm 14,6 km/h (3 Bft) W-NW 290 ° 0 min 0,000 mm 1,3 UV-I 204 W/m² -4,1 °C -4,6 °C 22,5 km/h (4 Bft)
11.03.2019 14:48 -0,2 °C 75 % 1019,5 hPa 0,0 mm 13,8 km/h (3 Bft) W 273 ° 0 min 0,000 mm 1,3 UV-I 200 W/m² -4,1 °C -4,4 °C 20,9 km/h (4 Bft)
11.03.2019 14:49 -0,2 °C 75 % 1019,6 hPa 0,0 mm 15,3 km/h (3 Bft) W 269 ° 0 min 0,000 mm 1,3 UV-I 199 W/m² -4,1 °C -4,7 °C 27,4 km/h (4 Bft)
11.03.2019 14:50 -0,1 °C 75 % 1019,6 hPa 0,0 mm 15,1 km/h (3 Bft) W-SW 240 ° 0 min 0,000 mm 1,2 UV-I 193 W/m² -4,0 °C -4,6 °C 33,8 km/h (5 Bft)
11.03.2019 14:51 -0,1 °C 74 % 1019,6 hPa 0,0 mm 18,3 km/h (3 Bft) W-SW 249 ° 0 min 0,000 mm 1,2 UV-I 185 W/m² -4,2 °C -5,1 °C 35,4 km/h (5 Bft)
11.03.2019 14:52 -0,1 °C 75 % 1019,6 hPa 0,0 mm 15,6 km/h (3 Bft) W-SW 238 ° 0 min 0,000 mm 1,1 UV-I 174 W/m² -4,0 °C -4,7 °C 22,5 km/h (4 Bft)
11.03.2019 14:53 -0,1 °C 75 % 1019,7 hPa 0,0 mm 15,2 km/h (3 Bft) SW 227 ° 0 min 0,000 mm 1,1 UV-I 155 W/m² -4,0 °C -4,6 °C 22,5 km/h (4 Bft)
11.03.2019 14:54 -0,1 °C 75 % 1019,7 hPa 0,0 mm 19,8 km/h (3 Bft) SW 224 ° 0 min 0,000 mm 0,9 UV-I 146 W/m² -4,0 °C -5,3 °C 27,4 km/h (4 Bft)
11.03.2019 14:55 -0,1 °C 74 % 1019,8 hPa 0,0 mm 13,9 km/h (3 Bft) W-SW 256 ° 0 min 0,000 mm 0,9 UV-I 146 W/m² -4,2 °C -4,3 °C 20,9 km/h (4 Bft)
11.03.2019 14:56 -0,1 °C 74 % 1019,7 hPa 0,0 mm 16,3 km/h (3 Bft) W-SW 249 ° 0 min 0,000 mm 0,9 UV-I 146 W/m² -4,2 °C -4,8 °C 24,1 km/h (4 Bft)
11.03.2019 14:57 -0,1 °C 75 % 1019,6 hPa 0,0 mm 13,6 km/h (3 Bft) W-NW 284 ° 0 min 0,000 mm 0,9 UV-I 141 W/m² -4,0 °C -4,3 °C 20,9 km/h (4 Bft)
11.03.2019 14:58 -0,1 °C 75 % 1019,7 hPa 0,0 mm 14,9 km/h (3 Bft) W 259 ° 0 min 0,000 mm 0,9 UV-I 134 W/m² -4,0 °C -4,5 °C 27,4 km/h (4 Bft)
11.03.2019 14:59 -0,1 °C 75 % 1019,7 hPa 0,0 mm 17,8 km/h (3 Bft) SW 234 ° 0 min 0,000 mm 0,9 UV-I 148 W/m² -4,0 °C -5,0 °C 29,0 km/h (5 Bft)
11.03.2019 15:00 -0,2 °C 75 % 1019,6 hPa 0,0 mm 13,7 km/h (3 Bft) W 262 ° 0 min 0,000 mm 1,0 UV-I 155 W/m² -4,1 °C -4,4 °C 22,5 km/h (4 Bft)
11.03.2019 15:01 -0,2 °C 75 % 1019,7 hPa 0,0 mm 16,0 km/h (3 Bft) W-SW 239 ° 0 min 0,076 mm 1,0 UV-I 158 W/m² -4,1 °C -4,8 °C 24,1 km/h (4 Bft)
11.03.2019 15:02 -0,1 °C 75 % 1019,8 hPa 0,0 mm 14,3 km/h (3 Bft) SW 234 ° 0 min 0,000 mm 1,0 UV-I 158 W/m² -4,0 °C -4,4 °C 20,9 km/h (4 Bft)
11.03.2019 15:03 -0,2 °C 74 % 1019,8 hPa 0,0 mm 16,8 km/h (3 Bft) W-SW 249 ° 0 min 0,000 mm 0,9 UV-I 151 W/m² -4,3 °C -5,0 °C 24,1 km/h (4 Bft)
11.03.2019 15:04 -0,2 °C 75 % 1019,8 hPa 0,0 mm 15,0 km/h (3 Bft) W-SW 247 ° 0 min 0,000 mm 0,9 UV-I 142 W/m² -4,1 °C -4,7 °C 19,3 km/h (3 Bft)
11.03.2019 15:05 -0,1 °C 75 % 1019,8 hPa 0,0 mm 14,4 km/h (3 Bft) S 184 ° 0 min 0,000 mm 0,9 UV-I 146 W/m² -4,0 °C -4,4 °C 20,9 km/h (4 Bft)
11.03.2019 15:06 -0,2 °C 75 % 1019,9 hPa 0,0 mm 12,9 km/h (3 Bft) W 263 ° 0 min 0,000 mm 1,0 UV-I 156 W/m² -4,1 °C -4,2 °C 17,7 km/h (3 Bft)
11.03.2019 15:07 -0,2 °C 75 % 1019,8 hPa 0,0 mm 15,7 km/h (3 Bft) SW 217 ° 0 min 0,000 mm 1,0 UV-I 162 W/m² -4,1 °C -4,8 °C 27,4 km/h (4 Bft)
11.03.2019 15:08 -0,2 °C 75 % 1019,9 hPa 0,0 mm 17,0 km/h (3 Bft) W-SW 253 ° 0 min 0,000 mm 1,0 UV-I 156 W/m² -4,1 °C -5,0 °C 32,2 km/h (5 Bft)
11.03.2019 15:09 -0,2 °C 75 % 1019,9 hPa 0,0 mm 17,3 km/h (3 Bft) W 265 ° 0 min 0,000 mm 0,9 UV-I 144 W/m² -4,1 °C -5,1 °C 30,6 km/h (5 Bft)
11.03.2019 15:10 -0,2 °C 75 % 1020,0 hPa 0,0 mm 20,2 km/h (4 Bft) SW 235 ° 0 min 0,000 mm 0,9 UV-I 144 W/m² -4,1 °C -5,5 °C 30,6 km/h (5 Bft)
11.03.2019 15:11 -0,2 °C 75 % 1019,9 hPa 0,0 mm 13,6 km/h (3 Bft) W 270 ° 0 min 0,000 mm 1,0 UV-I 171 W/m² -4,1 °C -4,4 °C 17,7 km/h (3 Bft)
11.03.2019 15:12 -0,1 °C 75 % 1019,8 hPa 0,0 mm 14,8 km/h (3 Bft) W 273 ° 0 min 0,000 mm 1,1 UV-I 181 W/m² -4,0 °C -4,5 °C 22,5 km/h (4 Bft)
11.03.2019 15:13 -0,1 °C 75 % 1019,9 hPa 0,0 mm 11,7 km/h (2 Bft) W-SW 244 ° 0 min 0,000 mm 1,1 UV-I 174 W/m² -4,0 °C -3,9 °C 16,1 km/h (3 Bft)
11.03.2019 15:14 -0,1 °C 75 % 1020,0 hPa 0,0 mm 16,6 km/h (3 Bft) W 272 ° 0 min 0,000 mm 1,0 UV-I 162 W/m² -4,0 °C -4,8 °C 22,5 km/h (4 Bft)
11.03.2019 15:15 -0,1 °C 75 % 1020,0 hPa 0,0 mm 14,1 km/h (3 Bft) W-NW 292 ° 0 min 0,000 mm 1,0 UV-I 158 W/m² -4,0 °C -4,4 °C 22,5 km/h (4 Bft)
11.03.2019 15:16 -0,1 °C 75 % 1020,0 hPa 0,0 mm 10,9 km/h (2 Bft) W-SW 244 ° 0 min 0,000 mm 1,0 UV-I 155 W/m² -4,0 °C -3,7 °C 19,3 km/h (3 Bft)
11.03.2019 15:17 -0,1 °C 75 % 1020,0 hPa 0,0 mm 10,1 km/h (2 Bft) W 271 ° 0 min 0,000 mm 1,0 UV-I 160 W/m² -4,0 °C -3,5 °C 14,5 km/h (3 Bft)
11.03.2019 15:18 -0,1 °C 75 % 1020,0 hPa 0,0 mm 14,6 km/h (3 Bft) W 271 ° 0 min 0,000 mm 1,0 UV-I 165 W/m² -4,0 °C -4,5 °C 22,5 km/h (4 Bft)
11.03.2019 15:19 -0,1 °C 75 % 1020,1 hPa 0,0 mm 14,1 km/h (3 Bft) SW 215 ° 0 min 0,000 mm 1,0 UV-I 162 W/m² -4,0 °C -4,4 °C 19,3 km/h (3 Bft)
11.03.2019 15:20 -0,1 °C 75 % 1020,1 hPa 0,0 mm 13,5 km/h (3 Bft) W-NW 296 ° 0 min 0,000 mm 0,9 UV-I 146 W/m² -4,0 °C -4,2 °C 20,9 km/h (4 Bft)
11.03.2019 15:21 -0,1 °C 75 % 1020,0 hPa 0,0 mm 18,8 km/h (3 Bft) W-SW 241 ° 0 min 0,000 mm 0,8 UV-I 134 W/m² -4,0 °C -5,2 °C 24,1 km/h (4 Bft)
11.03.2019 15:22 -0,1 °C 75 % 1020,1 hPa 0,0 mm 12,5 km/h (3 Bft) W 259 ° 0 min 0,000 mm 0,8 UV-I 125 W/m² -4,0 °C -4,0 °C 19,3 km/h (3 Bft)
11.03.2019 15:23 -0,1 °C 75 % 1020,2 hPa 0,0 mm 13,1 km/h (3 Bft) W-SW 245 ° 0 min 0,000 mm 0,8 UV-I 130 W/m² -4,0 °C -4,2 °C 22,5 km/h (4 Bft)
11.03.2019 15:24 -0,1 °C 74 % 1020,2 hPa 0,0 mm 17,6 km/h (3 Bft) W-NW 292 ° 0 min 0,000 mm 0,9 UV-I 135 W/m² -4,2 °C -5,0 °C 22,5 km/h (4 Bft)
11.03.2019 15:25 -0,1 °C 75 % 1020,2 hPa 0,0 mm 17,9 km/h (3 Bft) W-SW 238 ° 0 min 0,000 mm 0,9 UV-I 137 W/m² -4,0 °C -5,0 °C 25,7 km/h (4 Bft)
11.03.2019 15:26 -0,1 °C 74 % 1020,3 hPa 0,0 mm 20,9 km/h (4 Bft) W-SW 242 ° 0 min 0,000 mm 0,9 UV-I 146 W/m² -4,2 °C -5,5 °C 27,4 km/h (4 Bft)
11.03.2019 15:27 -0,2 °C 74 % 1020,3 hPa 0,0 mm 14,0 km/h (3 Bft) SW 233 ° 0 min 0,000 mm 0,9 UV-I 151 W/m² -4,3 °C -4,5 °C 22,5 km/h (4 Bft)
11.03.2019 15:28 -0,1 °C 74 % 1020,3 hPa 0,0 mm 19,4 km/h (3 Bft) W-SW 253 ° 0 min 0,000 mm 0,9 UV-I 151 W/m² -4,2 °C -5,3 °C 30,6 km/h (5 Bft)
11.03.2019 15:29 -0,2 °C 74 % 1020,3 hPa 0,0 mm 19,2 km/h (3 Bft) W 267 ° 0 min 0,000 mm 0,9 UV-I 130 W/m² -4,3 °C -5,4 °C 30,6 km/h (5 Bft)
11.03.2019 15:30 -0,2 °C 74 % 1020,4 hPa 0,0 mm 17,0 km/h (3 Bft) W-SW 256 ° 0 min 0,000 mm 0,8 UV-I 132 W/m² -4,3 °C -5,0 °C 24,1 km/h (4 Bft)
11.03.2019 15:31 -0,2 °C 74 % 1020,4 hPa 0,0 mm 12,7 km/h (3 Bft) W 271 ° 0 min 0,000 mm 0,9 UV-I 139 W/m² -4,3 °C -4,2 °C 16,1 km/h (3 Bft)
11.03.2019 15:32 -0,2 °C 75 % 1020,5 hPa 0,0 mm 17,7 km/h (3 Bft) SW 231 ° 0 min 0,000 mm 0,9 UV-I 137 W/m² -4,1 °C -5,1 °C 27,4 km/h (4 Bft)
11.03.2019 15:33 -0,2 °C 74 % 1020,5 hPa 0,0 mm 19,4 km/h (3 Bft) S-SW 198 ° 0 min 0,000 mm 0,9 UV-I 141 W/m² -4,3 °C -5,4 °C 25,7 km/h (4 Bft)
11.03.2019 15:34 -0,2 °C 74 % 1020,5 hPa 0,0 mm 19,6 km/h (3 Bft) W-SW 253 ° 0 min 0,000 mm 0,9 UV-I 128 W/m² -4,3 °C -5,4 °C 29,0 km/h (5 Bft)
11.03.2019 15:35 -0,2 °C 74 % 1020,6 hPa 0,0 mm 18,1 km/h (3 Bft) W-SW 250 ° 0 min 0,000 mm 0,8 UV-I 120 W/m² -4,3 °C -5,2 °C 24,1 km/h (4 Bft)
11.03.2019 15:36 -0,2 °C 74 % 1020,6 hPa 0,0 mm 14,3 km/h (3 Bft) W 259 ° 0 min 0,000 mm 0,8 UV-I 120 W/m² -4,3 °C -4,5 °C 20,9 km/h (4 Bft)
11.03.2019 15:37 -0,2 °C 75 % 1020,7 hPa 0,0 mm 16,5 km/h (3 Bft) W 277 ° 0 min 0,000 mm 0,8 UV-I 123 W/m² -4,1 °C -4,9 °C 30,6 km/h (5 Bft)
11.03.2019 15:38 -0,2 °C 74 % 1020,7 hPa 0,0 mm 17,2 km/h (3 Bft) W 273 ° 0 min 0,000 mm 0,8 UV-I 120 W/m² -4,3 °C -5,1 °C 24,1 km/h (4 Bft)
11.03.2019 15:39 -0,2 °C 74 % 1020,7 hPa 0,0 mm 13,9 km/h (3 Bft) SW 219 ° 0 min 0,000 mm 0,7 UV-I 118 W/m² -4,3 °C -4,4 °C 20,9 km/h (4 Bft)
11.03.2019 15:40 -0,2 °C 74 % 1020,8 hPa 0,0 mm 14,7 km/h (3 Bft) S-SW 192 ° 0 min 0,000 mm 0,7 UV-I 114 W/m² -4,3 °C -4,6 °C 20,9 km/h (4 Bft)
11.03.2019 15:41 -0,2 °C 74 % 1020,8 hPa 0,0 mm 21,5 km/h (4 Bft) W-NW 290 ° 0 min 0,000 mm 0,7 UV-I 114 W/m² -4,3 °C -5,7 °C 32,2 km/h (5 Bft)
11.03.2019 15:42 -0,2 °C 74 % 1020,8 hPa 0,0 mm 12,3 km/h (3 Bft) W-SW 241 ° 0 min 0,000 mm 0,7 UV-I 109 W/m² -4,3 °C -4,1 °C 14,5 km/h (3 Bft)
11.03.2019 15:43 -0,2 °C 75 % 1020,9 hPa 0,0 mm 15,0 km/h (3 Bft) W-NW 300 ° 0 min 0,000 mm 0,6 UV-I 104 W/m² -4,1 °C -4,7 °C 19,3 km/h (3 Bft)
11.03.2019 15:44 -0,2 °C 74 % 1020,8 hPa 0,0 mm 18,7 km/h (3 Bft) W 273 ° 0 min 0,000 mm 0,5 UV-I 88 W/m² -4,3 °C -5,3 °C 24,1 km/h (4 Bft)
11.03.2019 15:45 -0,2 °C 74 % 1020,9 hPa 0,0 mm 18,9 km/h (3 Bft) W-SW 258 ° 0 min 0,000 mm 0,5 UV-I 76 W/m² -4,3 °C -5,3 °C 25,7 km/h (4 Bft)
11.03.2019 15:46 -0,2 °C 74 % 1021,0 hPa 0,0 mm 15,1 km/h (3 Bft) W 273 ° 0 min 0,000 mm 0,5 UV-I 70 W/m² -4,3 °C -4,7 °C 19,3 km/h (3 Bft)
11.03.2019 15:47 -0,3 °C 74 % 1021,0 hPa 0,0 mm 8,6 km/h (2 Bft) W-SW 249 ° 0 min 0,000 mm 0,5 UV-I 70 W/m² -4,4 °C -3,3 °C 12,9 km/h (3 Bft)
11.03.2019 15:48 -0,3 °C 74 % 1021,0 hPa 0,0 mm 13,7 km/h (3 Bft) W 270 ° 0 min 0,000 mm 0,6 UV-I 77 W/m² -4,4 °C -4,5 °C 20,9 km/h (4 Bft)
11.03.2019 15:49 -0,3 °C 75 % 1021,1 hPa 0,0 mm 15,6 km/h (3 Bft) W 265 ° 0 min 0,000 mm 0,7 UV-I 97 W/m² -4,2 °C -4,9 °C 19,3 km/h (3 Bft)
11.03.2019 15:50 -0,3 °C 75 % 1021,1 hPa 0,0 mm 12,1 km/h (2 Bft) W 260 ° 0 min 0,000 mm 0,8 UV-I 130 W/m² -4,2 °C -4,2 °C 20,9 km/h (4 Bft)
11.03.2019 15:51 -0,3 °C 75 % 1021,1 hPa 0,0 mm 13,0 km/h (3 Bft) W 273 ° 0 min 0,000 mm 0,8 UV-I 153 W/m² -4,2 °C -4,4 °C 17,7 km/h (3 Bft)
11.03.2019 15:52 -0,2 °C 75 % 1021,2 hPa 0,0 mm 15,1 km/h (3 Bft) W 259 ° 0 min 0,000 mm 1,0 UV-I 160 W/m² -4,1 °C -4,7 °C 19,3 km/h (3 Bft)
11.03.2019 15:53 -0,2 °C 75 % 1021,2 hPa 0,0 mm 16,3 km/h (3 Bft) NW 312 ° 0 min 0,000 mm 0,9 UV-I 153 W/m² -4,1 °C -4,9 °C 20,9 km/h (4 Bft)
11.03.2019 15:54 -0,2 °C 75 % 1021,2 hPa 0,0 mm 20,3 km/h (4 Bft) W-SW 254 ° 0 min 0,000 mm 0,9 UV-I 141 W/m² -4,1 °C -5,5 °C 27,4 km/h (4 Bft)
11.03.2019 15:55 -0,2 °C 75 % 1021,3 hPa 0,0 mm 19,2 km/h (3 Bft) W-NW 292 ° 0 min 0,000 mm 0,8 UV-I 125 W/m² -4,1 °C -5,4 °C 27,4 km/h (4 Bft)
11.03.2019 15:56 -0,2 °C 75 % 1021,3 hPa 0,0 mm 17,5 km/h (3 Bft) W 271 ° 0 min 0,000 mm 0,8 UV-I 111 W/m² -4,1 °C -5,1 °C 24,1 km/h (4 Bft)
11.03.2019 15:57 -0,2 °C 75 % 1021,3 hPa 0,0 mm 14,3 km/h (3 Bft) W 280 ° 0 min 0,000 mm 0,7 UV-I 102 W/m² -4,1 °C -4,5 °C 20,9 km/h (4 Bft)
11.03.2019 15:58 -0,2 °C 75 % 1021,3 hPa 0,0 mm 10,5 km/h (2 Bft) W 263 ° 0 min 0,000 mm 0,7 UV-I 113 W/m² -4,1 °C -3,7 °C 17,7 km/h (3 Bft)
11.03.2019 15:59 -0,2 °C 75 % 1021,3 hPa 0,0 mm 13,5 km/h (3 Bft) W-SW 250 ° 0 min 0,000 mm 0,8 UV-I 120 W/m² -4,1 °C -4,4 °C 20,9 km/h (4 Bft)
11.03.2019 16:00 -0,2 °C 75 % 1021,3 hPa 0,0 mm 12,9 km/h (3 Bft) W-SW 250 ° 0 min 0,076 mm 0,8 UV-I 123 W/m² -4,1 °C -4,2 °C 20,9 km/h (4 Bft)
11.03.2019 16:01 -0,2 °C 75 % 1021,3 hPa 0,0 mm 13,8 km/h (3 Bft) W-SW 239 ° 0 min 0,000 mm 0,8 UV-I 121 W/m² -4,1 °C -4,4 °C 22,5 km/h (4 Bft)
11.03.2019 16:02 -0,2 °C 75 % 1021,3 hPa 0,0 mm 9,8 km/h (2 Bft) W 270 ° 0 min 0,000 mm 0,8 UV-I 116 W/m² -4,1 °C -3,5 °C 17,7 km/h (3 Bft)
11.03.2019 16:03 -0,2 °C 75 % 1021,3 hPa 0,0 mm 13,1 km/h (3 Bft) W 265 ° 0 min 0,000 mm 0,8 UV-I 114 W/m² -4,1 °C -4,3 °C 19,3 km/h (3 Bft)
11.03.2019 16:04 -0,2 °C 75 % 1021,4 hPa 0,0 mm 15,4 km/h (3 Bft) W-SW 244 ° 0 min 0,000 mm 0,7 UV-I 116 W/m² -4,1 °C -4,7 °C 22,5 km/h (4 Bft)
11.03.2019 16:05 -0,2 °C 75 % 1021,5 hPa 0,0 mm 15,9 km/h (3 Bft) W 265 ° 0 min 0,000 mm 0,7 UV-I 116 W/m² -4,1 °C -4,8 °C 22,5 km/h (4 Bft)
11.03.2019 16:06 -0,2 °C 75 % 1021,4 hPa 0,0 mm 20,0 km/h (4 Bft) W 263 ° 0 min 0,000 mm 0,7 UV-I 111 W/m² -4,1 °C -5,5 °C 27,4 km/h (4 Bft)
11.03.2019 16:07 -0,2 °C 75 % 1021,4 hPa 0,0 mm 18,0 km/h (3 Bft) W 275 ° 0 min 0,000 mm 0,6 UV-I 98 W/m² -4,1 °C -5,2 °C 27,4 km/h (4 Bft)
11.03.2019 16:08 -0,2 °C 75 % 1021,4 hPa 0,0 mm 14,8 km/h (3 Bft) W 261 ° 0 min 0,000 mm 0,6 UV-I 90 W/m² -4,1 °C -4,6 °C 17,7 km/h (3 Bft)
11.03.2019 16:09 -0,2 °C 75 % 1021,5 hPa 0,0 mm 14,6 km/h (3 Bft) W-NW 286 ° 0 min 0,000 mm 0,6 UV-I 76 W/m² -4,1 °C -4,6 °C 20,9 km/h (4 Bft)
11.03.2019 16:10 -0,2 °C 75 % 1021,4 hPa 0,0 mm 13,9 km/h (3 Bft) S-SW 210 ° 0 min 0,000 mm 0,5 UV-I 65 W/m² -4,1 °C -4,4 °C 22,5 km/h (4 Bft)
11.03.2019 16:11 -0,2 °C 75 % 1021,4 hPa 0,0 mm 14,8 km/h (3 Bft) W 273 ° 0 min 0,000 mm 0,0 UV-I 60 W/m² -4,1 °C -4,6 °C 29,0 km/h (5 Bft)
11.03.2019 16:12 -0,2 °C 75 % 1021,5 hPa 0,0 mm 16,4 km/h (3 Bft) SW 223 ° 0 min 0,000 mm 0,5 UV-I 60 W/m² -4,1 °C -4,9 °C 25,7 km/h (4 Bft)
11.03.2019 16:13 -0,2 °C 75 % 1021,5 hPa 0,0 mm 11,3 km/h (2 Bft) W 269 ° 0 min 0,000 mm 0,5 UV-I 63 W/m² -4,1 °C -3,9 °C 16,1 km/h (3 Bft)
11.03.2019 16:14 -0,3 °C 75 % 1021,4 hPa 0,0 mm 11,1 km/h (2 Bft) SW 233 ° 0 min 0,000 mm 0,5 UV-I 63 W/m² -4,2 °C -4,0 °C 19,3 km/h (3 Bft)
11.03.2019 16:15 -0,3 °C 75 % 1021,4 hPa 0,0 mm 9,4 km/h (2 Bft) W-SW 246 ° 0 min 0,000 mm 0,5 UV-I 62 W/m² -4,2 °C -3,5 °C 16,1 km/h (3 Bft)
11.03.2019 16:16 -0,3 °C 75 % 1021,4 hPa 0,0 mm 18,6 km/h (3 Bft) W-SW 257 ° 0 min 0,000 mm 0,0 UV-I 60 W/m² -4,2 °C -5,4 °C 25,7 km/h (4 Bft)
11.03.2019 16:17 -0,3 °C 75 % 1021,5 hPa 0,0 mm 18,6 km/h (3 Bft) W-SW 247 ° 0 min 0,000 mm 0,0 UV-I 62 W/m² -4,2 °C -5,4 °C 22,5 km/h (4 Bft)
11.03.2019 16:18 -0,3 °C 75 % 1021,5 hPa 0,0 mm 11,5 km/h (2 Bft) SW 232 ° 0 min 0,000 mm 0,0 UV-I 72 W/m² -4,2 °C -4,0 °C 20,9 km/h (4 Bft)
11.03.2019 16:19 -0,3 °C 75 % 1021,4 hPa 0,0 mm 13,5 km/h (3 Bft) W 264 ° 0 min 0,000 mm 0,0 UV-I 81 W/m² -4,2 °C -4,5 °C 22,5 km/h (4 Bft)
11.03.2019 16:20 -0,3 °C 75 % 1021,4 hPa 0,0 mm 17,8 km/h (3 Bft) W-SW 246 ° 0 min 0,000 mm 0,0 UV-I 84 W/m² -4,2 °C -5,3 °C 25,7 km/h (4 Bft)
11.03.2019 16:21 -0,3 °C 75 % 1021,4 hPa 0,0 mm 10,8 km/h (2 Bft) W 270 ° 0 min 0,000 mm 0,0 UV-I 95 W/m² -4,2 °C -3,9 °C 16,1 km/h (3 Bft)
11.03.2019 16:22 -0,3 °C 76 % 1021,5 hPa 0,0 mm 11,7 km/h (2 Bft) W-SW 244 ° 0 min 0,000 mm 0,5 UV-I 105 W/m² -4,0 °C -4,1 °C 24,1 km/h (4 Bft)
11.03.2019 16:23 -0,3 °C 75 % 1021,5 hPa 0,0 mm 20,1 km/h (4 Bft) W 265 ° 0 min 0,000 mm 0,6 UV-I 118 W/m² -4,2 °C -5,6 °C 25,7 km/h (4 Bft)
11.03.2019 16:24 -0,3 °C 75 % 1021,5 hPa 0,0 mm 9,9 km/h (2 Bft) W-NW 286 ° 0 min 0,000 mm 0,6 UV-I 116 W/m² -4,2 °C -3,6 °C 17,7 km/h (3 Bft)
11.03.2019 16:25 -0,3 °C 76 % 1021,4 hPa 0,0 mm 14,8 km/h (3 Bft) W-NW 284 ° 0 min 0,000 mm 0,6 UV-I 114 W/m² -4,0 °C -4,7 °C 17,7 km/h (3 Bft)
11.03.2019 16:26 -0,3 °C 76 % 1021,5 hPa 0,0 mm 8,1 km/h (2 Bft) W 267 ° 0 min 0,000 mm 0,6 UV-I 116 W/m² -4,0 °C -3,1 °C 16,1 km/h (3 Bft)
11.03.2019 16:27 -0,2 °C 76 % 1021,4 hPa 0,0 mm 9,5 km/h (2 Bft) W-SW 257 ° 0 min 0,000 mm 0,7 UV-I 109 W/m² -3,9 °C -3,4 °C 16,1 km/h (3 Bft)
11.03.2019 16:28 -0,3 °C 76 % 1021,4 hPa 0,0 mm 13,3 km/h (3 Bft) W-SW 247 ° 0 min 0,000 mm 0,7 UV-I 105 W/m² -4,0 °C -4,4 °C 20,9 km/h (4 Bft)
11.03.2019 16:29 -0,2 °C 76 % 1021,4 hPa 0,0 mm 7,5 km/h (2 Bft) SW 220 ° 0 min 0,000 mm 0,7 UV-I 100 W/m² -3,9 °C -2,8 °C 12,9 km/h (3 Bft)
11.03.2019 16:30 -0,2 °C 76 % 1021,4 hPa 0,0 mm 10,1 km/h (2 Bft) W-SW 255 ° 0 min 0,000 mm 0,7 UV-I 102 W/m² -3,9 °C -3,6 °C 14,5 km/h (3 Bft)
11.03.2019 16:31 -0,2 °C 76 % 1021,4 hPa 0,0 mm 14,6 km/h (3 Bft) W 263 ° 0 min 0,000 mm 0,7 UV-I 104 W/m² -3,9 °C -4,6 °C 17,7 km/h (3 Bft)
11.03.2019 16:32 -0,2 °C 76 % 1021,3 hPa 0,0 mm 13,3 km/h (3 Bft) W 277 ° 0 min 0,000 mm 0,7 UV-I 93 W/m² -3,9 °C -4,3 °C 24,1 km/h (4 Bft)
11.03.2019 16:33 -0,2 °C 75 % 1021,4 hPa 0,0 mm 17,6 km/h (3 Bft) W 260 ° 0 min 0,000 mm 0,7 UV-I 60 W/m² -4,1 °C -5,1 °C 29,0 km/h (5 Bft)
11.03.2019 16:34 -0,3 °C 76 % 1021,4 hPa 0,0 mm 15,6 km/h (3 Bft) SW 228 ° 0 min 0,000 mm 0,0 UV-I 51 W/m² -4,0 °C -4,9 °C 20,9 km/h (4 Bft)
11.03.2019 16:35 -0,3 °C 76 % 1021,3 hPa 0,0 mm 16,8 km/h (3 Bft) W-SW 257 ° 0 min 0,000 mm 0,0 UV-I 51 W/m² -4,0 °C -5,1 °C 22,5 km/h (4 Bft)
11.03.2019 16:36 -0,3 °C 76 % 1021,4 hPa 0,0 mm 14,3 km/h (3 Bft) SW 232 ° 0 min 0,000 mm 0,0 UV-I 54 W/m² -4,0 °C -4,7 °C 20,9 km/h (4 Bft)
11.03.2019 16:37 -0,3 °C 76 % 1021,4 hPa 0,0 mm 8,1 km/h (2 Bft) W-SW 252 ° 0 min 0,000 mm 0,7 UV-I 74 W/m² -4,0 °C -3,1 °C 17,7 km/h (3 Bft)
11.03.2019 16:38 -0,3 °C 76 % 1021,4 hPa 0,0 mm 11,6 km/h (2 Bft) W 265 ° 0 min 0,000 mm 0,7 UV-I 83 W/m² -4,0 °C -4,1 °C 17,7 km/h (3 Bft)
11.03.2019 16:39 -0,3 °C 76 % 1021,4 hPa 0,0 mm 13,2 km/h (3 Bft) SW 236 ° 0 min 0,000 mm 0,7 UV-I 100 W/m² -4,0 °C -4,4 °C 20,9 km/h (4 Bft)
11.03.2019 16:40 -0,3 °C 76 % 1021,4 hPa 0,0 mm 9,7 km/h (2 Bft) W 265 ° 0 min 0,000 mm 0,6 UV-I 74 W/m² -4,0 °C -3,6 °C 19,3 km/h (3 Bft)
11.03.2019 16:41 -0,4 °C 76 % 1021,3 hPa 0,0 mm 8,2 km/h (2 Bft) SW 214 ° 0 min 0,000 mm 0,6 UV-I 69 W/m² -4,1 °C -3,3 °C 12,9 km/h (3 Bft)
11.03.2019 16:42 -0,4 °C 76 % 1021,3 hPa 0,0 mm 9,9 km/h (2 Bft) SW 228 ° 0 min 0,000 mm 0,6 UV-I 67 W/m² -4,1 °C -3,8 °C 17,7 km/h (3 Bft)
11.03.2019 16:43 -0,4 °C 76 % 1021,3 hPa 0,0 mm 12,7 km/h (3 Bft) SW 227 ° 0 min 0,000 mm 0,6 UV-I 62 W/m² -4,1 °C -4,4 °C 19,3 km/h (3 Bft)
11.03.2019 16:44 -0,4 °C 76 % 1021,3 hPa 0,0 mm 17,4 km/h (3 Bft) W-NW 290 ° 0 min 0,000 mm 0,0 UV-I 42 W/m² -4,1 °C -5,3 °C 24,1 km/h (4 Bft)
11.03.2019 16:45 -0,4 °C 77 % 1021,3 hPa 0,0 mm 11,5 km/h (2 Bft) W-SW 237 ° 0 min 0,000 mm 0,0 UV-I 35 W/m² -3,9 °C -4,2 °C 22,5 km/h (4 Bft)
11.03.2019 16:46 -0,4 °C 76 % 1021,3 hPa 0,0 mm 14,5 km/h (3 Bft) W 264 ° 0 min 0,000 mm 0,0 UV-I 32 W/m² -4,1 °C -4,8 °C 24,1 km/h (4 Bft)
11.03.2019 16:47 -0,5 °C 76 % 1021,2 hPa 0,0 mm 17,6 km/h (3 Bft) W 267 ° 0 min 0,000 mm 0,0 UV-I 33 W/m² -4,2 °C -5,5 °C 30,6 km/h (5 Bft)
11.03.2019 16:48 -0,5 °C 77 % 1021,3 hPa 0,0 mm 15,6 km/h (3 Bft) W-SW 238 ° 0 min 0,000 mm 0,0 UV-I 35 W/m² -4,0 °C -5,1 °C 25,7 km/h (4 Bft)
11.03.2019 16:49 -0,5 °C 77 % 1021,3 hPa 0,0 mm 12,3 km/h (3 Bft) W 259 ° 0 min 0,000 mm 0,0 UV-I 35 W/m² -4,0 °C -4,5 °C 19,3 km/h (3 Bft)
11.03.2019 16:50 -0,5 °C 77 % 1021,3 hPa 0,0 mm 9,5 km/h (2 Bft) W-SW 252 ° 0 min 0,000 mm 0,0 UV-I 37 W/m² -4,0 °C -3,8 °C 17,7 km/h (3 Bft)
11.03.2019 16:51 -0,6 °C 77 % 1021,3 hPa 0,0 mm 7,2 km/h (2 Bft) W 259 ° 0 min 0,000 mm 0,0 UV-I 42 W/m² -4,1 °C -3,2 °C 12,9 km/h (3 Bft)
11.03.2019 16:52 -0,5 °C 77 % 1021,3 hPa 0,0 mm 17,2 km/h (3 Bft) W-SW 255 ° 0 min 0,000 mm 0,0 UV-I 47 W/m² -4,0 °C -5,4 °C 24,1 km/h (4 Bft)
11.03.2019 16:53 -0,5 °C 77 % 1021,2 hPa 0,0 mm 13,5 km/h (3 Bft) W-SW 248 ° 0 min 0,000 mm 0,0 UV-I 53 W/m² -4,0 °C -4,7 °C 22,5 km/h (4 Bft)
11.03.2019 16:54 -0,5 °C 77 % 1021,3 hPa 0,0 mm 11,2 km/h (2 Bft) W-NW 284 ° 0 min 0,000 mm 0,0 UV-I 58 W/m² -4,0 °C -4,2 °C 17,7 km/h (3 Bft)
11.03.2019 16:55 -0,5 °C 77 % 1021,2 hPa 0,0 mm 15,3 km/h (3 Bft) SW 217 ° 0 min 0,000 mm 0,0 UV-I 67 W/m² -4,0 °C -5,1 °C 24,1 km/h (4 Bft)
11.03.2019 16:56 -0,5 °C 77 % 1021,2 hPa 0,0 mm 15,5 km/h (3 Bft) W-SW 254 ° 0 min 0,000 mm 0,0 UV-I 88 W/m² -4,0 °C -5,1 °C 24,1 km/h (4 Bft)
11.03.2019 16:57 -0,5 °C 78 % 1021,2 hPa 0,0 mm 19,6 km/h (3 Bft) W-SW 253 ° 0 min 0,000 mm 0,5 UV-I 100 W/m² -3,9 °C -5,8 °C 29,0 km/h (5 Bft)
11.03.2019 16:58 -0,5 °C 78 % 1021,2 hPa 0,0 mm 12,1 km/h (2 Bft) SW 234 ° 0 min 0,000 mm 0,5 UV-I 111 W/m² -3,9 °C -4,4 °C 14,5 km/h (3 Bft)
11.03.2019 16:59 -0,6 °C 78 % 1021,2 hPa 0,0 mm 10,6 km/h (2 Bft) S-SW 204 ° 0 min 0,000 mm 0,5 UV-I 111 W/m² -3,9 °C -4,2 °C 17,7 km/h (3 Bft)
11.03.2019 17:00 -0,6 °C 78 % 1021,2 hPa 0,0 mm 12,7 km/h (3 Bft) W-SW 251 ° 0 min 0,051 mm 0,5 UV-I 95 W/m² -3,9 °C -4,7 °C 19,3 km/h (3 Bft)
11.03.2019 17:01 -0,6 °C 78 % 1021,2 hPa 0,0 mm 13,0 km/h (3 Bft) W-SW 257 ° 0 min 0,000 mm 0,5 UV-I 76 W/m² -3,9 °C -4,8 °C 20,9 km/h (4 Bft)
11.03.2019 17:02 -0,6 °C 78 % 1021,2 hPa 0,0 mm 8,9 km/h (2 Bft) SW 226 ° 0 min 0,000 mm 0,5 UV-I 53 W/m² -3,9 °C -3,7 °C 12,9 km/h (3 Bft)
11.03.2019 17:03 -0,6 °C 78 % 1021,3 hPa 0,0 mm 12,5 km/h (3 Bft) W-SW 241 ° 0 min 0,000 mm 0,0 UV-I 42 W/m² -3,9 °C -4,6 °C 24,1 km/h (4 Bft)
11.03.2019 17:04 -0,6 °C 78 % 1021,3 hPa 0,0 mm 12,2 km/h (2 Bft) W-SW 257 ° 0 min 0,000 mm 0,0 UV-I 35 W/m² -3,9 °C -4,6 °C 19,3 km/h (3 Bft)
11.03.2019 17:05 -0,6 °C 77 % 1021,3 hPa 0,0 mm 14,1 km/h (3 Bft) W 265 ° 0 min 0,000 mm 0,0 UV-I 35 W/m² -4,1 °C -5,0 °C 19,3 km/h (3 Bft)
11.03.2019 17:06 -0,6 °C 77 % 1021,4 hPa 0,0 mm 15,2 km/h (3 Bft) W-NW 300 ° 0 min 0,000 mm 0,0 UV-I 35 W/m² -4,1 °C -5,2 °C 19,3 km/h (3 Bft)
11.03.2019 17:07 -0,6 °C 77 % 1021,4 hPa 0,0 mm 12,1 km/h (2 Bft) W-SW 247 ° 0 min 0,000 mm 0,0 UV-I 37 W/m² -4,1 °C -4,6 °C 17,7 km/h (3 Bft)
11.03.2019 17:08 -0,6 °C 77 % 1021,4 hPa 0,0 mm 16,1 km/h (3 Bft) W 267 ° 0 min 0,000 mm 0,0 UV-I 37 W/m² -4,1 °C -5,4 °C 27,4 km/h (4 Bft)
11.03.2019 17:09 -0,6 °C 77 % 1021,4 hPa 0,0 mm 19,2 km/h (3 Bft) W 262 ° 0 min 0,000 mm 0,0 UV-I 32 W/m² -4,1 °C -5,9 °C 24,1 km/h (4 Bft)
11.03.2019 17:10 -0,6 °C 77 % 1021,4 hPa 0,0 mm 16,8 km/h (3 Bft) W 262 ° 0 min 0,000 mm 0,0 UV-I 30 W/m² -4,1 °C -5,5 °C 20,9 km/h (4 Bft)
11.03.2019 17:11 -0,6 °C 77 % 1021,4 hPa 0,0 mm 14,1 km/h (3 Bft) W 269 ° 0 min 0,000 mm 0,0 UV-I 30 W/m² -4,1 °C -5,0 °C 19,3 km/h (3 Bft)
11.03.2019 17:12 -0,7 °C 77 % 1021,3 hPa 0,0 mm 11,5 km/h (2 Bft) W 273 ° 0 min 0,000 mm 0,0 UV-I 30 W/m² -4,2 °C -4,5 °C 16,1 km/h (3 Bft)
11.03.2019 17:13 -0,7 °C 77 % 1021,4 hPa 0,0 mm 14,6 km/h (3 Bft) SW 232 ° 0 min 0,000 mm 0,0 UV-I 33 W/m² -4,2 °C -5,2 °C 19,3 km/h (3 Bft)
11.03.2019 17:14 -0,7 °C 77 % 1021,4 hPa 0,0 mm 16,9 km/h (3 Bft) W 277 ° 0 min 0,000 mm 0,0 UV-I 42 W/m² -4,2 °C -5,6 °C 29,0 km/h (5 Bft)
11.03.2019 17:15 -0,7 °C 77 % 1021,4 hPa 0,0 mm 14,4 km/h (3 Bft) W-SW 246 ° 0 min 0,000 mm 0,0 UV-I 44 W/m² -4,2 °C -5,2 °C 24,1 km/h (4 Bft)
11.03.2019 17:16 -0,7 °C 77 % 1021,5 hPa 0,0 mm 14,6 km/h (3 Bft) W-NW 288 ° 0 min 0,000 mm 0,0 UV-I 40 W/m² -4,2 °C -5,2 °C 19,3 km/h (3 Bft)
11.03.2019 17:17 -0,6 °C 77 % 1021,4 hPa 0,0 mm 16,9 km/h (3 Bft) W 277 ° 0 min 0,000 mm 0,0 UV-I 35 W/m² -4,1 °C -5,5 °C 24,1 km/h (4 Bft)
11.03.2019 17:18 -0,6 °C 77 % 1021,4 hPa 0,0 mm 15,9 km/h (3 Bft) W-SW 250 ° 0 min 0,000 mm 0,0 UV-I 32 W/m² -4,1 °C -5,3 °C 22,5 km/h (4 Bft)
11.03.2019 17:19 -0,6 °C 77 % 1021,4 hPa 0,0 mm 23,3 km/h (4 Bft) W-SW 241 ° 0 min 0,000 mm 0,0 UV-I 32 W/m² -4,1 °C -6,5 °C 40,2 km/h (6 Bft)
11.03.2019 17:20 -0,6 °C 77 % 1021,4 hPa 0,0 mm 22,7 km/h (4 Bft) W 264 ° 0 min 0,000 mm 0,0 UV-I 37 W/m² -4,1 °C -6,4 °C 37,0 km/h (5 Bft)
11.03.2019 17:21 -0,6 °C 77 % 1021,5 hPa 0,0 mm 14,9 km/h (3 Bft) W-NW 292 ° 0 min 0,000 mm 0,0 UV-I 42 W/m² -4,1 °C -5,1 °C 24,1 km/h (4 Bft)
11.03.2019 17:22 -0,7 °C 78 % 1021,4 hPa 0,0 mm 20,6 km/h (4 Bft) W-SW 249 ° 0 min 0,000 mm 0,0 UV-I 49 W/m² -4,0 °C -6,2 °C 29,0 km/h (5 Bft)
11.03.2019 17:23 -0,7 °C 78 % 1021,4 hPa 0,0 mm 16,7 km/h (3 Bft) SW 234 ° 0 min 0,000 mm 0,0 UV-I 53 W/m² -4,0 °C -5,6 °C 25,7 km/h (4 Bft)
11.03.2019 17:24 -0,7 °C 79 % 1021,4 hPa 0,0 mm 21,2 km/h (4 Bft) W-SW 243 ° 0 min 0,000 mm 0,0 UV-I 49 W/m² -3,9 °C -6,3 °C 27,4 km/h (4 Bft)
11.03.2019 17:25 -0,7 °C 79 % 1021,4 hPa 0,0 mm 14,8 km/h (3 Bft) W 263 ° 0 min 0,000 mm 0,0 UV-I 39 W/m² -3,9 °C -5,2 °C 20,9 km/h (4 Bft)
11.03.2019 17:26 -0,7 °C 79 % 1021,4 hPa 0,0 mm 16,0 km/h (3 Bft) SW 232 ° 0 min 0,000 mm 0,0 UV-I 37 W/m² -3,9 °C -5,5 °C 22,5 km/h (4 Bft)
11.03.2019 17:27 -0,8 °C 79 % 1021,3 hPa 0,0 mm 17,0 km/h (3 Bft) W 273 ° 0 min 0,000 mm 0,0 UV-I 37 W/m² -4,0 °C -5,8 °C 27,4 km/h (4 Bft)
11.03.2019 17:28 -0,8 °C 79 % 1021,4 hPa 0,0 mm 18,7 km/h (3 Bft) SW 230 ° 0 min 0,000 mm 0,0 UV-I 39 W/m² -4,0 °C -6,0 °C 22,5 km/h (4 Bft)
11.03.2019 17:29 -0,8 °C 79 % 1021,3 hPa 0,0 mm 18,7 km/h (3 Bft) W 272 ° 0 min 0,000 mm 0,0 UV-I 37 W/m² -4,0 °C -6,0 °C 24,1 km/h (4 Bft)
11.03.2019 17:30 -0,8 °C 79 % 1021,4 hPa 0,0 mm 13,9 km/h (3 Bft) W-SW 247 ° 0 min 0,000 mm 0,0 UV-I 39 W/m² -4,0 °C -5,2 °C 20,9 km/h (4 Bft)
11.03.2019 17:31 -0,8 °C 79 % 1021,3 hPa 0,0 mm 14,9 km/h (3 Bft) SW 230 ° 0 min 0,000 mm 0,0 UV-I 39 W/m² -4,0 °C -5,4 °C 20,9 km/h (4 Bft)
11.03.2019 17:32 -0,8 °C 79 % 1021,3 hPa 0,0 mm 16,2 km/h (3 Bft) W 260 ° 0 min 0,000 mm 0,0 UV-I 39 W/m² -4,0 °C -5,6 °C 22,5 km/h (4 Bft)
11.03.2019 17:33 -0,8 °C 79 % 1021,4 hPa 0,0 mm 15,2 km/h (3 Bft) W 265 ° 0 min 0,000 mm 0,0 UV-I 42 W/m² -4,0 °C -5,4 °C 24,1 km/h (4 Bft)
11.03.2019 17:34 -0,8 °C 79 % 1021,4 hPa 0,0 mm 23,9 km/h (4 Bft) W 278 ° 0 min 0,000 mm 0,0 UV-I 51 W/m² -4,0 °C -6,8 °C 32,2 km/h (5 Bft)
11.03.2019 17:35 -0,7 °C 79 % 1021,3 hPa 0,0 mm 16,9 km/h (3 Bft) W 259 ° 0 min 0,000 mm 0,0 UV-I 51 W/m² -3,9 °C -5,6 °C 24,1 km/h (4 Bft)
11.03.2019 17:36 -0,7 °C 79 % 1021,4 hPa 0,0 mm 17,1 km/h (3 Bft) SW 224 ° 0 min 0,000 mm 0,0 UV-I 46 W/m² -3,9 °C -5,7 °C 24,1 km/h (4 Bft)
11.03.2019 17:37 -0,7 °C 79 % 1021,4 hPa 0,0 mm 18,2 km/h (3 Bft) W 266 ° 0 min 0,000 mm 0,0 UV-I 37 W/m² -3,9 °C -5,8 °C 27,4 km/h (4 Bft)
11.03.2019 17:38 -0,7 °C 79 % 1021,3 hPa 0,0 mm 13,3 km/h (3 Bft) W-SW 246 ° 0 min 0,000 mm 0,0 UV-I 37 W/m² -3,9 °C -4,9 °C 24,1 km/h (4 Bft)
11.03.2019 17:39 -0,7 °C 79 % 1021,3 hPa 0,0 mm 12,1 km/h (2 Bft) W-NW 292 ° 0 min 0,000 mm 0,0 UV-I 35 W/m² -3,9 °C -4,7 °C 20,9 km/h (4 Bft)
11.03.2019 17:40 -0,8 °C 79 % 1021,4 hPa 0,0 mm 18,3 km/h (3 Bft) W-SW 242 ° 0 min 0,000 mm 0,0 UV-I 39 W/m² -4,0 °C -6,0 °C 35,4 km/h (5 Bft)
11.03.2019 17:41 -0,8 °C 79 % 1021,3 hPa 0,0 mm 16,0 km/h (3 Bft) W 278 ° 0 min 0,000 mm 0,0 UV-I 39 W/m² -4,0 °C -5,6 °C 22,5 km/h (4 Bft)
11.03.2019 17:42 -0,8 °C 79 % 1021,4 hPa 0,0 mm 13,0 km/h (3 Bft) W-NW 293 ° 0 min 0,000 mm 0,0 UV-I 40 W/m² -4,0 °C -5,0 °C 19,3 km/h (3 Bft)
11.03.2019 17:43 -0,8 °C 79 % 1021,4 hPa 0,0 mm 11,9 km/h (2 Bft) W 259 ° 0 min 0,000 mm 0,0 UV-I 44 W/m² -4,0 °C -4,7 °C 14,5 km/h (3 Bft)
11.03.2019 17:44 -0,8 °C 79 % 1021,4 hPa 0,0 mm 18,6 km/h (3 Bft) W 259 ° 0 min 0,000 mm 0,0 UV-I 46 W/m² -4,0 °C -6,0 °C 25,7 km/h (4 Bft)
11.03.2019 17:45 -0,8 °C 79 % 1021,4 hPa 0,0 mm 16,6 km/h (3 Bft) W-NW 286 ° 0 min 0,000 mm 0,0 UV-I 49 W/m² -4,0 °C -5,7 °C 29,0 km/h (5 Bft)
11.03.2019 17:46 -0,8 °C 79 % 1021,4 hPa 0,0 mm 15,4 km/h (3 Bft) W-SW 256 ° 0 min 0,000 mm 0,0 UV-I 51 W/m² -4,0 °C -5,5 °C 20,9 km/h (4 Bft)
11.03.2019 17:47 -0,8 °C 79 % 1021,5 hPa 0,0 mm 15,2 km/h (3 Bft) W-SW 256 ° 0 min 0,000 mm 0,0 UV-I 53 W/m² -4,0 °C -5,4 °C 22,5 km/h (4 Bft)
11.03.2019 17:48 -0,8 °C 79 % 1021,5 hPa 0,0 mm 13,5 km/h (3 Bft) W-SW 244 ° 0 min 0,000 mm 0,0 UV-I 53 W/m² -4,0 °C -5,1 °C 17,7 km/h (3 Bft)
11.03.2019 17:49 -0,8 °C 79 % 1021,6 hPa 0,0 mm 15,7 km/h (3 Bft) W-NW 283 ° 0 min 0,000 mm 0,0 UV-I 51 W/m² -4,0 °C -5,5 °C 20,9 km/h (4 Bft)
11.03.2019 17:50 -0,8 °C 79 % 1021,6 hPa 0,0 mm 14,8 km/h (3 Bft) W-SW 239 ° 0 min 0,000 mm 0,0 UV-I 49 W/m² -4,0 °C -5,4 °C 25,7 km/h (4 Bft)
11.03.2019 17:51 -0,8 °C 79 % 1021,6 hPa 0,0 mm 14,8 km/h (3 Bft) W-SW 257 ° 0 min 0,000 mm 0,0 UV-I 49 W/m² -4,0 °C -5,4 °C 19,3 km/h (3 Bft)
11.03.2019 17:52 -0,8 °C 79 % 1021,6 hPa 0,0 mm 17,7 km/h (3 Bft) W 268 ° 0 min 0,000 mm 0,0 UV-I 49 W/m² -4,0 °C -5,9 °C 32,2 km/h (5 Bft)
11.03.2019 17:53 -0,8 °C 79 % 1021,7 hPa 0,0 mm 13,6 km/h (3 Bft) W-SW 241 ° 0 min 0,000 mm 0,0 UV-I 46 W/m² -4,0 °C -5,1 °C 19,3 km/h (3 Bft)
11.03.2019 17:54 -0,8 °C 79 % 1021,7 hPa 0,0 mm 13,0 km/h (3 Bft) W-NW 285 ° 0 min 0,000 mm 0,0 UV-I 40 W/m² -4,0 °C -5,0 °C 19,3 km/h (3 Bft)
11.03.2019 17:55 -0,8 °C 79 % 1021,8 hPa 0,0 mm 14,0 km/h (3 Bft) W 259 ° 0 min 0,000 mm 0,0 UV-I 33 W/m² -4,0 °C -5,2 °C 20,9 km/h (4 Bft)
11.03.2019 17:56 -0,8 °C 79 % 1021,7 hPa 0,0 mm 16,4 km/h (3 Bft) W 268 ° 0 min 0,000 mm 0,0 UV-I 26 W/m² -4,0 °C -5,7 °C 24,1 km/h (4 Bft)
11.03.2019 17:57 -0,8 °C 79 % 1021,8 hPa 0,0 mm 15,2 km/h (3 Bft) W-SW 257 ° 0 min 0,000 mm 0,0 UV-I 25 W/m² -4,0 °C -5,4 °C 19,3 km/h (3 Bft)
11.03.2019 17:58 -0,8 °C 79 % 1021,8 hPa 0,0 mm 13,9 km/h (3 Bft) NW 310 ° 0 min 0,000 mm 0,0 UV-I 21 W/m² -4,0 °C -5,2 °C 19,3 km/h (3 Bft)
11.03.2019 17:59 -0,8 °C 79 % 1021,8 hPa 0,0 mm 10,5 km/h (2 Bft) W-SW 240 ° 0 min 0,000 mm 0,0 UV-I 18 W/m² -4,0 °C -4,4 °C 14,5 km/h (3 Bft)
11.03.2019 18:00 -0,8 °C 79 % 1021,8 hPa 0,0 mm 14,8 km/h (3 Bft) W 266 ° 0 min 0,000 mm 0,0 UV-I 16 W/m² -4,0 °C -5,4 °C 25,7 km/h (4 Bft)
11.03.2019 18:01 -0,9 °C 79 % 1021,9 hPa 0,0 mm 22,7 km/h (4 Bft) W 276 ° 0 min 0,025 mm 0,0 UV-I 11 W/m² -4,1 °C -6,8 °C 38,6 km/h (5 Bft)
11.03.2019 18:02 -0,9 °C 80 % 1021,9 hPa 0,0 mm 16,5 km/h (3 Bft) W-SW 238 ° 0 min 0,000 mm 0,0 UV-I 11 W/m² -3,9 °C -5,8 °C 22,5 km/h (4 Bft)
11.03.2019 18:03 -0,9 °C 80 % 1021,9 hPa 0,0 mm 19,1 km/h (3 Bft) NW 315 ° 0 min 0,000 mm 0,0 UV-I 9 W/m² -3,9 °C -6,2 °C 24,1 km/h (4 Bft)
11.03.2019 18:04 -0,9 °C 80 % 1021,8 hPa 0,0 mm 11,7 km/h (2 Bft) SW 232 ° 0 min 0,000 mm 0,0 UV-I 9 W/m² -3,9 °C -4,8 °C 16,1 km/h (3 Bft)
11.03.2019 18:05 -0,9 °C 80 % 1021,8 hPa 0,0 mm 14,5 km/h (3 Bft) W-SW 248 ° 0 min 0,000 mm 0,0 UV-I 7 W/m² -3,9 °C -5,4 °C 27,4 km/h (4 Bft)
11.03.2019 18:06 -1,0 °C 80 % 1021,8 hPa 0,0 mm 14,7 km/h (3 Bft) W-SW 247 ° 0 min 0,000 mm 0,0 UV-I 7 W/m² -4,0 °C -5,6 °C 24,1 km/h (4 Bft)
11.03.2019 18:07 -1,0 °C 80 % 1021,8 hPa 0,0 mm 19,8 km/h (3 Bft) W-SW 242 ° 0 min 0,000 mm 0,0 UV-I 5 W/m² -4,0 °C -6,5 °C 29,0 km/h (5 Bft)
11.03.2019 18:08 -1,1 °C 80 % 1021,8 hPa 0,0 mm 14,7 km/h (3 Bft) SW 229 ° 0 min 0,000 mm 0,0 UV-I 5 W/m² -4,1 °C -5,7 °C 24,1 km/h (4 Bft)
11.03.2019 18:09 -1,1 °C 80 % 1021,8 hPa 0,0 mm 20,9 km/h (4 Bft) W 262 ° 0 min 0,000 mm 0,0 UV-I 5 W/m² -4,1 °C -6,8 °C 27,4 km/h (4 Bft)
11.03.2019 18:10 -1,1 °C 80 % 1021,8 hPa 0,0 mm 14,9 km/h (3 Bft) W 264 ° 0 min 0,000 mm 0,0 UV-I 5 W/m² -4,1 °C -5,8 °C 22,5 km/h (4 Bft)
11.03.2019 18:11 -1,1 °C 80 % 1021,8 hPa 0,0 mm 10,6 km/h (2 Bft) SW 233 ° 0 min 0,000 mm 0,0 UV-I 5 W/m² -4,1 °C -4,8 °C 20,9 km/h (4 Bft)
11.03.2019 18:12 -1,1 °C 80 % 1021,9 hPa 0,0 mm 18,4 km/h (3 Bft) SW 236 ° 0 min 0,000 mm 0,0 UV-I 0 W/m² -4,1 °C -6,4 °C 29,0 km/h (5 Bft)
11.03.2019 18:13 -1,1 °C 80 % 1022,0 hPa 0,0 mm 13,9 km/h (3 Bft) W-SW 248 ° 0 min 0,000 mm 0,0 UV-I 0 W/m² -4,1 °C -5,6 °C 20,9 km/h (4 Bft)
11.03.2019 18:14 -1,2 °C 80 % 1022,0 hPa 0,0 mm 12,0 km/h (2 Bft) W-SW 242 ° 0 min 0,000 mm 0,0 UV-I 0 W/m² -4,2 °C -5,3 °C 16,1 km/h (3 Bft)
11.03.2019 18:15 -1,2 °C 81 % 1022,1 hPa 0,0 mm 13,7 km/h (3 Bft) W-SW 247 ° 0 min 0,000 mm 0,0 UV-I 0 W/m² -4,0 °C -5,6 °C 20,9 km/h (4 Bft)
11.03.2019 18:16 -1,2 °C 81 % 1022,1 hPa 0,0 mm 13,8 km/h (3 Bft) W 261 ° 0 min 0,000 mm 0,0 UV-I 0 W/m² -4,0 °C -5,7 °C 19,3 km/h (3 Bft)
11.03.2019 18:17 -1,2 °C 81 % 1022,1 hPa 0,0 mm 21,5 km/h (4 Bft) W 265 ° 0 min 0,000 mm 0,0 UV-I 0 W/m² -4,0 °C -7,0 °C 25,7 km/h (4 Bft)
11.03.2019 18:18 -1,2 °C 81 % 1022,1 hPa 0,0 mm 16,2 km/h (3 Bft) SW 227 ° 0 min 0,000 mm 0,0 UV-I 0 W/m² -4,0 °C -6,1 °C 22,5 km/h (4 Bft)
11.03.2019 18:19 -1,2 °C 81 % 1022,2 hPa 0,0 mm 17,6 km/h (3 Bft) W-SW 257 ° 0 min 0,000 mm 0,0 UV-I 0 W/m² -4,0 °C -6,4 °C 24,1 km/h (4 Bft)
11.03.2019 18:20 -1,2 °C 81 % 1022,2 hPa 0,0 mm 18,8 km/h (3 Bft) W-SW 250 ° 0 min 0,000 mm 0,0 UV-I 0 W/m² -4,0 °C -6,6 °C 27,4 km/h (4 Bft)
11.03.2019 18:21 -1,1 °C 81 % 1022,1 hPa 0,0 mm 16,4 km/h (3 Bft) W 261 ° 0 min 0,000 mm 0,0 UV-I 0 W/m² -3,9 °C -6,0 °C 24,1 km/h (4 Bft)
11.03.2019 18:22 -1,1 °C 81 % 1022,2 hPa 0,0 mm 18,6 km/h (3 Bft) W 266 ° 0 min 0,000 mm 0,0 UV-I 0 W/m² -3,9 °C -6,4 °C 25,7 km/h (4 Bft)
11.03.2019 18:23 -1,1 °C 81 % 1022,1 hPa 0,0 mm 18,7 km/h (3 Bft) W 270 ° 0 min 0,000 mm 0,0 UV-I 0 W/m² -3,9 °C -6,4 °C 27,4 km/h (4 Bft)
11.03.2019 18:24 -1,1 °C 81 % 1022,3 hPa 0,0 mm 16,4 km/h (3 Bft) W 269 ° 0 min 0,000 mm 0,0 UV-I 0 W/m² -3,9 °C -6,0 °C 24,1 km/h (4 Bft)
11.03.2019 18:25 -1,1 °C 81 % 1022,2 hPa 0,0 mm 12,3 km/h (3 Bft) W 280 ° 0 min 0,000 mm 0,0 UV-I 0 W/m² -3,9 °C -5,2 °C 17,7 km/h (3 Bft)
11.03.2019 18:26 -1,1 °C 81 % 1022,2 hPa 0,0 mm 14,2 km/h (3 Bft) SW 231 ° 0 min 0,000 mm 0,0 UV-I 0 W/m² -3,9 °C -5,6 °C 19,3 km/h (3 Bft)
11.03.2019 18:27 -1,1 °C 81 % 1022,2 hPa 0,0 mm 14,2 km/h (3 Bft) W 261 ° 0 min 0,000 mm 0,0 UV-I 0 W/m² -3,9 °C -5,6 °C 22,5 km/h (4 Bft)
11.03.2019 18:28 -1,1 °C 81 % 1022,3 hPa 0,0 mm 15,7 km/h (3 Bft) W-NW 286 ° 0 min 0,000 mm 0,0 UV-I 0 W/m² -3,9 °C -5,9 °C 22,5 km/h (4 Bft)
11.03.2019 18:29 -1,1 °C 80 % 1022,3 hPa 0,0 mm 18,5 km/h (3 Bft) W 274 ° 0 min 0,000 mm 0,0 UV-I 0 W/m² -4,1 °C -6,4 °C 24,1 km/h (4 Bft)
11.03.2019 18:30 -1,1 °C 80 % 1022,3 hPa 0,0 mm 18,7 km/h (3 Bft) W-SW 251 ° 0 min 0,000 mm 0,0 UV-I 0 W/m² -4,1 °C -6,4 °C 29,0 km/h (5 Bft)
11.03.2019 18:31 -1,1 °C 80 % 1022,4 hPa 0,0 mm 15,6 km/h (3 Bft) W 263 ° 0 min 0,000 mm 0,0 UV-I 0 W/m² -4,1 °C -5,9 °C 22,5 km/h (4 Bft)
11.03.2019 18:32 -1,1 °C 80 % 1022,4 hPa 0,0 mm 15,6 km/h (3 Bft) W-SW 255 ° 0 min 0,000 mm 0,0 UV-I 0 W/m² -4,1 °C -5,9 °C 20,9 km/h (4 Bft)
11.03.2019 18:33 -1,1 °C 81 % 1022,4 hPa 0,0 mm 21,7 km/h (4 Bft) W 279 ° 0 min 0,000 mm 0,0 UV-I 0 W/m² -3,9 °C -6,9 °C 32,2 km/h (5 Bft)
11.03.2019 18:34 -1,1 °C 81 % 1022,5 hPa 0,0 mm 16,2 km/h (3 Bft) W-SW 257 ° 0 min 0,000 mm 0,0 UV-I 0 W/m² -3,9 °C -6,0 °C 22,5 km/h (4 Bft)
11.03.2019 18:35 -1,1 °C 81 % 1022,5 hPa 0,0 mm 15,6 km/h (3 Bft) S-SW 207 ° 0 min 0,000 mm 0,0 UV-I 0 W/m² -3,9 °C -5,9 °C 20,9 km/h (4 Bft)
11.03.2019 18:36 -1,1 °C 81 % 1022,6 hPa 0,0 mm 15,6 km/h (3 Bft) W-NW 288 ° 0 min 0,000 mm 0,0 UV-I 0 W/m² -3,9 °C -5,9 °C 24,1 km/h (4 Bft)
11.03.2019 18:37 -1,1 °C 81 % 1022,6 hPa 0,0 mm 19,8 km/h (3 Bft) W 261 ° 0 min 0,000 mm 0,0 UV-I 0 W/m² -3,9 °C -6,6 °C 35,4 km/h (5 Bft)
11.03.2019 18:38 -1,1 °C 81 % 1022,6 hPa 0,0 mm 20,9 km/h (4 Bft) SW 214 ° 0 min 0,000 mm 0,0 UV-I 0 W/m² -3,9 °C -6,8 °C 33,8 km/h (5 Bft)
11.03.2019 18:39 -1,1 °C 81 % 1022,6 hPa 0,0 mm 23,9 km/h (4 Bft) W 259 ° 0 min 0,000 mm 0,0 UV-I 0 W/m² -3,9 °C -7,2 °C 33,8 km/h (5 Bft)
11.03.2019 18:40 -1,1 °C 81 % 1022,5 hPa 0,0 mm 15,7 km/h (3 Bft) SW 236 ° 0 min 0,000 mm 0,0 UV-I 0 W/m² -3,9 °C -5,9 °C 27,4 km/h (4 Bft)
11.03.2019 18:41 -1,1 °C 81 % 1022,6 hPa 0,0 mm 10,3 km/h (2 Bft) S-SW 212 ° 0 min 0,000 mm 0,0 UV-I 0 W/m² -3,9 °C -4,7 °C 16,1 km/h (3 Bft)
11.03.2019 18:42 -1,1 °C 81 % 1022,6 hPa 0,0 mm 12,3 km/h (3 Bft) SW 229 ° 0 min 0,000 mm 0,0 UV-I 0 W/m² -3,9 °C -5,2 °C 19,3 km/h (3 Bft)
11.03.2019 18:43 -1,0 °C 81 % 1022,5 hPa 0,0 mm 24,0 km/h (4 Bft) W-NW 286 ° 0 min 0,000 mm 0,0 UV-I 0 W/m² -3,8 °C -7,1 °C 33,8 km/h (5 Bft)
11.03.2019 18:44 -0,9 °C 81 % 1022,6 hPa 0,0 mm 22,3 km/h (4 Bft) W 261 ° 0 min 0,000 mm 0,0 UV-I 0 W/m² -3,7 °C -6,7 °C 30,6 km/h (5 Bft)
11.03.2019 18:45 -0,9 °C 81 % 1022,6 hPa 0,0 mm 18,8 km/h (3 Bft) W-NW 283 ° 0 min 0,000 mm 0,0 UV-I 0 W/m² -3,7 °C -6,2 °C 25,7 km/h (4 Bft)
11.03.2019 18:46 -0,9 °C 81 % 1022,7 hPa 0,0 mm 15,2 km/h (3 Bft) W 273 ° 0 min 0,000 mm 0,0 UV-I 0 W/m² -3,7 °C -5,6 °C 20,9 km/h (4 Bft)
11.03.2019 18:47 -0,9 °C 81 % 1022,7 hPa 0,0 mm 19,4 km/h (3 Bft) W 269 ° 0 min 0,000 mm 0,0 UV-I 0 W/m² -3,7 °C -6,3 °C 29,0 km/h (5 Bft)
11.03.2019 18:48 -0,9 °C 81 % 1022,7 hPa 0,0 mm 18,8 km/h (3 Bft) W 263 ° 0 min 0,000 mm 0,0 UV-I 0 W/m² -3,7 °C -6,2 °C 25,7 km/h (4 Bft)
11.03.2019 18:49 -0,9 °C 81 % 1022,8 hPa 0,0 mm 18,1 km/h (3 Bft) W-NW 291 ° 0 min 0,000 mm 0,0 UV-I 0 W/m² -3,7 °C -6,1 °C 24,1 km/h (4 Bft)
11.03.2019 18:50 -0,9 °C 82 % 1022,8 hPa 0,0 mm 16,2 km/h (3 Bft) W-SW 240 ° 0 min 0,000 mm 0,0 UV-I 0 W/m² -3,6 °C -5,8 °C 25,7 km/h (4 Bft)
11.03.2019 18:51 -0,9 °C 82 % 1022,8 hPa 0,0 mm 15,4 km/h (3 Bft) W-SW 242 ° 0 min 0,000 mm 0,0 UV-I 0 W/m² -3,6 °C -5,6 °C 22,5 km/h (4 Bft)
11.03.2019 18:52 -0,9 °C 83 % 1022,8 hPa 0,0 mm 14,1 km/h (3 Bft) W-SW 254 ° 0 min 0,000 mm 0,0 UV-I 0 W/m² -3,4 °C -5,3 °C 19,3 km/h (3 Bft)
11.03.2019 18:53 -1,0 °C 83 % 1022,8 hPa 0,0 mm 16,6 km/h (3 Bft) W 268 ° 0 min 0,000 mm 0,0 UV-I 0 W/m² -3,5 °C -5,9 °C 25,7 km/h (4 Bft)
11.03.2019 18:54 -1,0 °C 83 % 1022,8 hPa 0,0 mm 21,3 km/h (4 Bft) W 261 ° 0 min 0,000 mm 0,0 UV-I 0 W/m² -3,5 °C -6,7 °C 32,2 km/h (5 Bft)
11.03.2019 18:55 -1,1 °C 83 % 1022,9 hPa 0,0 mm 16,7 km/h (3 Bft) W 278 ° 0 min 0,000 mm 0,0 UV-I 0 W/m² -3,6 °C -6,1 °C 25,7 km/h (4 Bft)
11.03.2019 18:56 -1,1 °C 83 % 1022,9 hPa 0,0 mm 17,2 km/h (3 Bft) W 262 ° 0 min 0,000 mm 0,0 UV-I 0 W/m² -3,6 °C -6,2 °C 27,4 km/h (4 Bft)
11.03.2019 18:57 -1,1 °C 83 % 1023,0 hPa 0,0 mm 14,6 km/h (3 Bft) W 269 ° 0 min 0,000 mm 0,0 UV-I 0 W/m² -3,6 °C -5,7 °C 24,1 km/h (4 Bft)
11.03.2019 18:58 -1,1 °C 84 % 1023,0 hPa 0,0 mm 16,2 km/h (3 Bft) W 278 ° 0 min 0,000 mm 0,0 UV-I 0 W/m² -3,4 °C -6,0 °C 22,5 km/h (4 Bft)
11.03.2019 18:59 -1,1 °C 84 % 1023,0 hPa 0,0 mm 14,3 km/h (3 Bft) W-SW 250 ° 0 min 0,000 mm 0,0 UV-I 0 W/m² -3,4 °C -5,6 °C 20,9 km/h (4 Bft)
11.03.2019 19:00 -1,2 °C 84 % 1022,9 hPa 0,0 mm 14,1 km/h (3 Bft) W-SW 237 ° 0 min 0,000 mm 0,0 UV-I 0 W/m² -3,5 °C -5,7 °C 20,9 km/h (4 Bft)
11.03.2019 19:01 -1,2 °C 84 % 1022,9 hPa 0,0 mm 12,0 km/h (2 Bft) W 265 ° 0 min 0,026 mm 0,0 UV-I 0 W/m² -3,5 °C -5,3 °C 17,7 km/h (3 Bft)
11.03.2019 19:02 -1,1 °C 84 % 1023,0 hPa 0,0 mm 15,8 km/h (3 Bft) W 261 ° 0 min 0,000 mm 0,0 UV-I 0 W/m² -3,4 °C -5,9 °C 22,5 km/h (4 Bft)
11.03.2019 19:03 -1,2 °C 83 % 1023,1 hPa 0,0 mm 16,2 km/h (3 Bft) W-SW 250 ° 0 min 0,000 mm 0,0 UV-I 0 W/m² -3,7 °C -6,1 °C 20,9 km/h (4 Bft)
11.03.2019 19:04 -1,2 °C 83 % 1023,1 hPa 0,0 mm 15,0 km/h (3 Bft) W-SW 256 ° 0 min 0,000 mm 0,0 UV-I 0 W/m² -3,7 °C -5,9 °C 24,1 km/h (4 Bft)
11.03.2019 19:05 -1,2 °C 83 % 1023,2 hPa 0,0 mm 15,9 km/h (3 Bft) W-SW 250 ° 0 min 0,000 mm 0,0 UV-I 0 W/m² -3,7 °C -6,1 °C 29,0 km/h (5 Bft)
11.03.2019 19:06 -1,2 °C 83 % 1023,2 hPa 0,0 mm 14,1 km/h (3 Bft) W 269 ° 0 min 0,000 mm 0,0 UV-I 0 W/m² -3,7 °C -5,7 °C 20,9 km/h (4 Bft)
11.03.2019 19:07 -1,2 °C 83 % 1023,1 hPa 0,0 mm 18,8 km/h (3 Bft) W-SW 240 ° 0 min 0,000 mm 0,0 UV-I 0 W/m² -3,7 °C -6,6 °C 32,2 km/h (5 Bft)
11.03.2019 19:08 -1,2 °C 83 % 1023,2 hPa 0,0 mm 20,5 km/h (4 Bft) W 266 ° 0 min 0,000 mm 0,0 UV-I 0 W/m² -3,7 °C -6,8 °C 32,2 km/h (5 Bft)
11.03.2019 19:09 -1,2 °C 83 % 1023,2 hPa 0,0 mm 22,9 km/h (4 Bft) W-SW 257 ° 0 min 0,000 mm 0,0 UV-I 0 W/m² -3,7 °C -7,2 °C 29,0 km/h (5 Bft)
11.03.2019 19:10 -1,2 °C 83 % 1023,2 hPa 0,0 mm 10,9 km/h (2 Bft) W-NW 294 ° 0 min 0,000 mm 0,0 UV-I 0 W/m² -3,7 °C -5,0 °C 20,9 km/h (4 Bft)
11.03.2019 19:11 -1,2 °C 82 % 1023,2 hPa 0,0 mm 18,4 km/h (3 Bft) W 268 ° 0 min 0,000 mm 0,0 UV-I 0 W/m² -3,9 °C -6,5 °C 27,4 km/h (4 Bft)
11.03.2019 19:12 -1,2 °C 82 % 1023,2 hPa 0,0 mm 21,1 km/h (4 Bft) W 261 ° 0 min 0,000 mm 0,0 UV-I 0 W/m² -3,9 °C -6,9 °C 29,0 km/h (5 Bft)
11.03.2019 19:13 -1,2 °C 82 % 1023,4 hPa 0,0 mm 16,2 km/h (3 Bft) W-SW 242 ° 0 min 0,000 mm 0,0 UV-I 0 W/m² -3,9 °C -6,1 °C 22,5 km/h (4 Bft)
11.03.2019 19:14 -1,2 °C 82 % 1023,2 hPa 0,0 mm 11,5 km/h (2 Bft) W-SW 249 ° 0 min 0,000 mm 0,0 UV-I 0 W/m² -3,9 °C -5,1 °C 17,7 km/h (3 Bft)
11.03.2019 19:15 -1,2 °C 82 % 1023,3 hPa 0,0 mm 15,6 km/h (3 Bft) W-NW 282 ° 0 min 0,000 mm 0,0 UV-I 0 W/m² -3,9 °C -6,0 °C 24,1 km/h (4 Bft)
11.03.2019 19:16 -1,1 °C 82 % 1023,2 hPa 0,0 mm 13,9 km/h (3 Bft) W 265 ° 0 min 0,000 mm 0,0 UV-I 0 W/m² -3,8 °C -5,6 °C 22,5 km/h (4 Bft)
11.03.2019 19:17 -1,1 °C 82 % 1023,2 hPa 0,0 mm 18,7 km/h (3 Bft) W-SW 238 ° 0 min 0,000 mm 0,0 UV-I 0 W/m² -3,8 °C -6,4 °C 25,7 km/h (4 Bft)
11.03.2019 19:18 -1,1 °C 82 % 1023,3 hPa 0,0 mm 20,7 km/h (4 Bft) W 268 ° 0 min 0,000 mm 0,0 UV-I 0 W/m² -3,8 °C -6,7 °C 32,2 km/h (5 Bft)
11.03.2019 19:19 -1,1 °C 82 % 1023,3 hPa 0,0 mm 16,4 km/h (3 Bft) W 275 ° 0 min 0,000 mm 0,0 UV-I 0 W/m² -3,8 °C -6,0 °C 30,6 km/h (5 Bft)
11.03.2019 19:20 -1,1 °C 82 % 1023,3 hPa 0,0 mm 16,7 km/h (3 Bft) SW 234 ° 0 min 0,000 mm 0,0 UV-I 0 W/m² -3,8 °C -6,1 °C 22,5 km/h (4 Bft)
11.03.2019 19:21 -1,1 °C 82 % 1023,4 hPa 0,0 mm 21,7 km/h (4 Bft) W-NW 303 ° 0 min 0,000 mm 0,0 UV-I 0 W/m² -3,8 °C -6,9 °C 27,4 km/h (4 Bft)
11.03.2019 19:22 -1,1 °C 82 % 1023,3 hPa 0,0 mm 15,7 km/h (3 Bft) W 264 ° 0 min 0,000 mm 0,0 UV-I 0 W/m² -3,8 °C -5,9 °C 19,3 km/h (3 Bft)
11.03.2019 19:23 -1,1 °C 82 % 1023,4 hPa 0,0 mm 17,0 km/h (3 Bft) W 265 ° 0 min 0,000 mm 0,0 UV-I 0 W/m² -3,8 °C -6,1 °C 24,1 km/h (4 Bft)
11.03.2019 19:24 -1,1 °C 82 % 1023,4 hPa 0,0 mm 15,8 km/h (3 Bft) W 261 ° 0 min 0,000 mm 0,0 UV-I 0 W/m² -3,8 °C -5,9 °C 30,6 km/h (5 Bft)
11.03.2019 19:25 -1,1 °C 82 % 1023,4 hPa 0,0 mm 22,5 km/h (4 Bft) W 275 ° 0 min 0,000 mm 0,0 UV-I 0 W/m² -3,8 °C -7,0 °C 33,8 km/h (5 Bft)
11.03.2019 19:26 -1,1 °C 82 % 1023,4 hPa 0,0 mm 18,9 km/h (3 Bft) W 260 ° 0 min 0,000 mm 0,0 UV-I 0 W/m² -3,8 °C -6,5 °C 25,7 km/h (4 Bft)
11.03.2019 19:27 -1,1 °C 81 % 1023,4 hPa 0,0 mm 18,0 km/h (3 Bft) W 275 ° 0 min 0,000 mm 0,0 UV-I 0 W/m² -3,9 °C -6,3 °C 24,1 km/h (4 Bft)
11.03.2019 19:28 -1,1 °C 82 % 1023,4 hPa 0,0 mm 11,2 km/h (2 Bft) W-SW 246 ° 0 min 0,000 mm 0,0 UV-I 0 W/m² -3,8 °C -4,9 °C 19,3 km/h (3 Bft)
11.03.2019 19:29 -1,1 °C 81 % 1023,3 hPa 0,0 mm 17,2 km/h (3 Bft) W-SW 252 ° 0 min 0,000 mm 0,0 UV-I 0 W/m² -3,9 °C -6,2 °C 24,1 km/h (4 Bft)
11.03.2019 19:30 -1,1 °C 81 % 1023,3 hPa 0,0 mm 17,6 km/h (3 Bft) W-SW 257 ° 0 min 0,000 mm 0,0 UV-I 0 W/m² -3,9 °C -6,2 °C 25,7 km/h (4 Bft)
11.03.2019 19:31 -1,1 °C 81 % 1023,5 hPa 0,0 mm 14,1 km/h (3 Bft) W-NW 284 ° 0 min 0,000 mm 0,0 UV-I 0 W/m² -3,9 °C -5,6 °C 22,5 km/h (4 Bft)
11.03.2019 19:32 -1,1 °C 81 % 1023,5 hPa 0,0 mm 18,8 km/h (3 Bft) W 261 ° 0 min 0,000 mm 0,0 UV-I 0 W/m² -3,9 °C -6,4 °C 27,4 km/h (4 Bft)
11.03.2019 19:33 -1,1 °C 81 % 1023,5 hPa 0,0 mm 14,4 km/h (3 Bft) W-NW 294 ° 0 min 0,000 mm 0,0 UV-I 0 W/m² -3,9 °C -5,7 °C 25,7 km/h (4 Bft)
11.03.2019 19:34 -1,1 °C 81 % 1023,5 hPa 0,0 mm 13,3 km/h (3 Bft) W-NW 284 ° 0 min 0,000 mm 0,0 UV-I 0 W/m² -3,9 °C -5,4 °C 22,5 km/h (4 Bft)
11.03.2019 19:35 -1,1 °C 81 % 1023,5 hPa 0,0 mm 21,2 km/h (4 Bft) W 263 ° 0 min 0,000 mm 0,0 UV-I 0 W/m² -3,9 °C -6,8 °C 37,0 km/h (5 Bft)
11.03.2019 19:36 -1,1 °C 81 % 1023,5 hPa 0,0 mm 19,4 km/h (3 Bft) W-SW 247 ° 0 min 0,000 mm 0,0 UV-I 0 W/m² -3,9 °C -6,5 °C 22,5 km/h (4 Bft)
11.03.2019 19:37 -1,1 °C 81 % 1023,5 hPa 0,0 mm 21,0 km/h (4 Bft) W-SW 250 ° 0 min 0,000 mm 0,0 UV-I 0 W/m² -3,9 °C -6,8 °C 41,8 km/h (6 Bft)
11.03.2019 19:38 -1,0 °C 81 % 1023,5 hPa 0,0 mm 21,4 km/h (4 Bft) SW 236 ° 0 min 0,000 mm 0,0 UV-I 0 W/m² -3,8 °C -6,7 °C 29,0 km/h (5 Bft)
11.03.2019 19:39 -1,0 °C 81 % 1023,4 hPa 0,0 mm 11,7 km/h (2 Bft) W-SW 258 ° 0 min 0,000 mm 0,0 UV-I 0 W/m² -3,8 °C -4,9 °C 16,1 km/h (3 Bft)
11.03.2019 19:40 -1,0 °C 81 % 1023,5 hPa 0,0 mm 12,9 km/h (3 Bft) W-SW 244 ° 0 min 0,000 mm 0,0 UV-I 0 W/m² -3,8 °C -5,2 °C 16,1 km/h (3 Bft)
11.03.2019 19:41 -1,0 °C 81 % 1023,5 hPa 0,0 mm 15,5 km/h (3 Bft) W 273 ° 0 min 0,000 mm 0,0 UV-I 0 W/m² -3,8 °C -5,7 °C 22,5 km/h (4 Bft)
11.03.2019 19:42 -1,0 °C 81 % 1023,6 hPa 0,0 mm 13,7 km/h (3 Bft) W 274 ° 0 min 0,000 mm 0,0 UV-I 0 W/m² -3,8 °C -5,4 °C 20,9 km/h (4 Bft)
11.03.2019 19:43 -1,0 °C 81 % 1023,6 hPa 0,0 mm 16,8 km/h (3 Bft) W 265 ° 0 min 0,000 mm 0,0 UV-I 0 W/m² -3,8 °C -6,0 °C 25,7 km/h (4 Bft)
11.03.2019 19:44 -1,0 °C 81 % 1023,6 hPa 0,0 mm 15,6 km/h (3 Bft) W-SW 257 ° 0 min 0,000 mm 0,0 UV-I 0 W/m² -3,8 °C -5,8 °C 25,7 km/h (4 Bft)
11.03.2019 19:45 -1,0 °C 81 % 1023,6 hPa 0,0 mm 13,3 km/h (3 Bft) W-SW 245 ° 0 min 0,000 mm 0,0 UV-I 0 W/m² -3,8 °C -5,3 °C 20,9 km/h (4 Bft)
11.03.2019 19:46 -0,9 °C 81 % 1023,6 hPa 0,0 mm 21,7 km/h (4 Bft) W-SW 250 ° 0 min 0,000 mm 0,0 UV-I 0 W/m² -3,7 °C -6,6 °C 32,2 km/h (5 Bft)
11.03.2019 19:47 -1,0 °C 81 % 1023,6 hPa 0,0 mm 19,3 km/h (3 Bft) W 263 ° 0 min 0,000 mm 0,0 UV-I 0 W/m² -3,8 °C -6,4 °C 30,6 km/h (5 Bft)
11.03.2019 19:48 -0,9 °C 81 % 1023,6 hPa 0,0 mm 11,3 km/h (2 Bft) SW 219 ° 0 min 0,000 mm 0,0 UV-I 0 W/m² -3,7 °C -4,7 °C 24,1 km/h (4 Bft)
11.03.2019 19:49 -0,9 °C 81 % 1023,6 hPa 0,0 mm 18,5 km/h (3 Bft) S-SW 205 ° 0 min 0,000 mm 0,0 UV-I 0 W/m² -3,7 °C -6,1 °C 25,7 km/h (4 Bft)
11.03.2019 19:50 -0,9 °C 81 % 1023,6 hPa 0,0 mm 12,8 km/h (3 Bft) W-SW 238 ° 0 min 0,000 mm 0,0 UV-I 0 W/m² -3,7 °C -5,1 °C 19,3 km/h (3 Bft)
11.03.2019 19:51 -0,9 °C 81 % 1023,6 hPa 0,0 mm 14,8 km/h (3 Bft) W 277 ° 0 min 0,000 mm 0,0 UV-I 0 W/m² -3,7 °C -5,5 °C 20,9 km/h (4 Bft)
11.03.2019 19:52 -0,9 °C 81 % 1023,6 hPa 0,0 mm 12,5 km/h (3 Bft) W-SW 255 ° 0 min 0,000 mm 0,0 UV-I 0 W/m² -3,7 °C -5,0 °C 17,7 km/h (3 Bft)
11.03.2019 19:53 -0,9 °C 81 % 1023,6 hPa 0,0 mm 9,7 km/h (2 Bft) W 263 ° 0 min 0,000 mm 0,0 UV-I 0 W/m² -3,7 °C -4,3 °C 20,9 km/h (4 Bft)
11.03.2019 19:54 -0,9 °C 81 % 1023,7 hPa 0,0 mm 11,4 km/h (2 Bft) W-NW 288 ° 0 min 0,000 mm 0,0 UV-I 0 W/m² -3,7 °C -4,7 °C 20,9 km/h (4 Bft)
11.03.2019 19:55 -0,8 °C 81 % 1023,6 hPa 0,0 mm 8,3 km/h (2 Bft) W 265 ° 0 min 0,000 mm 0,0 UV-I 0 W/m² -3,6 °C -3,8 °C 12,9 km/h (3 Bft)
11.03.2019 19:56 -0,8 °C 81 % 1023,8 hPa 0,0 mm 12,0 km/h (2 Bft) W 275 ° 0 min 0,000 mm 0,0 UV-I 0 W/m² -3,6 °C -4,8 °C 19,3 km/h (3 Bft)
11.03.2019 19:57 -0,8 °C 81 % 1023,8 hPa 0,0 mm 15,0 km/h (3 Bft) W 267 ° 0 min 0,000 mm 0,0 UV-I 0 W/m² -3,6 °C -5,4 °C 19,3 km/h (3 Bft)
11.03.2019 19:58 -0,8 °C 81 % 1023,8 hPa 0,0 mm 13,9 km/h (3 Bft) W-SW 250 ° 0 min 0,000 mm 0,0 UV-I 0 W/m² -3,6 °C -5,2 °C 17,7 km/h (3 Bft)
11.03.2019 19:59 -0,8 °C 81 % 1023,8 hPa 0,0 mm 11,9 km/h (2 Bft) W 263 ° 0 min 0,000 mm 0,0 UV-I 0 W/m² -3,6 °C -4,7 °C 12,9 km/h (3 Bft)
11.03.2019 20:00 -0,8 °C 81 % 1023,9 hPa 0,0 mm 9,3 km/h (2 Bft) W 275 ° 0 min 0,025 mm 0,0 UV-I 0 W/m² -3,6 °C -4,1 °C 12,9 km/h (3 Bft)
11.03.2019 20:01 -0,8 °C 81 % 1023,9 hPa 0,0 mm 14,0 km/h (3 Bft) W 266 ° 0 min 0,000 mm 0,0 UV-I 0 W/m² -3,6 °C -5,2 °C 20,9 km/h (4 Bft)
11.03.2019 20:02 -0,8 °C 81 % 1024,0 hPa 0,0 mm 13,6 km/h (3 Bft) S-SW 209 ° 0 min 0,000 mm 0,0 UV-I 0 W/m² -3,6 °C -5,1 °C 27,4 km/h (4 Bft)
11.03.2019 20:03 -0,7 °C 81 % 1023,9 hPa 0,0 mm 16,1 km/h (3 Bft) W-SW 258 ° 0 min 0,000 mm 0,0 UV-I 0 W/m² -3,5 °C -5,5 °C 22,5 km/h (4 Bft)
11.03.2019 20:04 -0,7 °C 81 % 1023,8 hPa 0,0 mm 13,3 km/h (3 Bft) W-SW 242 ° 0 min 0,000 mm 0,0 UV-I 0 W/m² -3,5 °C -4,9 °C 19,3 km/h (3 Bft)
11.03.2019 20:05 -0,7 °C 81 % 1023,9 hPa 0,0 mm 17,8 km/h (3 Bft) W 261 ° 0 min 0,000 mm 0,0 UV-I 0 W/m² -3,5 °C -5,8 °C 25,7 km/h (4 Bft)
11.03.2019 20:06 -0,7 °C 81 % 1023,9 hPa 0,0 mm 18,3 km/h (3 Bft) W-SW 254 ° 0 min 0,000 mm 0,0 UV-I 0 W/m² -3,5 °C -5,9 °C 22,5 km/h (4 Bft)
11.03.2019 20:07 -0,7 °C 81 % 1024,0 hPa 0,0 mm 18,6 km/h (3 Bft) W-SW 240 ° 0 min 0,000 mm 0,0 UV-I 0 W/m² -3,5 °C -5,9 °C 29,0 km/h (5 Bft)
11.03.2019 20:08 -0,7 °C 81 % 1023,9 hPa 0,0 mm 19,4 km/h (3 Bft) W 275 ° 0 min 0,000 mm 0,0 UV-I 0 W/m² -3,5 °C -6,0 °C 24,1 km/h (4 Bft)
11.03.2019 20:09 -0,6 °C 80 % 1024,0 hPa 0,0 mm 14,1 km/h (3 Bft) W 274 ° 0 min 0,000 mm 0,0 UV-I 0 W/m² -3,6 °C -5,0 °C 22,5 km/h (4 Bft)
11.03.2019 20:10 -0,6 °C 80 % 1024,0 hPa 0,0 mm 15,5 km/h (3 Bft) SW 234 ° 0 min 0,000 mm 0,0 UV-I 0 W/m² -3,6 °C -5,3 °C 24,1 km/h (4 Bft)
11.03.2019 20:11 -0,6 °C 80 % 1024,0 hPa 0,0 mm 16,9 km/h (3 Bft) W 264 ° 0 min 0,000 mm 0,0 UV-I 0 W/m² -3,6 °C -5,5 °C 24,1 km/h (4 Bft)
11.03.2019 20:12 -0,6 °C 81 % 1023,9 hPa 0,0 mm 16,9 km/h (3 Bft) S-SW 205 ° 0 min 0,000 mm 0,0 UV-I 0 W/m² -3,4 °C -5,5 °C 25,7 km/h (4 Bft)
11.03.2019 20:13 -0,6 °C 80 % 1024,0 hPa 0,0 mm 14,8 km/h (3 Bft) W 272 ° 0 min 0,000 mm 0,0 UV-I 0 W/m² -3,6 °C -5,1 °C 22,5 km/h (4 Bft)
11.03.2019 20:14 -0,6 °C 80 % 1024,0 hPa 0,0 mm 11,6 km/h (2 Bft) W-SW 241 ° 0 min 0,000 mm 0,0 UV-I 0 W/m² -3,6 °C -4,4 °C 20,9 km/h (4 Bft)
11.03.2019 20:15 -0,6 °C 80 % 1024,0 hPa 0,0 mm 20,3 km/h (4 Bft) W 261 ° 0 min 0,000 mm 0,0 UV-I 0 W/m² -3,6 °C -6,0 °C 30,6 km/h (5 Bft)
11.03.2019 20:16 -0,6 °C 80 % 1023,9 hPa 0,0 mm 22,7 km/h (4 Bft) W-SW 254 ° 0 min 0,000 mm 0,0 UV-I 0 W/m² -3,6 °C -6,4 °C 29,0 km/h (5 Bft)
11.03.2019 20:17 -0,6 °C 80 % 1023,9 hPa 0,0 mm 16,1 km/h (3 Bft) W-SW 249 ° 0 min 0,000 mm 0,0 UV-I 0 W/m² -3,6 °C -5,4 °C 25,7 km/h (4 Bft)
11.03.2019 20:18 -0,6 °C 80 % 1023,9 hPa 0,0 mm 11,4 km/h (2 Bft) W 264 ° 0 min 0,000 mm 0,0 UV-I 0 W/m² -3,6 °C -4,4 °C 22,5 km/h (4 Bft)
11.03.2019 20:19 -0,6 °C 80 % 1023,9 hPa 0,0 mm 19,2 km/h (3 Bft) W-SW 251 ° 0 min 0,000 mm 0,0 UV-I 0 W/m² -3,6 °C -5,9 °C 27,4 km/h (4 Bft)
11.03.2019 20:20 -0,6 °C 80 % 1023,9 hPa 0,0 mm 13,4 km/h (3 Bft) S-SW 200 ° 0 min 0,000 mm 0,0 UV-I 0 W/m² -3,6 °C -4,8 °C 24,1 km/h (4 Bft)
11.03.2019 20:21 -0,6 °C 80 % 1023,9 hPa 0,0 mm 11,4 km/h (2 Bft) W-SW 250 ° 0 min 0,000 mm 0,0 UV-I 0 W/m² -3,6 °C -4,4 °C 17,7 km/h (3 Bft)
11.03.2019 20:22 -0,6 °C 80 % 1023,8 hPa 0,0 mm 7,4 km/h (2 Bft) W 265 ° 0 min 0,000 mm 0,0 UV-I 0 W/m² -3,6 °C -3,2 °C 19,3 km/h (3 Bft)
11.03.2019 20:23 -0,6 °C 80 % 1023,9 hPa 0,0 mm 14,0 km/h (3 Bft) S-SW 205 ° 0 min 0,000 mm 0,0 UV-I 0 W/m² -3,6 °C -5,0 °C 20,9 km/h (4 Bft)
11.03.2019 20:24 -0,6 °C 80 % 1023,9 hPa 0,0 mm 11,5 km/h (2 Bft) W-SW 257 ° 0 min 0,000 mm 0,0 UV-I 0 W/m² -3,6 °C -4,4 °C 16,1 km/h (3 Bft)
11.03.2019 20:25 -0,6 °C 80 % 1023,9 hPa 0,0 mm 12,2 km/h (2 Bft) NW 304 ° 0 min 0,000 mm 0,0 UV-I 0 W/m² -3,6 °C -4,6 °C 16,1 km/h (3 Bft)
11.03.2019 20:26 -0,6 °C 80 % 1024,0 hPa 0,0 mm 20,8 km/h (4 Bft) W-SW 257 ° 0 min 0,000 mm 0,0 UV-I 0 W/m² -3,6 °C -6,1 °C 25,7 km/h (4 Bft)
11.03.2019 20:27 -0,6 °C 80 % 1023,9 hPa 0,0 mm 16,1 km/h (3 Bft) W 272 ° 0 min 0,000 mm 0,0 UV-I 0 W/m² -3,6 °C -5,4 °C 24,1 km/h (4 Bft)
11.03.2019 20:28 -0,6 °C 80 % 1024,0 hPa 0,0 mm 16,9 km/h (3 Bft) W-SW 255 ° 0 min 0,000 mm 0,0 UV-I 0 W/m² -3,6 °C -5,5 °C 32,2 km/h (5 Bft)
11.03.2019 20:29 -0,7 °C 80 % 1024,1 hPa 0,0 mm 13,0 km/h (3 Bft) W 280 ° 0 min 0,000 mm 0,0 UV-I 0 W/m² -3,7 °C -4,9 °C 20,9 km/h (4 Bft)
11.03.2019 20:30 -0,7 °C 80 % 1024,1 hPa 0,0 mm 15,2 km/h (3 Bft) W 263 ° 0 min 0,000 mm 0,0 UV-I 0 W/m² -3,7 °C -5,3 °C 22,5 km/h (4 Bft)
11.03.2019 20:31 -0,7 °C 80 % 1024,1 hPa 0,0 mm 18,6 km/h (3 Bft) W-SW 256 ° 0 min 0,000 mm 0,0 UV-I 0 W/m² -3,7 °C -5,9 °C 25,7 km/h (4 Bft)
11.03.2019 20:32 -0,7 °C 80 % 1024,0 hPa 0,0 mm 18,6 km/h (3 Bft) SW 231 ° 0 min 0,000 mm 0,0 UV-I 0 W/m² -3,7 °C -5,9 °C 25,7 km/h (4 Bft)
11.03.2019 20:33 -0,7 °C 80 % 1024,1 hPa 0,0 mm 15,1 km/h (3 Bft) W-SW 238 ° 0 min 0,000 mm 0,0 UV-I 0 W/m² -3,7 °C -5,3 °C 19,3 km/h (3 Bft)
11.03.2019 20:34 -0,7 °C 80 % 1024,2 hPa 0,0 mm 17,4 km/h (3 Bft) W 266 ° 0 min 0,000 mm 0,0 UV-I 0 W/m² -3,7 °C -5,7 °C 25,7 km/h (4 Bft)
11.03.2019 20:35 -0,6 °C 80 % 1024,2 hPa 0,0 mm 16,0 km/h (3 Bft) W-SW 257 ° 0 min 0,000 mm 0,0 UV-I 0 W/m² -3,6 °C -5,3 °C 20,9 km/h (4 Bft)
11.03.2019 20:36 -0,7 °C 81 % 1024,2 hPa 0,0 mm 14,1 km/h (3 Bft) W 277 ° 0 min 0,000 mm 0,0 UV-I 0 W/m² -3,5 °C -5,1 °C 22,5 km/h (4 Bft)
11.03.2019 20:37 -0,7 °C 80 % 1024,2 hPa 0,0 mm 20,7 km/h (4 Bft) W 277 ° 0 min 0,000 mm 0,0 UV-I 0 W/m² -3,7 °C -6,2 °C 27,4 km/h (4 Bft)
11.03.2019 20:38 -0,7 °C 81 % 1024,3 hPa 0,0 mm 14,7 km/h (3 Bft) W 264 ° 0 min 0,000 mm 0,0 UV-I 0 W/m² -3,5 °C -5,2 °C 22,5 km/h (4 Bft)
11.03.2019 20:39 -0,7 °C 81 % 1024,2 hPa 0,0 mm 21,6 km/h (4 Bft) W 263 ° 0 min 0,000 mm 0,0 UV-I 0 W/m² -3,5 °C -6,4 °C 30,6 km/h (5 Bft)
11.03.2019 20:40 -0,7 °C 81 % 1024,3 hPa 0,0 mm 17,0 km/h (3 Bft) W 271 ° 0 min 0,000 mm 0,0 UV-I 0 W/m² -3,5 °C -5,6 °C 25,7 km/h (4 Bft)
11.03.2019 20:41 -0,7 °C 81 % 1024,2 hPa 0,0 mm 17,1 km/h (3 Bft) W 273 ° 0 min 0,000 mm 0,0 UV-I 0 W/m² -3,5 °C -5,7 °C 22,5 km/h (4 Bft)
11.03.2019 20:42 -0,7 °C 81 % 1024,2 hPa 0,0 mm 16,9 km/h (3 Bft) W-SW 248 ° 0 min 0,000 mm 0,0 UV-I 0 W/m² -3,5 °C -5,6 °C 20,9 km/h (4 Bft)
11.03.2019 20:43 -0,7 °C 81 % 1024,3 hPa 0,0 mm 20,0 km/h (4 Bft) W 275 ° 0 min 0,000 mm 0,0 UV-I 0 W/m² -3,5 °C -6,1 °C 33,8 km/h (5 Bft)
11.03.2019 20:44 -0,7 °C 81 % 1024,2 hPa 0,0 mm 17,8 km/h (3 Bft) W 271 ° 0 min 0,000 mm 0,0 UV-I 0 W/m² -3,5 °C -5,8 °C 30,6 km/h (5 Bft)
11.03.2019 20:45 -0,6 °C 81 % 1024,3 hPa 0,0 mm 17,7 km/h (3 Bft) W 275 ° 0 min 0,000 mm 0,0 UV-I 0 W/m² -3,4 °C -5,6 °C 22,5 km/h (4 Bft)
11.03.2019 20:46 -0,6 °C 81 % 1024,3 hPa 0,0 mm 20,4 km/h (4 Bft) W-SW 253 ° 0 min 0,000 mm 0,0 UV-I 0 W/m² -3,4 °C -6,1 °C 32,2 km/h (5 Bft)
11.03.2019 20:47 -0,6 °C 81 % 1024,2 hPa 0,0 mm 22,3 km/h (4 Bft) W-SW 250 ° 0 min 0,000 mm 0,0 UV-I 0 W/m² -3,4 °C -6,3 °C 33,8 km/h (5 Bft)
11.03.2019 20:48 -0,6 °C 81 % 1024,3 hPa 0,0 mm 20,7 km/h (4 Bft) W 261 ° 0 min 0,000 mm 0,0 UV-I 0 W/m² -3,4 °C -6,1 °C 30,6 km/h (5 Bft)
11.03.2019 20:49 -0,6 °C 81 % 1024,3 hPa 0,0 mm 16,4 km/h (3 Bft) S-SW 213 ° 0 min 0,000 mm 0,0 UV-I 0 W/m² -3,4 °C -5,4 °C 19,3 km/h (3 Bft)
11.03.2019 20:50 -0,6 °C 81 % 1024,3 hPa 0,0 mm 12,3 km/h (3 Bft) W 277 ° 0 min 0,000 mm 0,0 UV-I 0 W/m² -3,4 °C -4,6 °C 22,5 km/h (4 Bft)
11.03.2019 20:51 -0,6 °C 81 % 1024,3 hPa 0,0 mm 16,7 km/h (3 Bft) W 271 ° 0 min 0,000 mm 0,0 UV-I 0 W/m² -3,4 °C -5,5 °C 20,9 km/h (4 Bft)
11.03.2019 20:52 -0,6 °C 81 % 1024,2 hPa 0,0 mm 13,7 km/h (3 Bft) W-NW 296 ° 0 min 0,000 mm 0,0 UV-I 0 W/m² -3,4 °C -4,9 °C 22,5 km/h (4 Bft)
11.03.2019 20:53 -0,6 °C 81 % 1024,3 hPa 0,0 mm 12,7 km/h (3 Bft) W-NW 302 ° 0 min 0,000 mm 0,0 UV-I 0 W/m² -3,4 °C -4,7 °C 22,5 km/h (4 Bft)
11.03.2019 20:54 -0,6 °C 81 % 1024,3 hPa 0,0 mm 13,9 km/h (3 Bft) W 273 ° 0 min 0,000 mm 0,0 UV-I 0 W/m² -3,4 °C -4,9 °C 17,7 km/h (3 Bft)
11.03.2019 20:55 -0,6 °C 80 % 1024,2 hPa 0,0 mm 14,6 km/h (3 Bft) W 273 ° 0 min 0,000 mm 0,0 UV-I 0 W/m² -3,6 °C -5,1 °C 20,9 km/h (4 Bft)
11.03.2019 20:56 -0,7 °C 81 % 1024,2 hPa 0,0 mm 20,3 km/h (4 Bft) W 271 ° 0 min 0,000 mm 0,0 UV-I 0 W/m² -3,5 °C -6,2 °C 29,0 km/h (5 Bft)
11.03.2019 20:57 -0,7 °C 81 % 1024,3 hPa 0,0 mm 18,0 km/h (3 Bft) W 263 ° 0 min 0,000 mm 0,0 UV-I 0 W/m² -3,5 °C -5,8 °C 27,4 km/h (4 Bft)
11.03.2019 20:58 -0,7 °C 81 % 1024,3 hPa 0,0 mm 16,9 km/h (3 Bft) W-SW 246 ° 0 min 0,000 mm 0,0 UV-I 0 W/m² -3,5 °C -5,6 °C 25,7 km/h (4 Bft)
11.03.2019 20:59 -0,7 °C 81 % 1024,3 hPa 0,0 mm 19,1 km/h (3 Bft) W-SW 248 ° 0 min 0,000 mm 0,0 UV-I 0 W/m² -3,5 °C -6,0 °C 29,0 km/h (5 Bft)
11.03.2019 21:00 -0,7 °C 81 % 1024,3 hPa 0,0 mm 21,3 km/h (4 Bft) W-NW 300 ° 0 min 0,000 mm 0,0 UV-I 0 W/m² -3,5 °C -6,3 °C 27,4 km/h (4 Bft)
11.03.2019 21:01 -0,7 °C 81 % 1024,2 hPa 0,0 mm 19,4 km/h (3 Bft) W 277 ° 0 min 0,025 mm 0,0 UV-I 0 W/m² -3,5 °C -6,0 °C 25,7 km/h (4 Bft)
11.03.2019 21:02 -0,7 °C 81 % 1024,3 hPa 0,0 mm 15,6 km/h (3 Bft) W-SW 248 ° 0 min 0,000 mm 0,0 UV-I 0 W/m² -3,5 °C -5,4 °C 24,1 km/h (4 Bft)
11.03.2019 21:03 -0,7 °C 81 % 1024,4 hPa 0,0 mm 22,3 km/h (4 Bft) SW 236 ° 0 min 0,000 mm 0,0 UV-I 0 W/m² -3,5 °C -6,5 °C 35,4 km/h (5 Bft)
11.03.2019 21:04 -0,7 °C 81 % 1024,4 hPa 0,0 mm 20,4 km/h (4 Bft) W 263 ° 0 min 0,000 mm 0,0 UV-I 0 W/m² -3,5 °C -6,2 °C 27,4 km/h (4 Bft)
11.03.2019 21:05 -0,7 °C 81 % 1024,4 hPa 0,0 mm 18,6 km/h (3 Bft) W-SW 247 ° 0 min 0,000 mm 0,0 UV-I 0 W/m² -3,5 °C -5,9 °C 30,6 km/h (5 Bft)
11.03.2019 21:06 -0,7 °C 81 % 1024,4 hPa 0,0 mm 15,6 km/h (3 Bft) W 267 ° 0 min 0,000 mm 0,0 UV-I 0 W/m² -3,5 °C -5,4 °C 22,5 km/h (4 Bft)
11.03.2019 21:07 -0,7 °C 81 % 1024,4 hPa 0,0 mm 15,9 km/h (3 Bft) W-NW 298 ° 0 min 0,000 mm 0,0 UV-I 0 W/m² -3,5 °C -5,4 °C 20,9 km/h (4 Bft)
11.03.2019 21:08 -0,7 °C 81 % 1024,5 hPa 0,0 mm 12,3 km/h (3 Bft) W 268 ° 0 min 0,000 mm 0,0 UV-I 0 W/m² -3,5 °C -4,7 °C 20,9 km/h (4 Bft)
11.03.2019 21:09 -0,7 °C 81 % 1024,6 hPa 0,0 mm 17,5 km/h (3 Bft) W-SW 245 ° 0 min 0,000 mm 0,0 UV-I 0 W/m² -3,5 °C -5,7 °C 24,1 km/h (4 Bft)
11.03.2019 21:10 -0,7 °C 81 % 1024,5 hPa 0,0 mm 17,6 km/h (3 Bft) W-SW 238 ° 0 min 0,000 mm 0,0 UV-I 0 W/m² -3,5 °C -5,7 °C 24,1 km/h (4 Bft)
11.03.2019 21:11 -0,6 °C 81 % 1024,7 hPa 0,0 mm 17,0 km/h (3 Bft) W-SW 243 ° 0 min 0,000 mm 0,0 UV-I 0 W/m² -3,4 °C -5,5 °C 24,1 km/h (4 Bft)
11.03.2019 21:12 -0,6 °C 81 % 1024,7 hPa 0,0 mm 15,9 km/h (3 Bft) W 273 ° 0 min 0,000 mm 0,0 UV-I 0 W/m² -3,4 °C -5,3 °C 24,1 km/h (4 Bft)
11.03.2019 21:13 -0,6 °C 81 % 1024,7 hPa 0,0 mm 18,2 km/h (3 Bft) W-SW 257 ° 0 min 0,000 mm 0,0 UV-I 0 W/m² -3,4 °C -5,7 °C 29,0 km/h (5 Bft)
11.03.2019 21:14 -0,6 °C 81 % 1024,6 hPa 0,0 mm 17,1 km/h (3 Bft) W-NW 284 ° 0 min 0,000 mm 0,0 UV-I 0 W/m² -3,4 °C -5,5 °C 24,1 km/h (4 Bft)
11.03.2019 21:15 -0,6 °C 81 % 1024,7 hPa 0,0 mm 9,3 km/h (2 Bft) W 274 ° 0 min 0,000 mm 0,0 UV-I 0 W/m² -3,4 °C -3,8 °C 16,1 km/h (3 Bft)
11.03.2019 21:16 -0,6 °C 81 % 1024,8 hPa 0,0 mm 17,4 km/h (3 Bft) W 277 ° 0 min 0,000 mm 0,0 UV-I 0 W/m² -3,4 °C -5,6 °C 22,5 km/h (4 Bft)
11.03.2019 21:17 -0,6 °C 81 % 1024,7 hPa 0,0 mm 17,1 km/h (3 Bft) NW 304 ° 0 min 0,000 mm 0,0 UV-I 0 W/m² -3,4 °C -5,5 °C 25,7 km/h (4 Bft)
11.03.2019 21:18 -0,5 °C 81 % 1024,8 hPa 0,0 mm 24,5 km/h (4 Bft) W-SW 252 ° 0 min 0,000 mm 0,0 UV-I 0 W/m² -3,3 °C -6,5 °C 33,8 km/h (5 Bft)
11.03.2019 21:19 -0,5 °C 81 % 1024,8 hPa 0,0 mm 16,4 km/h (3 Bft) W-NW 284 ° 0 min 0,000 mm 0,0 UV-I 0 W/m² -3,3 °C -5,3 °C 32,2 km/h (5 Bft)
11.03.2019 21:20 -0,5 °C 81 % 1024,7 hPa 0,0 mm 13,7 km/h (3 Bft) W 270 ° 0 min 0,000 mm 0,0 UV-I 0 W/m² -3,3 °C -4,8 °C 22,5 km/h (4 Bft)
11.03.2019 21:21 -0,4 °C 80 % 1024,8 hPa 0,0 mm 10,5 km/h (2 Bft) W-SW 248 ° 0 min 0,000 mm 0,0 UV-I 0 W/m² -3,4 °C -3,9 °C 19,3 km/h (3 Bft)
11.03.2019 21:22 -0,4 °C 80 % 1024,9 hPa 0,0 mm 14,6 km/h (3 Bft) W 276 ° 0 min 0,000 mm 0,0 UV-I 0 W/m² -3,4 °C -4,8 °C 17,7 km/h (3 Bft)
11.03.2019 21:23 -0,4 °C 80 % 1024,8 hPa 0,0 mm 21,3 km/h (4 Bft) W-SW 250 ° 0 min 0,000 mm 0,0 UV-I 0 W/m² -3,4 °C -5,9 °C 35,4 km/h (5 Bft)
11.03.2019 21:24 -0,4 °C 80 % 1024,8 hPa 0,0 mm 22,5 km/h (4 Bft) W 259 ° 0 min 0,000 mm 0,0 UV-I 0 W/m² -3,4 °C -6,1 °C 32,2 km/h (5 Bft)
11.03.2019 21:25 -0,4 °C 80 % 1024,8 hPa 0,0 mm 20,4 km/h (4 Bft) W 278 ° 0 min 0,000 mm 0,0 UV-I 0 W/m² -3,4 °C -5,8 °C 24,1 km/h (4 Bft)
11.03.2019 21:26 -0,3 °C 80 % 1024,9 hPa 0,0 mm 13,8 km/h (3 Bft) W-NW 292 ° 0 min 0,000 mm 0,0 UV-I 0 W/m² -3,3 °C -4,6 °C 17,7 km/h (3 Bft)
11.03.2019 21:27 -0,3 °C 80 % 1024,8 hPa 0,0 mm 12,2 km/h (2 Bft) W-SW 256 ° 0 min 0,000 mm 0,0 UV-I 0 W/m² -3,3 °C -4,2 °C 17,7 km/h (3 Bft)
11.03.2019 21:28 -0,3 °C 80 % 1024,8 hPa 0,0 mm 18,1 km/h (3 Bft) W 275 ° 0 min 0,000 mm 0,0 UV-I 0 W/m² -3,3 °C -5,3 °C 25,7 km/h (4 Bft)
11.03.2019 21:29 -0,3 °C 80 % 1024,8 hPa 0,0 mm 20,4 km/h (4 Bft) W-NW 284 ° 0 min 0,000 mm 0,0 UV-I 0 W/m² -3,3 °C -5,7 °C 33,8 km/h (5 Bft)
11.03.2019 21:30 -0,3 °C 80 % 1024,7 hPa 0,0 mm 20,4 km/h (4 Bft) W-SW 248 ° 0 min 0,000 mm 0,0 UV-I 0 W/m² -3,3 °C -5,7 °C 35,4 km/h (5 Bft)
11.03.2019 21:31 -0,3 °C 80 % 1024,8 hPa 0,0 mm 16,0 km/h (3 Bft) W 281 ° 0 min 0,000 mm 0,0 UV-I 0 W/m² -3,3 °C -5,0 °C 22,5 km/h (4 Bft)
11.03.2019 21:32 -0,3 °C 79 % 1024,8 hPa 0,0 mm 14,5 km/h (3 Bft) W 267 ° 0 min 0,000 mm 0,0 UV-I 0 W/m² -3,5 °C -4,7 °C 19,3 km/h (3 Bft)
11.03.2019 21:33 -0,4 °C 79 % 1024,9 hPa 0,0 mm 22,7 km/h (4 Bft) NW 308 ° 0 min 0,000 mm 0,0 UV-I 0 W/m² -3,6 °C -6,1 °C 32,2 km/h (5 Bft)
11.03.2019 21:34 -0,4 °C 79 % 1024,9 hPa 0,0 mm 18,8 km/h (3 Bft) W-SW 258 ° 0 min 0,000 mm 0,0 UV-I 0 W/m² -3,6 °C -5,6 °C 24,1 km/h (4 Bft)
11.03.2019 21:35 -0,4 °C 79 % 1024,9 hPa 0,0 mm 16,9 km/h (3 Bft) W-SW 257 ° 0 min 0,000 mm 0,0 UV-I 0 W/m² -3,6 °C -5,3 °C 30,6 km/h (5 Bft)
11.03.2019 21:36 -0,4 °C 79 % 1024,9 hPa 0,0 mm 18,4 km/h (3 Bft) W-SW 253 ° 0 min 0,000 mm 0,0 UV-I 0 W/m² -3,6 °C -5,5 °C 25,7 km/h (4 Bft)
11.03.2019 21:37 -0,4 °C 79 % 1024,9 hPa 0,0 mm 16,6 km/h (3 Bft) W-SW 255 ° 0 min 0,000 mm 0,0 UV-I 0 W/m² -3,6 °C -5,2 °C 20,9 km/h (4 Bft)
11.03.2019 21:38 -0,4 °C 79 % 1024,9 hPa 0,0 mm 14,4 km/h (3 Bft) W-SW 257 ° 0 min 0,000 mm 0,0 UV-I 0 W/m² -3,6 °C -4,8 °C 25,7 km/h (4 Bft)
11.03.2019 21:39 -0,4 °C 79 % 1024,8 hPa 0,0 mm 18,9 km/h (3 Bft) W 275 ° 0 min 0,000 mm 0,0 UV-I 0 W/m² -3,6 °C -5,6 °C 29,0 km/h (5 Bft)
11.03.2019 21:40 -0,4 °C 79 % 1024,8 hPa 0,0 mm 15,2 km/h (3 Bft) W 269 ° 0 min 0,000 mm 0,0 UV-I 0 W/m² -3,6 °C -4,9 °C 22,5 km/h (4 Bft)
11.03.2019 21:41 -0,4 °C 79 % 1024,8 hPa 0,0 mm 19,2 km/h (3 Bft) W-SW 246 ° 0 min 0,000 mm 0,0 UV-I 0 W/m² -3,6 °C -5,6 °C 25,7 km/h (4 Bft)
11.03.2019 21:42 -0,4 °C 79 % 1024,9 hPa 0,0 mm 17,0 km/h (3 Bft) W 270 ° 0 min 0,000 mm 0,0 UV-I 0 W/m² -3,6 °C -5,3 °C 22,5 km/h (4 Bft)
11.03.2019 21:43 -0,4 °C 79 % 1024,9 hPa 0,0 mm 19,6 km/h (3 Bft) W 277 ° 0 min 0,000 mm 0,0 UV-I 0 W/m² -3,6 °C -5,7 °C 24,1 km/h (4 Bft)
11.03.2019 21:44 -0,5 °C 79 % 1024,8 hPa 0,0 mm 17,0 km/h (3 Bft) W 265 ° 0 min 0,000 mm 0,0 UV-I 0 W/m² -3,7 °C -5,4 °C 27,4 km/h (4 Bft)
11.03.2019 21:45 -0,5 °C 79 % 1024,8 hPa 0,0 mm 20,7 km/h (4 Bft) SW 234 ° 0 min 0,000 mm 0,0 UV-I 0 W/m² -3,7 °C -6,0 °C 32,2 km/h (5 Bft)
11.03.2019 21:46 -0,5 °C 79 % 1024,8 hPa 0,0 mm 19,7 km/h (3 Bft) W-NW 287 ° 0 min 0,000 mm 0,0 UV-I 0 W/m² -3,7 °C -5,8 °C 27,4 km/h (4 Bft)
11.03.2019 21:47 -0,5 °C 79 % 1024,7 hPa 0,0 mm 18,7 km/h (3 Bft) W-NW 291 ° 0 min 0,000 mm 0,0 UV-I 0 W/m² -3,7 °C -5,7 °C 25,7 km/h (4 Bft)
11.03.2019 21:48 -0,5 °C 79 % 1024,8 hPa 0,0 mm 19,7 km/h (3 Bft) W-NW 291 ° 0 min 0,000 mm 0,0 UV-I 0 W/m² -3,7 °C -5,8 °C 25,7 km/h (4 Bft)
11.03.2019 21:49 -0,5 °C 79 % 1024,7 hPa 0,0 mm 12,1 km/h (2 Bft) W 278 ° 0 min 0,000 mm 0,0 UV-I 0 W/m² -3,7 °C -4,4 °C 16,1 km/h (3 Bft)
11.03.2019 21:50 -0,5 °C 79 % 1024,8 hPa 0,0 mm 17,6 km/h (3 Bft) W-SW 254 ° 0 min 0,000 mm 0,0 UV-I 0 W/m² -3,7 °C -5,5 °C 32,2 km/h (5 Bft)
11.03.2019 21:51 -0,5 °C 79 % 1024,9 hPa 0,0 mm 23,5 km/h (4 Bft) W-SW 251 ° 0 min 0,000 mm 0,0 UV-I 0 W/m² -3,7 °C -6,4 °C 32,2 km/h (5 Bft)
11.03.2019 21:52 -0,5 °C 79 % 1024,7 hPa 0,0 mm 13,7 km/h (3 Bft) W-SW 238 ° 0 min 0,000 mm 0,0 UV-I 0 W/m² -3,7 °C -4,8 °C 24,1 km/h (4 Bft)
11.03.2019 21:53 -0,5 °C 79 % 1024,8 hPa 0,0 mm 20,9 km/h (4 Bft) W 266 ° 0 min 0,000 mm 0,0 UV-I 0 W/m² -3,7 °C -6,0 °C 33,8 km/h (5 Bft)
11.03.2019 21:54 -0,4 °C 79 % 1024,8 hPa 0,0 mm 20,8 km/h (4 Bft) W-SW 238 ° 0 min 0,000 mm 0,0 UV-I 0 W/m² -3,6 °C -5,9 °C 32,2 km/h (5 Bft)
11.03.2019 21:55 -0,4 °C 79 % 1024,7 hPa 0,0 mm 22,2 km/h (4 Bft) W-SW 246 ° 0 min 0,000 mm 0,0 UV-I 0 W/m² -3,6 °C -6,1 °C 38,6 km/h (5 Bft)
11.03.2019 21:56 -0,4 °C 79 % 1024,7 hPa 0,0 mm 18,1 km/h (3 Bft) SW 217 ° 0 min 0,000 mm 0,0 UV-I 0 W/m² -3,6 °C -5,5 °C 29,0 km/h (5 Bft)
11.03.2019 21:57 -0,4 °C 79 % 1024,6 hPa 0,0 mm 14,4 km/h (3 Bft) W-SW 250 ° 0 min 0,000 mm 0,0 UV-I 0 W/m² -3,6 °C -4,8 °C 20,9 km/h (4 Bft)
11.03.2019 21:58 -0,4 °C 79 % 1024,7 hPa 0,0 mm 18,7 km/h (3 Bft) SW 232 ° 0 min 0,000 mm 0,0 UV-I 0 W/m² -3,6 °C -5,5 °C 25,7 km/h (4 Bft)
11.03.2019 21:59 -0,3 °C 78 % 1024,7 hPa 0,0 mm 16,5 km/h (3 Bft) W 270 ° 0 min 0,000 mm 0,0 UV-I 0 W/m² -3,7 °C -5,1 °C 22,5 km/h (4 Bft)
11.03.2019 22:00 -0,3 °C 78 % 1024,8 hPa 0,0 mm 16,3 km/h (3 Bft) W 261 ° 0 min 0,000 mm 0,0 UV-I 0 W/m² -3,7 °C -5,0 °C 19,3 km/h (3 Bft)
11.03.2019 22:01 -0,3 °C 79 % 1024,9 hPa 0,0 mm 17,6 km/h (3 Bft) W-SW 257 ° 0 min 0,026 mm 0,0 UV-I 0 W/m² -3,5 °C -5,2 °C 25,7 km/h (4 Bft)
11.03.2019 22:02 -0,3 °C 79 % 1024,9 hPa 0,0 mm 15,4 km/h (3 Bft) W 261 ° 0 min 0,000 mm 0,0 UV-I 0 W/m² -3,5 °C -4,9 °C 22,5 km/h (4 Bft)
11.03.2019 22:03 -0,2 °C 79 % 1025,0 hPa 0,0 mm 14,2 km/h (3 Bft) W 266 ° 0 min 0,000 mm 0,0 UV-I 0 W/m² -3,4 °C -4,5 °C 24,1 km/h (4 Bft)
11.03.2019 22:04 -0,2 °C 79 % 1025,0 hPa 0,0 mm 20,0 km/h (4 Bft) W 271 ° 0 min 0,000 mm 0,0 UV-I 0 W/m² -3,4 °C -5,5 °C 25,7 km/h (4 Bft)
11.03.2019 22:05 -0,2 °C 79 % 1025,0 hPa 0,0 mm 18,0 km/h (3 Bft) W-SW 247 ° 0 min 0,000 mm 0,0 UV-I 0 W/m² -3,4 °C -5,2 °C 27,4 km/h (4 Bft)
11.03.2019 22:06 -0,2 °C 79 % 1025,0 hPa 0,0 mm 21,2 km/h (4 Bft) W 270 ° 0 min 0,000 mm 0,0 UV-I 0 W/m² -3,4 °C -5,7 °C 27,4 km/h (4 Bft)
11.03.2019 22:07 -0,2 °C 79 % 1025,0 hPa 0,0 mm 13,9 km/h (3 Bft) W-SW 238 ° 0 min 0,000 mm 0,0 UV-I 0 W/m² -3,4 °C -4,4 °C 19,3 km/h (3 Bft)
11.03.2019 22:08 -0,2 °C 79 % 1025,1 hPa 0,0 mm 16,2 km/h (3 Bft) SW 225 ° 0 min 0,000 mm 0,0 UV-I 0 W/m² -3,4 °C -4,9 °C 22,5 km/h (4 Bft)
11.03.2019 22:09 -0,2 °C 79 % 1025,0 hPa 0,0 mm 21,8 km/h (4 Bft) W 265 ° 0 min 0,000 mm 0,0 UV-I 0 W/m² -3,4 °C -5,8 °C 37,0 km/h (5 Bft)
11.03.2019 22:10 -0,2 °C 79 % 1025,0 hPa 0,0 mm 19,6 km/h (3 Bft) SW 219 ° 0 min 0,000 mm 0,0 UV-I 0 W/m² -3,4 °C -5,4 °C 25,7 km/h (4 Bft)
11.03.2019 22:11 -0,2 °C 79 % 1025,1 hPa 0,0 mm 19,6 km/h (3 Bft) W-SW 255 ° 0 min 0,000 mm 0,0 UV-I 0 W/m² -3,4 °C -5,4 °C 25,7 km/h (4 Bft)
11.03.2019 22:12 -0,2 °C 79 % 1024,9 hPa 0,0 mm 18,5 km/h (3 Bft) W 275 ° 0 min 0,000 mm 0,0 UV-I 0 W/m² -3,4 °C -5,3 °C 24,1 km/h (4 Bft)
11.03.2019 22:13 -0,2 °C 79 % 1025,0 hPa 0,0 mm 15,6 km/h (3 Bft) W-SW 254 ° 0 min 0,000 mm 0,0 UV-I 0 W/m² -3,4 °C -4,8 °C 22,5 km/h (4 Bft)
11.03.2019 22:14 -0,2 °C 79 % 1025,1 hPa 0,0 mm 18,0 km/h (3 Bft) W-NW 288 ° 0 min 0,000 mm 0,0 UV-I 0 W/m² -3,4 °C -5,2 °C 25,7 km/h (4 Bft)
11.03.2019 22:15 -0,2 °C 79 % 1025,1 hPa 0,0 mm 14,5 km/h (3 Bft) W-NW 288 ° 0 min 0,000 mm 0,0 UV-I 0 W/m² -3,4 °C -4,6 °C 19,3 km/h (3 Bft)
11.03.2019 22:16 -0,2 °C 79 % 1025,1 hPa 0,0 mm 22,1 km/h (4 Bft) W 263 ° 0 min 0,000 mm 0,0 UV-I 0 W/m² -3,4 °C -5,8 °C 30,6 km/h (5 Bft)
11.03.2019 22:17 -0,2 °C 79 % 1025,1 hPa 0,0 mm 24,5 km/h (4 Bft) W 278 ° 0 min 0,000 mm 0,0 UV-I 0 W/m² -3,4 °C -6,1 °C 32,2 km/h (5 Bft)
11.03.2019 22:18 -0,2 °C 79 % 1025,1 hPa 0,0 mm 21,9 km/h (4 Bft) W 273 ° 0 min 0,000 mm 0,0 UV-I 0 W/m² -3,4 °C -5,8 °C 27,4 km/h (4 Bft)
11.03.2019 22:19 -0,2 °C 79 % 1025,1 hPa 0,0 mm 19,8 km/h (3 Bft) W-NW 289 ° 0 min 0,000 mm 0,0 UV-I 0 W/m² -3,4 °C -5,5 °C 25,7 km/h (4 Bft)
11.03.2019 22:20 -0,2 °C 79 % 1025,0 hPa 0,0 mm 15,6 km/h (3 Bft) SW 226 ° 0 min 0,000 mm 0,0 UV-I 0 W/m² -3,4 °C -4,8 °C 25,7 km/h (4 Bft)
11.03.2019 22:21 -0,2 °C 79 % 1025,0 hPa 0,0 mm 12,9 km/h (3 Bft) W 263 ° 0 min 0,000 mm 0,0 UV-I 0 W/m² -3,4 °C -4,2 °C 17,7 km/h (3 Bft)
11.03.2019 22:22 -0,2 °C 79 % 1025,1 hPa 0,0 mm 15,7 km/h (3 Bft) W 259 ° 0 min 0,000 mm 0,0 UV-I 0 W/m² -3,4 °C -4,8 °C 19,3 km/h (3 Bft)
11.03.2019 22:23 -0,2 °C 79 % 1025,1 hPa 0,0 mm 18,0 km/h (3 Bft) W 277 ° 0 min 0,000 mm 0,0 UV-I 0 W/m² -3,4 °C -5,2 °C 22,5 km/h (4 Bft)
11.03.2019 22:24 -0,2 °C 79 % 1025,1 hPa 0,0 mm 13,8 km/h (3 Bft) W 270 ° 0 min 0,000 mm 0,0 UV-I 0 W/m² -3,4 °C -4,4 °C 19,3 km/h (3 Bft)
11.03.2019 22:25 -0,2 °C 79 % 1025,1 hPa 0,0 mm 14,8 km/h (3 Bft) W 269 ° 0 min 0,000 mm 0,0 UV-I 0 W/m² -3,4 °C -4,6 °C 22,5 km/h (4 Bft)
11.03.2019 22:26 -0,2 °C 79 % 1025,1 hPa 0,0 mm 16,4 km/h (3 Bft) W-NW 298 ° 0 min 0,000 mm 0,0 UV-I 0 W/m² -3,4 °C -4,9 °C 24,1 km/h (4 Bft)
11.03.2019 22:27 -0,3 °C 79 % 1025,1 hPa 0,0 mm 17,4 km/h (3 Bft) W 259 ° 0 min 0,000 mm 0,0 UV-I 0 W/m² -3,5 °C -5,2 °C 25,7 km/h (4 Bft)
11.03.2019 22:28 -0,2 °C 79 % 1025,1 hPa 0,0 mm 14,9 km/h (3 Bft) W 264 ° 0 min 0,000 mm 0,0 UV-I 0 W/m² -3,4 °C -4,6 °C 22,5 km/h (4 Bft)
11.03.2019 22:29 -0,2 °C 79 % 1025,2 hPa 0,0 mm 18,7 km/h (3 Bft) W 269 ° 0 min 0,000 mm 0,0 UV-I 0 W/m² -3,4 °C -5,3 °C 29,0 km/h (5 Bft)
11.03.2019 22:30 -0,2 °C 79 % 1025,0 hPa 0,0 mm 13,3 km/h (3 Bft) W 265 ° 0 min 0,000 mm 0,0 UV-I 0 W/m² -3,4 °C -4,3 °C 20,9 km/h (4 Bft)
11.03.2019 22:31 -0,2 °C 79 % 1025,2 hPa 0,0 mm 15,5 km/h (3 Bft) W-SW 258 ° 0 min 0,000 mm 0,0 UV-I 0 W/m² -3,4 °C -4,8 °C 22,5 km/h (4 Bft)
11.03.2019 22:32 -0,2 °C 79 % 1025,1 hPa 0,0 mm 14,2 km/h (3 Bft) W 263 ° 0 min 0,000 mm 0,0 UV-I 0 W/m² -3,4 °C -4,5 °C 24,1 km/h (4 Bft)
11.03.2019 22:33 -0,2 °C 79 % 1025,1 hPa 0,0 mm 13,6 km/h (3 Bft) W-SW 246 ° 0 min 0,000 mm 0,0 UV-I 0 W/m² -3,4 °C -4,4 °C 19,3 km/h (3 Bft)
11.03.2019 22:34 -0,2 °C 79 % 1025,2 hPa 0,0 mm 15,8 km/h (3 Bft) W 276 ° 0 min 0,000 mm 0,0 UV-I 0 W/m² -3,4 °C -4,8 °C 20,9 km/h (4 Bft)
11.03.2019 22:35 -0,2 °C 79 % 1025,2 hPa 0,0 mm 20,3 km/h (4 Bft) W 263 ° 0 min 0,000 mm 0,0 UV-I 0 W/m² -3,4 °C -5,5 °C 33,8 km/h (5 Bft)
11.03.2019 22:36 -0,2 °C 79 % 1025,2 hPa 0,0 mm 21,9 km/h (4 Bft) W-NW 283 ° 0 min 0,000 mm 0,0 UV-I 0 W/m² -3,4 °C -5,8 °C 33,8 km/h (5 Bft)
11.03.2019 22:37 -0,2 °C 79 % 1025,2 hPa 0,0 mm 16,1 km/h (3 Bft) W-SW 249 ° 0 min 0,000 mm 0,0 UV-I 0 W/m² -3,4 °C -4,9 °C 24,1 km/h (4 Bft)
11.03.2019 22:38 -0,2 °C 79 % 1025,2 hPa 0,0 mm 21,1 km/h (4 Bft) W 271 ° 0 min 0,000 mm 0,0 UV-I 0 W/m² -3,4 °C -5,7 °C 29,0 km/h (5 Bft)
11.03.2019 22:39 -0,2 °C 79 % 1025,1 hPa 0,0 mm 19,7 km/h (3 Bft) SW 218 ° 0 min 0,000 mm 0,0 UV-I 0 W/m² -3,4 °C -5,4 °C 27,4 km/h (4 Bft)
11.03.2019 22:40 -0,2 °C 79 % 1025,1 hPa 0,0 mm 17,3 km/h (3 Bft) W 273 ° 0 min 0,000 mm 0,0 UV-I 0 W/m² -3,4 °C -5,1 °C 24,1 km/h (4 Bft)
11.03.2019 22:41 -0,2 °C 79 % 1025,1 hPa 0,0 mm 14,3 km/h (3 Bft) W 259 ° 0 min 0,000 mm 0,0 UV-I 0 W/m² -3,4 °C -4,5 °C 22,5 km/h (4 Bft)
11.03.2019 22:42 -0,2 °C 79 % 1025,1 hPa 0,0 mm 19,6 km/h (3 Bft) W 260 ° 0 min 0,000 mm 0,0 UV-I 0 W/m² -3,4 °C -5,4 °C 29,0 km/h (5 Bft)
11.03.2019 22:43 -0,2 °C 79 % 1025,1 hPa 0,0 mm 18,8 km/h (3 Bft) W 263 ° 0 min 0,000 mm 0,0 UV-I 0 W/m² -3,4 °C -5,3 °C 25,7 km/h (4 Bft)
11.03.2019 22:44 -0,2 °C 79 % 1025,1 hPa 0,0 mm 25,0 km/h (4 Bft) W-SW 247 ° 0 min 0,000 mm 0,0 UV-I 0 W/m² -3,4 °C -6,2 °C 30,6 km/h (5 Bft)
11.03.2019 22:45 -0,2 °C 79 % 1025,2 hPa 0,0 mm 18,0 km/h (3 Bft) W-SW 255 ° 0 min 0,000 mm 0,0 UV-I 0 W/m² -3,4 °C -5,2 °C 25,7 km/h (4 Bft)
11.03.2019 22:46 -0,2 °C 79 % 1025,2 hPa 0,0 mm 17,6 km/h (3 Bft) W-SW 248 ° 0 min 0,000 mm 0,0 UV-I 0 W/m² -3,4 °C -5,1 °C 25,7 km/h (4 Bft)
11.03.2019 22:47 -0,2 °C 79 % 1025,1 hPa 0,0 mm 18,0 km/h (3 Bft) W-SW 243 ° 0 min 0,000 mm 0,0 UV-I 0 W/m² -3,4 °C -5,2 °C 25,7 km/h (4 Bft)
11.03.2019 22:48 -0,2 °C 79 % 1025,1 hPa 0,0 mm 15,7 km/h (3 Bft) W 275 ° 0 min 0,000 mm 0,0 UV-I 0 W/m² -3,4 °C -4,8 °C 24,1 km/h (4 Bft)
11.03.2019 22:49 -0,2 °C 79 % 1025,1 hPa 0,0 mm 15,5 km/h (3 Bft) W 270 ° 0 min 0,000 mm 0,0 UV-I 0 W/m² -3,4 °C -4,8 °C 25,7 km/h (4 Bft)
11.03.2019 22:50 -0,2 °C 79 % 1025,1 hPa 0,0 mm 21,9 km/h (4 Bft) W-SW 251 ° 0 min 0,000 mm 0,0 UV-I 0 W/m² -3,4 °C -5,8 °C 29,0 km/h (5 Bft)
11.03.2019 22:51 -0,2 °C 79 % 1025,1 hPa 0,0 mm 16,6 km/h (3 Bft) W-NW 300 ° 0 min 0,000 mm 0,0 UV-I 0 W/m² -3,4 °C -5,0 °C 25,7 km/h (4 Bft)
11.03.2019 22:52 -0,2 °C 79 % 1025,2 hPa 0,0 mm 15,5 km/h (3 Bft) W 274 ° 0 min 0,000 mm 0,0 UV-I 0 W/m² -3,4 °C -4,8 °C 24,1 km/h (4 Bft)
11.03.2019 22:53 -0,2 °C 79 % 1025,1 hPa 0,0 mm 16,2 km/h (3 Bft) W-SW 251 ° 0 min 0,000 mm 0,0 UV-I 0 W/m² -3,4 °C -4,9 °C 20,9 km/h (4 Bft)
11.03.2019 22:54 -0,2 °C 79 % 1025,1 hPa 0,0 mm 10,4 km/h (2 Bft) W 278 ° 0 min 0,000 mm 0,0 UV-I 0 W/m² -3,4 °C -3,7 °C 17,7 km/h (3 Bft)
11.03.2019 22:55 -0,2 °C 79 % 1025,2 hPa 0,0 mm 21,3 km/h (4 Bft) W 265 ° 0 min 0,000 mm 0,0 UV-I 0 W/m² -3,4 °C -5,7 °C 29,0 km/h (5 Bft)
11.03.2019 22:56 -0,2 °C 80 % 1025,1 hPa 0,0 mm 15,0 km/h (3 Bft) W-SW 252 ° 0 min 0,000 mm 0,0 UV-I 0 W/m² -3,2 °C -4,7 °C 22,5 km/h (4 Bft)
11.03.2019 22:57 -0,2 °C 80 % 1025,1 hPa 0,0 mm 15,2 km/h (3 Bft) W 273 ° 0 min 0,000 mm 0,0 UV-I 0 W/m² -3,2 °C -4,7 °C 25,7 km/h (4 Bft)
11.03.2019 22:58 -0,2 °C 79 % 1025,1 hPa 0,0 mm 19,8 km/h (3 Bft) W 271 ° 0 min 0,000 mm 0,0 UV-I 0 W/m² -3,4 °C -5,5 °C 25,7 km/h (4 Bft)
11.03.2019 22:59 -0,2 °C 79 % 1025,1 hPa 0,0 mm 21,0 km/h (4 Bft) W 277 ° 0 min 0,000 mm 0,0 UV-I 0 W/m² -3,4 °C -5,6 °C 27,4 km/h (4 Bft)
11.03.2019 23:00 -0,2 °C 79 % 1025,3 hPa 0,0 mm 19,8 km/h (3 Bft) W-SW 246 ° 0 min 0,000 mm 0,0 UV-I 0 W/m² -3,4 °C -5,5 °C 29,0 km/h (5 Bft)
11.03.2019 23:01 -0,2 °C 79 % 1025,3 hPa 0,0 mm 21,2 km/h (4 Bft) W 264 ° 0 min 0,025 mm 0,0 UV-I 0 W/m² -3,4 °C -5,7 °C 38,6 km/h (5 Bft)
11.03.2019 23:02 -0,2 °C 79 % 1025,3 hPa 0,0 mm 19,1 km/h (3 Bft) SW 232 ° 0 min 0,000 mm 0,0 UV-I 0 W/m² -3,4 °C -5,4 °C 25,7 km/h (4 Bft)
11.03.2019 23:03 -0,2 °C 79 % 1025,2 hPa 0,0 mm 22,5 km/h (4 Bft) SW 217 ° 0 min 0,000 mm 0,0 UV-I 0 W/m² -3,4 °C -5,8 °C 37,0 km/h (5 Bft)
11.03.2019 23:04 -0,2 °C 79 % 1025,2 hPa 0,0 mm 16,9 km/h (3 Bft) W 270 ° 0 min 0,000 mm 0,0 UV-I 0 W/m² -3,4 °C -5,0 °C 19,3 km/h (3 Bft)
11.03.2019 23:05 -0,2 °C 79 % 1025,2 hPa 0,0 mm 17,8 km/h (3 Bft) W-SW 243 ° 0 min 0,000 mm 0,0 UV-I 0 W/m² -3,4 °C -5,2 °C 24,1 km/h (4 Bft)
11.03.2019 23:06 -0,2 °C 79 % 1025,3 hPa 0,0 mm 15,9 km/h (3 Bft) W 259 ° 0 min 0,000 mm 0,0 UV-I 0 W/m² -3,4 °C -4,8 °C 35,4 km/h (5 Bft)
11.03.2019 23:07 -0,1 °C 79 % 1025,3 hPa 0,0 mm 20,7 km/h (4 Bft) W-SW 250 ° 0 min 0,000 mm 0,0 UV-I 0 W/m² -3,3 °C -5,5 °C 35,4 km/h (5 Bft)
11.03.2019 23:08 -0,2 °C 79 % 1025,3 hPa 0,0 mm 21,2 km/h (4 Bft) W 276 ° 0 min 0,000 mm 0,0 UV-I 0 W/m² -3,4 °C -5,7 °C 30,6 km/h (5 Bft)
11.03.2019 23:09 -0,1 °C 79 % 1025,2 hPa 0,0 mm 18,8 km/h (3 Bft) W 267 ° 0 min 0,000 mm 0,0 UV-I 0 W/m² -3,3 °C -5,2 °C 33,8 km/h (5 Bft)
11.03.2019 23:10 -0,1 °C 78 % 1025,2 hPa 0,0 mm 21,5 km/h (4 Bft) W-SW 247 ° 0 min 0,000 mm 0,0 UV-I 0 W/m² -3,5 °C -5,6 °C 29,0 km/h (5 Bft)
11.03.2019 23:11 -0,1 °C 78 % 1025,2 hPa 0,0 mm 19,9 km/h (4 Bft) W-NW 285 ° 0 min 0,000 mm 0,0 UV-I 0 W/m² -3,5 °C -5,4 °C 25,7 km/h (4 Bft)
11.03.2019 23:12 -0,1 °C 78 % 1025,2 hPa 0,0 mm 14,7 km/h (3 Bft) W-SW 248 ° 0 min 0,000 mm 0,0 UV-I 0 W/m² -3,5 °C -4,5 °C 20,9 km/h (4 Bft)
11.03.2019 23:13 -0,1 °C 78 % 1025,3 hPa 0,0 mm 19,7 km/h (3 Bft) W-NW 292 ° 0 min 0,000 mm 0,0 UV-I 0 W/m² -3,5 °C -5,3 °C 30,6 km/h (5 Bft)
11.03.2019 23:14 -0,1 °C 78 % 1025,2 hPa 0,0 mm 15,8 km/h (3 Bft) W-SW 248 ° 0 min 0,000 mm 0,0 UV-I 0 W/m² -3,5 °C -4,7 °C 24,1 km/h (4 Bft)
11.03.2019 23:15 -0,1 °C 78 % 1025,3 hPa 0,0 mm 19,8 km/h (3 Bft) W 264 ° 0 min 0,000 mm 0,0 UV-I 0 W/m² -3,5 °C -5,3 °C 27,4 km/h (4 Bft)
11.03.2019 23:16 -0,1 °C 78 % 1025,3 hPa 0,0 mm 13,3 km/h (3 Bft) W 259 ° 0 min 0,000 mm 0,0 UV-I 0 W/m² -3,5 °C -4,2 °C 24,1 km/h (4 Bft)
11.03.2019 23:17 -0,1 °C 78 % 1025,3 hPa 0,0 mm 15,2 km/h (3 Bft) W 265 ° 0 min 0,000 mm 0,0 UV-I 0 W/m² -3,5 °C -4,6 °C 19,3 km/h (3 Bft)
11.03.2019 23:18 -0,1 °C 78 % 1025,4 hPa 0,0 mm 19,2 km/h (3 Bft) W 265 ° 0 min 0,000 mm 0,0 UV-I 0 W/m² -3,5 °C -5,2 °C 29,0 km/h (5 Bft)
11.03.2019 23:19 -0,1 °C 79 % 1025,4 hPa 0,0 mm 20,8 km/h (4 Bft) W-SW 253 ° 0 min 0,000 mm 0,0 UV-I 0 W/m² -3,3 °C -5,5 °C 30,6 km/h (5 Bft)
11.03.2019 23:20 -0,1 °C 78 % 1025,4 hPa 0,0 mm 24,1 km/h (4 Bft) W 267 ° 0 min 0,000 mm 0,0 UV-I 0 W/m² -3,5 °C -5,9 °C 35,4 km/h (5 Bft)
11.03.2019 23:21 -0,1 °C 78 % 1025,6 hPa 0,0 mm 13,7 km/h (3 Bft) W-SW 249 ° 0 min 0,000 mm 0,0 UV-I 0 W/m² -3,5 °C -4,3 °C 24,1 km/h (4 Bft)
11.03.2019 23:22 -0,1 °C 78 % 1025,4 hPa 0,0 mm 13,1 km/h (3 Bft) S-SW 211 ° 0 min 0,000 mm 0,0 UV-I 0 W/m² -3,5 °C -4,2 °C 24,1 km/h (4 Bft)
11.03.2019 23:23 -0,1 °C 78 % 1025,4 hPa 0,0 mm 13,9 km/h (3 Bft) W-SW 245 ° 0 min 0,000 mm 0,0 UV-I 0 W/m² -3,5 °C -4,3 °C 20,9 km/h (4 Bft)
11.03.2019 23:24 -0,1 °C 78 % 1025,4 hPa 0,0 mm 19,0 km/h (3 Bft) W-SW 257 ° 0 min 0,000 mm 0,0 UV-I 0 W/m² -3,5 °C -5,2 °C 29,0 km/h (5 Bft)
11.03.2019 23:25 -0,1 °C 78 % 1025,4 hPa 0,0 mm 14,8 km/h (3 Bft) W-SW 242 ° 0 min 0,000 mm 0,0 UV-I 0 W/m² -3,5 °C -4,5 °C 25,7 km/h (4 Bft)
11.03.2019 23:26 -0,1 °C 78 % 1025,5 hPa 0,0 mm 18,2 km/h (3 Bft) W 273 ° 0 min 0,000 mm 0,0 UV-I 0 W/m² -3,5 °C -5,1 °C 24,1 km/h (4 Bft)
11.03.2019 23:27 0,0 °C 78 % 1025,5 hPa 0,0 mm 17,1 km/h (3 Bft) W 273 ° 0 min 0,000 mm 0,0 UV-I 0 W/m² -3,4 °C -4,8 °C 24,1 km/h (4 Bft)
11.03.2019 23:28 0,0 °C 78 % 1025,4 hPa 0,0 mm 14,6 km/h (3 Bft) W-NW 285 ° 0 min 0,000 mm 0,0 UV-I 0 W/m² -3,4 °C -4,3 °C 20,9 km/h (4 Bft)
11.03.2019 23:29 0,0 °C 78 % 1025,4 hPa 0,0 mm 18,2 km/h (3 Bft) W-SW 254 ° 0 min 0,000 mm 0,0 UV-I 0 W/m² -3,4 °C -5,0 °C 27,4 km/h (4 Bft)
11.03.2019 23:30 0,0 °C 78 % 1025,4 hPa 0,0 mm 20,1 km/h (4 Bft) W 272 ° 0 min 0,000 mm 0,0 UV-I 0 W/m² -3,4 °C -5,3 °C 27,4 km/h (4 Bft)
11.03.2019 23:31 0,0 °C 78 % 1025,4 hPa 0,0 mm 16,0 km/h (3 Bft) W-NW 292 ° 0 min 0,000 mm 0,0 UV-I 0 W/m² -3,4 °C -4,6 °C 24,1 km/h (4 Bft)
11.03.2019 23:32 0,0 °C 78 % 1025,4 hPa 0,0 mm 18,4 km/h (3 Bft) W 262 ° 0 min 0,000 mm 0,0 UV-I 0 W/m² -3,4 °C -5,0 °C 27,4 km/h (4 Bft)
11.03.2019 23:33 0,0 °C 78 % 1025,4 hPa 0,0 mm 16,4 km/h (3 Bft) W-NW 297 ° 0 min 0,000 mm 0,0 UV-I 0 W/m² -3,4 °C -4,7 °C 22,5 km/h (4 Bft)
11.03.2019 23:34 0,0 °C 78 % 1025,4 hPa 0,0 mm 18,9 km/h (3 Bft) SW 231 ° 0 min 0,000 mm 0,0 UV-I 0 W/m² -3,4 °C -5,1 °C 25,7 km/h (4 Bft)
11.03.2019 23:35 0,0 °C 78 % 1025,4 hPa 0,0 mm 15,3 km/h (3 Bft) W-SW 249 ° 0 min 0,000 mm 0,0 UV-I 0 W/m² -3,4 °C -4,5 °C 32,2 km/h (5 Bft)
11.03.2019 23:36 0,0 °C 78 % 1025,4 hPa 0,0 mm 20,9 km/h (4 Bft) W 269 ° 0 min 0,000 mm 0,0 UV-I 0 W/m² -3,4 °C -5,4 °C 33,8 km/h (5 Bft)
11.03.2019 23:37 0,0 °C 78 % 1025,4 hPa 0,0 mm 19,4 km/h (3 Bft) W-SW 252 ° 0 min 0,000 mm 0,0 UV-I 0 W/m² -3,4 °C -5,2 °C 29,0 km/h (5 Bft)
11.03.2019 23:38 0,0 °C 78 % 1025,4 hPa 0,0 mm 14,8 km/h (3 Bft) W-SW 246 ° 0 min 0,000 mm 0,0 UV-I 0 W/m² -3,4 °C -4,4 °C 24,1 km/h (4 Bft)
11.03.2019 23:39 0,0 °C 78 % 1025,3 hPa 0,0 mm 13,7 km/h (3 Bft) W 259 ° 0 min 0,000 mm 0,0 UV-I 0 W/m² -3,4 °C -4,2 °C 19,3 km/h (3 Bft)
11.03.2019 23:40 0,0 °C 78 % 1025,3 hPa 0,0 mm 14,6 km/h (3 Bft) W 261 ° 0 min 0,000 mm 0,0 UV-I 0 W/m² -3,4 °C -4,3 °C 17,7 km/h (3 Bft)
11.03.2019 23:41 0,0 °C 78 % 1025,3 hPa 0,0 mm 19,7 km/h (3 Bft) W-SW 243 ° 0 min 0,000 mm 0,0 UV-I 0 W/m² -3,4 °C -5,2 °C 29,0 km/h (5 Bft)
11.03.2019 23:42 0,0 °C 78 % 1025,3 hPa 0,0 mm 19,4 km/h (3 Bft) W 264 ° 0 min 0,000 mm 0,0 UV-I 0 W/m² -3,4 °C -5,2 °C 32,2 km/h (5 Bft)
11.03.2019 23:43 -0,1 °C 78 % 1025,3 hPa 0,0 mm 17,8 km/h (3 Bft) W 268 ° 0 min 0,000 mm 0,0 UV-I 0 W/m² -3,5 °C -5,0 °C 24,1 km/h (4 Bft)
11.03.2019 23:44 0,0 °C 78 % 1025,3 hPa 0,0 mm 21,2 km/h (4 Bft) W 270 ° 0 min 0,000 mm 0,0 UV-I 0 W/m² -3,4 °C -5,4 °C 29,0 km/h (5 Bft)
11.03.2019 23:45 0,0 °C 78 % 1025,3 hPa 0,0 mm 16,2 km/h (3 Bft) W-SW 257 ° 0 min 0,000 mm 0,0 UV-I 0 W/m² -3,4 °C -4,6 °C 24,1 km/h (4 Bft)
11.03.2019 23:46 0,0 °C 78 % 1025,3 hPa 0,0 mm 23,2 km/h (4 Bft) W 277 ° 0 min 0,000 mm 0,0 UV-I 0 W/m² -3,4 °C -5,7 °C 30,6 km/h (5 Bft)
11.03.2019 23:47 0,0 °C 78 % 1025,3 hPa 0,0 mm 15,3 km/h (3 Bft) S-SW 198 ° 0 min 0,000 mm 0,0 UV-I 0 W/m² -3,4 °C -4,5 °C 22,5 km/h (4 Bft)
11.03.2019 23:48 0,0 °C 78 % 1025,3 hPa 0,0 mm 10,3 km/h (2 Bft) SW 229 ° 0 min 0,000 mm 0,0 UV-I 0 W/m² -3,4 °C -3,4 °C 16,1 km/h (3 Bft)
11.03.2019 23:49 0,0 °C 78 % 1025,3 hPa 0,0 mm 16,5 km/h (3 Bft) W-SW 252 ° 0 min 0,000 mm 0,0 UV-I 0 W/m² -3,4 °C -4,7 °C 24,1 km/h (4 Bft)
11.03.2019 23:50 0,0 °C 78 % 1025,2 hPa 0,0 mm 22,2 km/h (4 Bft) W 275 ° 0 min 0,000 mm 0,0 UV-I 0 W/m² -3,4 °C -5,6 °C 35,4 km/h (5 Bft)
11.03.2019 23:51 0,0 °C 78 % 1025,3 hPa 0,0 mm 19,4 km/h (3 Bft) W 275 ° 0 min 0,000 mm 0,0 UV-I 0 W/m² -3,4 °C -5,2 °C 25,7 km/h (4 Bft)
11.03.2019 23:52 0,0 °C 78 % 1025,2 hPa 0,0 mm 18,8 km/h (3 Bft) W-SW 254 ° 0 min 0,000 mm 0,0 UV-I 0 W/m² -3,4 °C -5,1 °C 27,4 km/h (4 Bft)
11.03.2019 23:53 0,0 °C 78 % 1025,2 hPa 0,0 mm 17,6 km/h (3 Bft) W 269 ° 0 min 0,000 mm 0,0 UV-I 0 W/m² -3,4 °C -4,9 °C 25,7 km/h (4 Bft)
11.03.2019 23:54 0,0 °C 78 % 1025,2 hPa 0,0 mm 12,8 km/h (3 Bft) W 281 ° 0 min 0,000 mm 0,0 UV-I 0 W/m² -3,4 °C -4,0 °C 17,7 km/h (3 Bft)
11.03.2019 23:55 -0,1 °C 78 % 1025,2 hPa 0,0 mm 15,6 km/h (3 Bft) W 260 ° 0 min 0,000 mm 0,0 UV-I 0 W/m² -3,5 °C -4,7 °C 27,4 km/h (4 Bft)
11.03.2019 23:56 0,0 °C 78 % 1025,2 hPa 0,0 mm 15,9 km/h (3 Bft) W-SW 244 ° 0 min 0,000 mm 0,0 UV-I 0 W/m² -3,4 °C -4,6 °C 24,1 km/h (4 Bft)
11.03.2019 23:57 -0,1 °C 78 % 1025,2 hPa 0,0 mm 11,0 km/h (2 Bft) W-SW 249 ° 0 min 0,000 mm 0,0 UV-I 0 W/m² -3,5 °C -3,7 °C 17,7 km/h (3 Bft)
11.03.2019 23:58 0,0 °C 78 % 1025,3 hPa 0,0 mm 19,7 km/h (3 Bft) W 267 ° 0 min 0,000 mm 0,0 UV-I 0 W/m² -3,4 °C -5,2 °C 33,8 km/h (5 Bft)
11.03.2019 23:59 -0,1 °C 78 % 1025,3 hPa 0,0 mm 20,5 km/h (4 Bft) W 260 ° 0 min 0,000 mm 0,0 UV-I 0 W/m² -3,5 °C -5,4 °C 29,0 km/h (5 Bft)
_ Min-Zeit 10:33 06:51 08:08 - 05:41 - - - - - - 06:32 10:13 05:41
Minimum _ -1,9 °C 60 % 1015,4 hPa - 3,6 km/h (1 Bft) - - - - - - -4,6 °C -7,9 °C 6,4 km/h (2 Bft)
_ Max-Zeit 00:01 10:43 23:21 14:34 09:50 - - 23:59 14:01 13:04 13:03 00:02 00:02 09:49
Maximum _ 5,1 °C 91 % 1025,6 hPa 0,2 mm 40,7 km/h
W-NW (6 Bft)
- - 0 min 0,077 mm 2,0 UV-I 301 W/m² 0,4 °C 4,0 °C 59,5 km/h
W-SW (7 Bft)
Durchschnitt _ 0,9 °C 76 % 1019,7 hPa #0,4 mm 15,2 km/h (3 Bft) W - #0 min. #1,092 mm 1,0 UV-I 51 W/m² -2,9 °C -3,3 °C 22,9 km/h (4 Bft)